<?xml version="1.0" encoding="UTF-8" standalone="no" ?>
<gpx xmlns="http://www.topografix.com/GPX/1/1" xmlns:xsi="http://www.w3.org/2001/XMLSchema-instance" xsi:schemaLocation="http://www.topografix.com/GPX/1/1 http://www.topografix.com/GPX/1/1/gpx.xsd" version="1.1" creator="VisuGPX - https://www.visugpx.com">
  <metadata>
    <name>trail Salin-Poupet 20km ; D  1050m </name>
    <desc><![CDATA[trail Salin-Poupet boucle de 20km ; D  1050m ]]></desc>
  </metadata>
  <trk>
    <name><![CDATA[2011-02-12T11:52:31Z]]></name>
    <trkseg>
      <trkpt lat="46.9395" lon="5.87762">
        <ele>337.5600586</ele>
        <time>2011-02-12T11:52:31Z</time>
      </trkpt>
      <trkpt lat="46.9395" lon="5.87761">
        <ele>342.3666992</ele>
        <time>2011-02-12T11:52:32Z</time>
      </trkpt>
      <trkpt lat="46.93951" lon="5.8776">
        <ele>341.8859863</ele>
        <time>2011-02-12T11:52:33Z</time>
      </trkpt>
      <trkpt lat="46.9395" lon="5.87757">
        <ele>345.7313232</ele>
        <time>2011-02-12T11:52:34Z</time>
      </trkpt>
      <trkpt lat="46.93952" lon="5.8775">
        <ele>345.7313232</ele>
        <time>2011-02-12T11:52:37Z</time>
      </trkpt>
      <trkpt lat="46.93955" lon="5.87739">
        <ele>341.8859863</ele>
        <time>2011-02-12T11:52:43Z</time>
      </trkpt>
      <trkpt lat="46.93956" lon="5.87734">
        <ele>346.2120361</ele>
        <time>2011-02-12T11:52:45Z</time>
      </trkpt>
      <trkpt lat="46.93962" lon="5.87728">
        <ele>353.9025879</ele>
        <time>2011-02-12T11:52:50Z</time>
      </trkpt>
      <trkpt lat="46.93971" lon="5.87729">
        <ele>358.7089844</ele>
        <time>2011-02-12T11:52:53Z</time>
      </trkpt>
      <trkpt lat="46.93973" lon="5.87728">
        <ele>358.7089844</ele>
        <time>2011-02-12T11:52:54Z</time>
      </trkpt>
      <trkpt lat="46.93977" lon="5.87726">
        <ele>357.7478027</ele>
        <time>2011-02-12T11:52:56Z</time>
      </trkpt>
      <trkpt lat="46.93987" lon="5.87724">
        <ele>355.3444824</ele>
        <time>2011-02-12T11:53:00Z</time>
      </trkpt>
      <trkpt lat="46.94005" lon="5.87729">
        <ele>349.0958252</ele>
        <time>2011-02-12T11:53:06Z</time>
      </trkpt>
      <trkpt lat="46.94019" lon="5.87736">
        <ele>349.0958252</ele>
        <time>2011-02-12T11:53:11Z</time>
      </trkpt>
      <trkpt lat="46.94033" lon="5.87741">
        <ele>347.6539307</ele>
        <time>2011-02-12T11:53:16Z</time>
      </trkpt>
      <trkpt lat="46.94046" lon="5.87742">
        <ele>351.9798584</ele>
        <time>2011-02-12T11:53:21Z</time>
      </trkpt>
      <trkpt lat="46.94059" lon="5.87747">
        <ele>353.421875</ele>
        <time>2011-02-12T11:53:26Z</time>
      </trkpt>
      <trkpt lat="46.94073" lon="5.87755">
        <ele>352.9411621</ele>
        <time>2011-02-12T11:53:32Z</time>
      </trkpt>
      <trkpt lat="46.94085" lon="5.87763">
        <ele>351.0184326</ele>
        <time>2011-02-12T11:53:37Z</time>
      </trkpt>
      <trkpt lat="46.94098" lon="5.87772">
        <ele>352.4605713</ele>
        <time>2011-02-12T11:53:42Z</time>
      </trkpt>
      <trkpt lat="46.94112" lon="5.87777">
        <ele>351.4991455</ele>
        <time>2011-02-12T11:53:47Z</time>
      </trkpt>
      <trkpt lat="46.94126" lon="5.87786">
        <ele>351.0184326</ele>
        <time>2011-02-12T11:53:53Z</time>
      </trkpt>
      <trkpt lat="46.94141" lon="5.8779">
        <ele>347.6539307</ele>
        <time>2011-02-12T11:53:58Z</time>
      </trkpt>
      <trkpt lat="46.94156" lon="5.87793">
        <ele>344.7700195</ele>
        <time>2011-02-12T11:54:04Z</time>
      </trkpt>
      <trkpt lat="46.94169" lon="5.87797">
        <ele>343.3278809</ele>
        <time>2011-02-12T11:54:09Z</time>
      </trkpt>
      <trkpt lat="46.94182" lon="5.87801">
        <ele>341.8859863</ele>
        <time>2011-02-12T11:54:14Z</time>
      </trkpt>
      <trkpt lat="46.94198" lon="5.87806">
        <ele>340.9246826</ele>
        <time>2011-02-12T11:54:20Z</time>
      </trkpt>
      <trkpt lat="46.94215" lon="5.87811">
        <ele>339.0020752</ele>
        <time>2011-02-12T11:54:27Z</time>
      </trkpt>
      <trkpt lat="46.94229" lon="5.8782">
        <ele>338.5214844</ele>
        <time>2011-02-12T11:54:33Z</time>
      </trkpt>
      <trkpt lat="46.94241" lon="5.8783">
        <ele>340.9246826</ele>
        <time>2011-02-12T11:54:39Z</time>
      </trkpt>
      <trkpt lat="46.9426" lon="5.87846">
        <ele>341.8859863</ele>
        <time>2011-02-12T11:54:47Z</time>
      </trkpt>
      <trkpt lat="46.94272" lon="5.87857">
        <ele>340.9246826</ele>
        <time>2011-02-12T11:54:52Z</time>
      </trkpt>
      <trkpt lat="46.94284" lon="5.87865">
        <ele>340.9246826</ele>
        <time>2011-02-12T11:54:57Z</time>
      </trkpt>
      <trkpt lat="46.94302" lon="5.87873">
        <ele>338.0407715</ele>
        <time>2011-02-12T11:55:04Z</time>
      </trkpt>
      <trkpt lat="46.94315" lon="5.87875">
        <ele>336.598877</ele>
        <time>2011-02-12T11:55:09Z</time>
      </trkpt>
      <trkpt lat="46.94335" lon="5.87875">
        <ele>335.6373291</ele>
        <time>2011-02-12T11:55:17Z</time>
      </trkpt>
      <trkpt lat="46.94345" lon="5.87872">
        <ele>335.1567383</ele>
        <time>2011-02-12T11:55:21Z</time>
      </trkpt>
      <trkpt lat="46.94362" lon="5.87869">
        <ele>336.598877</ele>
        <time>2011-02-12T11:55:27Z</time>
      </trkpt>
      <trkpt lat="46.94375" lon="5.87868">
        <ele>335.6373291</ele>
        <time>2011-02-12T11:55:32Z</time>
      </trkpt>
      <trkpt lat="46.94387" lon="5.87864">
        <ele>336.598877</ele>
        <time>2011-02-12T11:55:37Z</time>
      </trkpt>
      <trkpt lat="46.94396" lon="5.87861">
        <ele>335.1567383</ele>
        <time>2011-02-12T11:55:42Z</time>
      </trkpt>
      <trkpt lat="46.94411" lon="5.8786">
        <ele>334.1954346</ele>
        <time>2011-02-12T11:55:48Z</time>
      </trkpt>
      <trkpt lat="46.94422" lon="5.87857">
        <ele>338.0407715</ele>
        <time>2011-02-12T11:55:53Z</time>
      </trkpt>
      <trkpt lat="46.94425" lon="5.87858">
        <ele>338.5214844</ele>
        <time>2011-02-12T11:55:54Z</time>
      </trkpt>
      <trkpt lat="46.94442" lon="5.87871">
        <ele>334.1954346</ele>
        <time>2011-02-12T11:56:01Z</time>
      </trkpt>
      <trkpt lat="46.94448" lon="5.87876">
        <ele>333.2341309</ele>
        <time>2011-02-12T11:56:04Z</time>
      </trkpt>
      <trkpt lat="46.9445" lon="5.87884">
        <ele>332.2728271</ele>
        <time>2011-02-12T11:56:08Z</time>
      </trkpt>
      <trkpt lat="46.9445" lon="5.87889">
        <ele>332.2728271</ele>
        <time>2011-02-12T11:56:12Z</time>
      </trkpt>
      <trkpt lat="46.94457" lon="5.87901">
        <ele>331.7921143</ele>
        <time>2011-02-12T11:56:17Z</time>
      </trkpt>
      <trkpt lat="46.94459" lon="5.87901">
        <ele>331.3115234</ele>
        <time>2011-02-12T11:56:18Z</time>
      </trkpt>
      <trkpt lat="46.94463" lon="5.87902">
        <ele>331.3115234</ele>
        <time>2011-02-12T11:56:20Z</time>
      </trkpt>
      <trkpt lat="46.94466" lon="5.87906">
        <ele>330.8309326</ele>
        <time>2011-02-12T11:56:24Z</time>
      </trkpt>
      <trkpt lat="46.94457" lon="5.87909">
        <ele>330.3502197</ele>
        <time>2011-02-12T11:56:29Z</time>
      </trkpt>
      <trkpt lat="46.94448" lon="5.87913">
        <ele>331.7921143</ele>
        <time>2011-02-12T11:56:34Z</time>
      </trkpt>
      <trkpt lat="46.9444" lon="5.87919">
        <ele>333.7147217</ele>
        <time>2011-02-12T11:56:40Z</time>
      </trkpt>
      <trkpt lat="46.94435" lon="5.87928">
        <ele>336.598877</ele>
        <time>2011-02-12T11:56:46Z</time>
      </trkpt>
      <trkpt lat="46.94433" lon="5.87938">
        <ele>340.9246826</ele>
        <time>2011-02-12T11:56:53Z</time>
      </trkpt>
      <trkpt lat="46.94429" lon="5.87955">
        <ele>344.2894287</ele>
        <time>2011-02-12T11:57:02Z</time>
      </trkpt>
      <trkpt lat="46.94429" lon="5.87972">
        <ele>346.692627</ele>
        <time>2011-02-12T11:57:08Z</time>
      </trkpt>
      <trkpt lat="46.94431" lon="5.87987">
        <ele>345.7313232</ele>
        <time>2011-02-12T11:57:13Z</time>
      </trkpt>
      <trkpt lat="46.94436" lon="5.88007">
        <ele>346.692627</ele>
        <time>2011-02-12T11:57:19Z</time>
      </trkpt>
      <trkpt lat="46.94437" lon="5.8802">
        <ele>345.7313232</ele>
        <time>2011-02-12T11:57:23Z</time>
      </trkpt>
      <trkpt lat="46.94439" lon="5.88034">
        <ele>344.2894287</ele>
        <time>2011-02-12T11:57:27Z</time>
      </trkpt>
      <trkpt lat="46.94439" lon="5.88043">
        <ele>343.8085938</ele>
        <time>2011-02-12T11:57:30Z</time>
      </trkpt>
      <trkpt lat="46.94442" lon="5.88055">
        <ele>342.84729</ele>
        <time>2011-02-12T11:57:35Z</time>
      </trkpt>
      <trkpt lat="46.94443" lon="5.88065">
        <ele>343.3278809</ele>
        <time>2011-02-12T11:57:38Z</time>
      </trkpt>
      <trkpt lat="46.94441" lon="5.88083">
        <ele>344.7700195</ele>
        <time>2011-02-12T11:57:44Z</time>
      </trkpt>
      <trkpt lat="46.94436" lon="5.88091">
        <ele>346.692627</ele>
        <time>2011-02-12T11:57:48Z</time>
      </trkpt>
      <trkpt lat="46.94431" lon="5.88096">
        <ele>347.6539307</ele>
        <time>2011-02-12T11:57:51Z</time>
      </trkpt>
      <trkpt lat="46.94423" lon="5.88103">
        <ele>349.0958252</ele>
        <time>2011-02-12T11:57:56Z</time>
      </trkpt>
      <trkpt lat="46.94418" lon="5.88106">
        <ele>351.0184326</ele>
        <time>2011-02-12T11:57:59Z</time>
      </trkpt>
      <trkpt lat="46.94411" lon="5.88115">
        <ele>353.421875</ele>
        <time>2011-02-12T11:58:04Z</time>
      </trkpt>
      <trkpt lat="46.94409" lon="5.88116">
        <ele>353.9025879</ele>
        <time>2011-02-12T11:58:05Z</time>
      </trkpt>
      <trkpt lat="46.94405" lon="5.8812">
        <ele>357.2670898</ele>
        <time>2011-02-12T11:58:08Z</time>
      </trkpt>
      <trkpt lat="46.94393" lon="5.88114">
        <ele>360.151123</ele>
        <time>2011-02-12T11:58:15Z</time>
      </trkpt>
      <trkpt lat="46.94383" lon="5.8811">
        <ele>362.0737305</ele>
        <time>2011-02-12T11:58:21Z</time>
      </trkpt>
      <trkpt lat="46.94374" lon="5.88107">
        <ele>362.0737305</ele>
        <time>2011-02-12T11:58:26Z</time>
      </trkpt>
      <trkpt lat="46.94363" lon="5.88106">
        <ele>362.5543213</ele>
        <time>2011-02-12T11:58:32Z</time>
      </trkpt>
      <trkpt lat="46.94352" lon="5.88103">
        <ele>362.5543213</ele>
        <time>2011-02-12T11:58:38Z</time>
      </trkpt>
      <trkpt lat="46.94341" lon="5.88102">
        <ele>363.0350342</ele>
        <time>2011-02-12T11:58:44Z</time>
      </trkpt>
      <trkpt lat="46.9433" lon="5.881">
        <ele>362.5543213</ele>
        <time>2011-02-12T11:58:50Z</time>
      </trkpt>
      <trkpt lat="46.9432" lon="5.88098">
        <ele>362.0737305</ele>
        <time>2011-02-12T11:58:56Z</time>
      </trkpt>
      <trkpt lat="46.94319" lon="5.88098">
        <ele>362.0737305</ele>
        <time>2011-02-12T11:58:57Z</time>
      </trkpt>
      <trkpt lat="46.94307" lon="5.88096">
        <ele>361.5931396</ele>
        <time>2011-02-12T11:59:04Z</time>
      </trkpt>
      <trkpt lat="46.94299" lon="5.88091">
        <ele>365.9189453</ele>
        <time>2011-02-12T11:59:09Z</time>
      </trkpt>
      <trkpt lat="46.9429" lon="5.88088">
        <ele>368.3222656</ele>
        <time>2011-02-12T11:59:15Z</time>
      </trkpt>
      <trkpt lat="46.94285" lon="5.88085">
        <ele>369.7642822</ele>
        <time>2011-02-12T11:59:18Z</time>
      </trkpt>
      <trkpt lat="46.94278" lon="5.88082">
        <ele>372.1674805</ele>
        <time>2011-02-12T11:59:23Z</time>
      </trkpt>
      <trkpt lat="46.94271" lon="5.88082">
        <ele>373.6094971</ele>
        <time>2011-02-12T11:59:27Z</time>
      </trkpt>
      <trkpt lat="46.94261" lon="5.88082">
        <ele>374.0900879</ele>
        <time>2011-02-12T11:59:33Z</time>
      </trkpt>
      <trkpt lat="46.94251" lon="5.88082">
        <ele>375.0515137</ele>
        <time>2011-02-12T11:59:39Z</time>
      </trkpt>
      <trkpt lat="46.94248" lon="5.88082">
        <ele>376.0128174</ele>
        <time>2011-02-12T11:59:41Z</time>
      </trkpt>
      <trkpt lat="46.94239" lon="5.88084">
        <ele>377.9354248</ele>
        <time>2011-02-12T11:59:46Z</time>
      </trkpt>
      <trkpt lat="46.94231" lon="5.88087">
        <ele>378.8968506</ele>
        <time>2011-02-12T11:59:51Z</time>
      </trkpt>
      <trkpt lat="46.94223" lon="5.88089">
        <ele>381.3000488</ele>
        <time>2011-02-12T11:59:58Z</time>
      </trkpt>
      <trkpt lat="46.94216" lon="5.88099">
        <ele>384.184082</ele>
        <time>2011-02-12T12:00:05Z</time>
      </trkpt>
      <trkpt lat="46.9421" lon="5.88112">
        <ele>387.0679932</ele>
        <time>2011-02-12T12:00:13Z</time>
      </trkpt>
      <trkpt lat="46.94205" lon="5.88121">
        <ele>387.548584</ele>
        <time>2011-02-12T12:00:19Z</time>
      </trkpt>
      <trkpt lat="46.94199" lon="5.88129">
        <ele>388.0292969</ele>
        <time>2011-02-12T12:00:25Z</time>
      </trkpt>
      <trkpt lat="46.94189" lon="5.88136">
        <ele>389.9519043</ele>
        <time>2011-02-12T12:00:33Z</time>
      </trkpt>
      <trkpt lat="46.94179" lon="5.88138">
        <ele>391.8745117</ele>
        <time>2011-02-12T12:00:42Z</time>
      </trkpt>
      <trkpt lat="46.94167" lon="5.88137">
        <ele>394.2779541</ele>
        <time>2011-02-12T12:00:53Z</time>
      </trkpt>
      <trkpt lat="46.94159" lon="5.88131">
        <ele>396.2005615</ele>
        <time>2011-02-12T12:01:00Z</time>
      </trkpt>
      <trkpt lat="46.94151" lon="5.88123">
        <ele>396.6811523</ele>
        <time>2011-02-12T12:01:08Z</time>
      </trkpt>
      <trkpt lat="46.94145" lon="5.88117">
        <ele>395.2391357</ele>
        <time>2011-02-12T12:01:14Z</time>
      </trkpt>
      <trkpt lat="46.94137" lon="5.88112">
        <ele>394.2779541</ele>
        <time>2011-02-12T12:01:20Z</time>
      </trkpt>
      <trkpt lat="46.94129" lon="5.88111">
        <ele>394.2779541</ele>
        <time>2011-02-12T12:01:26Z</time>
      </trkpt>
      <trkpt lat="46.94127" lon="5.88117">
        <ele>397.1617432</ele>
        <time>2011-02-12T12:01:31Z</time>
      </trkpt>
      <trkpt lat="46.94129" lon="5.88119">
        <ele>397.6424561</ele>
        <time>2011-02-12T12:01:33Z</time>
      </trkpt>
      <trkpt lat="46.94139" lon="5.88126">
        <ele>398.6037598</ele>
        <time>2011-02-12T12:01:41Z</time>
      </trkpt>
      <trkpt lat="46.94142" lon="5.88127">
        <ele>399.5650635</ele>
        <time>2011-02-12T12:01:43Z</time>
      </trkpt>
      <trkpt lat="46.94147" lon="5.8814">
        <ele>401.9685059</ele>
        <time>2011-02-12T12:01:50Z</time>
      </trkpt>
      <trkpt lat="46.94147" lon="5.88143">
        <ele>402.4490967</ele>
        <time>2011-02-12T12:01:51Z</time>
      </trkpt>
      <trkpt lat="46.94142" lon="5.88155">
        <ele>405.8137207</ele>
        <time>2011-02-12T12:01:57Z</time>
      </trkpt>
      <trkpt lat="46.94136" lon="5.88164">
        <ele>406.7749023</ele>
        <time>2011-02-12T12:02:03Z</time>
      </trkpt>
      <trkpt lat="46.94133" lon="5.88179">
        <ele>406.2943115</ele>
        <time>2011-02-12T12:02:10Z</time>
      </trkpt>
      <trkpt lat="46.94131" lon="5.8819">
        <ele>407.2556152</ele>
        <time>2011-02-12T12:02:15Z</time>
      </trkpt>
      <trkpt lat="46.94129" lon="5.88204">
        <ele>408.6976318</ele>
        <time>2011-02-12T12:02:21Z</time>
      </trkpt>
      <trkpt lat="46.94128" lon="5.88218">
        <ele>410.1396484</ele>
        <time>2011-02-12T12:02:27Z</time>
      </trkpt>
      <trkpt lat="46.94127" lon="5.88233">
        <ele>412.5428467</ele>
        <time>2011-02-12T12:02:33Z</time>
      </trkpt>
      <trkpt lat="46.94124" lon="5.88243">
        <ele>414.4654541</ele>
        <time>2011-02-12T12:02:38Z</time>
      </trkpt>
      <trkpt lat="46.9412" lon="5.88255">
        <ele>415.9074707</ele>
        <time>2011-02-12T12:02:44Z</time>
      </trkpt>
      <trkpt lat="46.94113" lon="5.88265">
        <ele>417.8302002</ele>
        <time>2011-02-12T12:02:51Z</time>
      </trkpt>
      <trkpt lat="46.94106" lon="5.88277">
        <ele>420.7141113</ele>
        <time>2011-02-12T12:02:59Z</time>
      </trkpt>
      <trkpt lat="46.94098" lon="5.88289">
        <ele>423.5980225</ele>
        <time>2011-02-12T12:03:08Z</time>
      </trkpt>
      <trkpt lat="46.94091" lon="5.883">
        <ele>427.9239502</ele>
        <time>2011-02-12T12:03:17Z</time>
      </trkpt>
      <trkpt lat="46.9408" lon="5.88308">
        <ele>428.4046631</ele>
        <time>2011-02-12T12:03:26Z</time>
      </trkpt>
      <trkpt lat="46.9407" lon="5.8831">
        <ele>431.769165</ele>
        <time>2011-02-12T12:03:32Z</time>
      </trkpt>
      <trkpt lat="46.94056" lon="5.88312">
        <ele>434.6533203</ele>
        <time>2011-02-12T12:03:39Z</time>
      </trkpt>
      <trkpt lat="46.94046" lon="5.88317">
        <ele>434.6533203</ele>
        <time>2011-02-12T12:03:44Z</time>
      </trkpt>
      <trkpt lat="46.94036" lon="5.88323">
        <ele>434.1726074</ele>
        <time>2011-02-12T12:03:49Z</time>
      </trkpt>
      <trkpt lat="46.94034" lon="5.88324">
        <ele>434.1726074</ele>
        <time>2011-02-12T12:03:50Z</time>
      </trkpt>
      <trkpt lat="46.94023" lon="5.8833">
        <ele>433.6918945</ele>
        <time>2011-02-12T12:03:55Z</time>
      </trkpt>
      <trkpt lat="46.94009" lon="5.88335">
        <ele>432.25</ele>
        <time>2011-02-12T12:04:02Z</time>
      </trkpt>
      <trkpt lat="46.93998" lon="5.88336">
        <ele>432.7307129</ele>
        <time>2011-02-12T12:04:07Z</time>
      </trkpt>
      <trkpt lat="46.9398" lon="5.88335">
        <ele>435.614502</ele>
        <time>2011-02-12T12:04:15Z</time>
      </trkpt>
      <trkpt lat="46.93974" lon="5.88336">
        <ele>437.0565186</ele>
        <time>2011-02-12T12:04:18Z</time>
      </trkpt>
      <trkpt lat="46.93962" lon="5.88334">
        <ele>442.3438721</ele>
        <time>2011-02-12T12:04:24Z</time>
      </trkpt>
      <trkpt lat="46.93951" lon="5.88329">
        <ele>443.3050537</ele>
        <time>2011-02-12T12:04:30Z</time>
      </trkpt>
      <trkpt lat="46.93945" lon="5.88326">
        <ele>443.7857666</ele>
        <time>2011-02-12T12:04:33Z</time>
      </trkpt>
      <trkpt lat="46.93935" lon="5.88315">
        <ele>442.3438721</ele>
        <time>2011-02-12T12:04:40Z</time>
      </trkpt>
      <trkpt lat="46.93928" lon="5.88307">
        <ele>440.9018555</ele>
        <time>2011-02-12T12:04:45Z</time>
      </trkpt>
      <trkpt lat="46.93919" lon="5.88296">
        <ele>441.8631592</ele>
        <time>2011-02-12T12:04:51Z</time>
      </trkpt>
      <trkpt lat="46.93915" lon="5.88297">
        <ele>439.9404297</ele>
        <time>2011-02-12T12:04:53Z</time>
      </trkpt>
      <trkpt lat="46.93903" lon="5.88298">
        <ele>446.6696777</ele>
        <time>2011-02-12T12:04:58Z</time>
      </trkpt>
      <trkpt lat="46.93898" lon="5.88297">
        <ele>448.1118164</ele>
        <time>2011-02-12T12:05:01Z</time>
      </trkpt>
      <trkpt lat="46.9389" lon="5.88293">
        <ele>449.072998</ele>
        <time>2011-02-12T12:05:06Z</time>
      </trkpt>
      <trkpt lat="46.93887" lon="5.88291">
        <ele>446.1890869</ele>
        <time>2011-02-12T12:05:08Z</time>
      </trkpt>
      <trkpt lat="46.93877" lon="5.88283">
        <ele>446.6696777</ele>
        <time>2011-02-12T12:05:15Z</time>
      </trkpt>
      <trkpt lat="46.93875" lon="5.88283">
        <ele>445.708374</ele>
        <time>2011-02-12T12:05:16Z</time>
      </trkpt>
      <trkpt lat="46.93863" lon="5.8828">
        <ele>444.7470703</ele>
        <time>2011-02-12T12:05:23Z</time>
      </trkpt>
      <trkpt lat="46.93853" lon="5.88279">
        <ele>451.9570313</ele>
        <time>2011-02-12T12:05:28Z</time>
      </trkpt>
      <trkpt lat="46.9384" lon="5.88277">
        <ele>455.8022461</ele>
        <time>2011-02-12T12:05:36Z</time>
      </trkpt>
      <trkpt lat="46.93831" lon="5.88275">
        <ele>458.2055664</ele>
        <time>2011-02-12T12:05:42Z</time>
      </trkpt>
      <trkpt lat="46.93825" lon="5.88274">
        <ele>457.7249756</ele>
        <time>2011-02-12T12:05:47Z</time>
      </trkpt>
      <trkpt lat="46.93816" lon="5.88272">
        <ele>458.6861572</ele>
        <time>2011-02-12T12:05:54Z</time>
      </trkpt>
      <trkpt lat="46.93814" lon="5.8827">
        <ele>458.6861572</ele>
        <time>2011-02-12T12:05:56Z</time>
      </trkpt>
      <trkpt lat="46.93813" lon="5.88269">
        <ele>454.3602295</ele>
        <time>2011-02-12T12:05:58Z</time>
      </trkpt>
      <trkpt lat="46.93811" lon="5.88269">
        <ele>455.8022461</ele>
        <time>2011-02-12T12:06:11Z</time>
      </trkpt>
      <trkpt lat="46.93809" lon="5.88268">
        <ele>459.647583</ele>
        <time>2011-02-12T12:06:21Z</time>
      </trkpt>
      <trkpt lat="46.93809" lon="5.88267">
        <ele>460.6087646</ele>
        <time>2011-02-12T12:06:25Z</time>
      </trkpt>
      <trkpt lat="46.93809" lon="5.88267">
        <ele>461.0894775</ele>
        <time>2011-02-12T12:06:27Z</time>
      </trkpt>
      <trkpt lat="46.93807" lon="5.8827">
        <ele>464.9348145</ele>
        <time>2011-02-12T12:06:34Z</time>
      </trkpt>
      <trkpt lat="46.93807" lon="5.8827">
        <ele>465.4155273</ele>
        <time>2011-02-12T12:06:38Z</time>
      </trkpt>
      <trkpt lat="46.9381" lon="5.88267">
        <ele>464.9348145</ele>
        <time>2011-02-12T12:07:16Z</time>
      </trkpt>
      <trkpt lat="46.93804" lon="5.8827">
        <ele>464.4541016</ele>
        <time>2011-02-12T12:07:23Z</time>
      </trkpt>
      <trkpt lat="46.93799" lon="5.8827">
        <ele>461.0894775</ele>
        <time>2011-02-12T12:07:28Z</time>
      </trkpt>
      <trkpt lat="46.93791" lon="5.88266">
        <ele>460.6087646</ele>
        <time>2011-02-12T12:07:35Z</time>
      </trkpt>
      <trkpt lat="46.93783" lon="5.88264">
        <ele>459.647583</ele>
        <time>2011-02-12T12:07:40Z</time>
      </trkpt>
      <trkpt lat="46.9378" lon="5.88265">
        <ele>458.2055664</ele>
        <time>2011-02-12T12:07:42Z</time>
      </trkpt>
      <trkpt lat="46.93775" lon="5.88265">
        <ele>458.2055664</ele>
        <time>2011-02-12T12:07:46Z</time>
      </trkpt>
      <trkpt lat="46.93769" lon="5.88263">
        <ele>459.1668701</ele>
        <time>2011-02-12T12:07:50Z</time>
      </trkpt>
      <trkpt lat="46.93762" lon="5.88259">
        <ele>460.1281738</ele>
        <time>2011-02-12T12:07:55Z</time>
      </trkpt>
      <trkpt lat="46.93757" lon="5.88255">
        <ele>460.6087646</ele>
        <time>2011-02-12T12:07:59Z</time>
      </trkpt>
      <trkpt lat="46.93746" lon="5.88253">
        <ele>458.6861572</ele>
        <time>2011-02-12T12:08:06Z</time>
      </trkpt>
      <trkpt lat="46.93745" lon="5.88253">
        <ele>459.1668701</ele>
        <time>2011-02-12T12:08:07Z</time>
      </trkpt>
      <trkpt lat="46.9374" lon="5.88253">
        <ele>460.1281738</ele>
        <time>2011-02-12T12:08:11Z</time>
      </trkpt>
      <trkpt lat="46.93731" lon="5.88248">
        <ele>461.5701904</ele>
        <time>2011-02-12T12:08:18Z</time>
      </trkpt>
      <trkpt lat="46.93728" lon="5.88246">
        <ele>462.0507813</ele>
        <time>2011-02-12T12:08:21Z</time>
      </trkpt>
      <trkpt lat="46.93723" lon="5.88245">
        <ele>459.1668701</ele>
        <time>2011-02-12T12:08:25Z</time>
      </trkpt>
      <trkpt lat="46.93713" lon="5.88242">
        <ele>461.5701904</ele>
        <time>2011-02-12T12:08:32Z</time>
      </trkpt>
      <trkpt lat="46.93709" lon="5.88241">
        <ele>463.012085</ele>
        <time>2011-02-12T12:08:35Z</time>
      </trkpt>
      <trkpt lat="46.937" lon="5.88239">
        <ele>465.4155273</ele>
        <time>2011-02-12T12:08:42Z</time>
      </trkpt>
      <trkpt lat="46.93698" lon="5.88238">
        <ele>465.8961182</ele>
        <time>2011-02-12T12:08:44Z</time>
      </trkpt>
      <trkpt lat="46.9369" lon="5.88234">
        <ele>470.7026367</ele>
        <time>2011-02-12T12:08:50Z</time>
      </trkpt>
      <trkpt lat="46.93683" lon="5.8823">
        <ele>470.2219238</ele>
        <time>2011-02-12T12:08:56Z</time>
      </trkpt>
      <trkpt lat="46.93677" lon="5.88224">
        <ele>473.1060791</ele>
        <time>2011-02-12T12:09:02Z</time>
      </trkpt>
      <trkpt lat="46.93671" lon="5.88222">
        <ele>474.0672607</ele>
        <time>2011-02-12T12:09:07Z</time>
      </trkpt>
      <trkpt lat="46.93658" lon="5.88216">
        <ele>477.9124756</ele>
        <time>2011-02-12T12:09:15Z</time>
      </trkpt>
      <trkpt lat="46.93655" lon="5.88215">
        <ele>478.3931885</ele>
        <time>2011-02-12T12:09:17Z</time>
      </trkpt>
      <trkpt lat="46.93652" lon="5.88214">
        <ele>477.9124756</ele>
        <time>2011-02-12T12:09:20Z</time>
      </trkpt>
      <trkpt lat="46.93641" lon="5.88208">
        <ele>475.9898682</ele>
        <time>2011-02-12T12:09:28Z</time>
      </trkpt>
      <trkpt lat="46.93629" lon="5.88205">
        <ele>482.2385254</ele>
        <time>2011-02-12T12:09:35Z</time>
      </trkpt>
      <trkpt lat="46.93628" lon="5.88205">
        <ele>481.7578125</ele>
        <time>2011-02-12T12:09:36Z</time>
      </trkpt>
      <trkpt lat="46.93622" lon="5.88203">
        <ele>482.2385254</ele>
        <time>2011-02-12T12:09:41Z</time>
      </trkpt>
      <trkpt lat="46.93618" lon="5.88203">
        <ele>482.7192383</ele>
        <time>2011-02-12T12:09:45Z</time>
      </trkpt>
      <trkpt lat="46.93613" lon="5.88203">
        <ele>488.0064697</ele>
        <time>2011-02-12T12:09:51Z</time>
      </trkpt>
      <trkpt lat="46.93618" lon="5.8821">
        <ele>487.0450439</ele>
        <time>2011-02-12T12:09:56Z</time>
      </trkpt>
      <trkpt lat="46.93622" lon="5.88217">
        <ele>494.2550049</ele>
        <time>2011-02-12T12:10:04Z</time>
      </trkpt>
      <trkpt lat="46.93623" lon="5.8822">
        <ele>494.2550049</ele>
        <time>2011-02-12T12:10:06Z</time>
      </trkpt>
      <trkpt lat="46.93627" lon="5.88227">
        <ele>499.0615234</ele>
        <time>2011-02-12T12:10:13Z</time>
      </trkpt>
      <trkpt lat="46.93629" lon="5.88232">
        <ele>502.9067383</ele>
        <time>2011-02-12T12:10:20Z</time>
      </trkpt>
      <trkpt lat="46.93633" lon="5.88238">
        <ele>509.1553955</ele>
        <time>2011-02-12T12:10:30Z</time>
      </trkpt>
      <trkpt lat="46.93636" lon="5.88244">
        <ele>512.5200195</ele>
        <time>2011-02-12T12:10:36Z</time>
      </trkpt>
      <trkpt lat="46.93638" lon="5.8825">
        <ele>514.442627</ele>
        <time>2011-02-12T12:10:43Z</time>
      </trkpt>
      <trkpt lat="46.9364" lon="5.8826">
        <ele>513.4814453</ele>
        <time>2011-02-12T12:10:50Z</time>
      </trkpt>
      <trkpt lat="46.93639" lon="5.88266">
        <ele>513.9620361</ele>
        <time>2011-02-12T12:10:56Z</time>
      </trkpt>
      <trkpt lat="46.93642" lon="5.88273">
        <ele>514.9233398</ele>
        <time>2011-02-12T12:11:02Z</time>
      </trkpt>
      <trkpt lat="46.93641" lon="5.88275">
        <ele>517.807251</ele>
        <time>2011-02-12T12:11:08Z</time>
      </trkpt>
      <trkpt lat="46.93639" lon="5.88275">
        <ele>518.7685547</ele>
        <time>2011-02-12T12:11:10Z</time>
      </trkpt>
      <trkpt lat="46.93632" lon="5.88269">
        <ele>521.1719971</ele>
        <time>2011-02-12T12:11:15Z</time>
      </trkpt>
      <trkpt lat="46.93628" lon="5.88269">
        <ele>519.7298584</ele>
        <time>2011-02-12T12:11:20Z</time>
      </trkpt>
      <trkpt lat="46.9363" lon="5.88272">
        <ele>521.1719971</ele>
        <time>2011-02-12T12:11:26Z</time>
      </trkpt>
      <trkpt lat="46.93634" lon="5.8828">
        <ele>524.536499</ele>
        <time>2011-02-12T12:11:32Z</time>
      </trkpt>
      <trkpt lat="46.93635" lon="5.88281">
        <ele>525.0172119</ele>
        <time>2011-02-12T12:11:33Z</time>
      </trkpt>
      <trkpt lat="46.93636" lon="5.88286">
        <ele>528.3818359</ele>
        <time>2011-02-12T12:11:37Z</time>
      </trkpt>
      <trkpt lat="46.93638" lon="5.88293">
        <ele>530.7851563</ele>
        <time>2011-02-12T12:11:42Z</time>
      </trkpt>
      <trkpt lat="46.9364" lon="5.88298">
        <ele>533.1883545</ele>
        <time>2011-02-12T12:11:46Z</time>
      </trkpt>
      <trkpt lat="46.93639" lon="5.88301">
        <ele>532.7077637</ele>
        <time>2011-02-12T12:11:48Z</time>
      </trkpt>
      <trkpt lat="46.93646" lon="5.8831">
        <ele>537.9949951</ele>
        <time>2011-02-12T12:11:56Z</time>
      </trkpt>
      <trkpt lat="46.93646" lon="5.88316">
        <ele>538.475708</ele>
        <time>2011-02-12T12:11:59Z</time>
      </trkpt>
      <trkpt lat="46.93651" lon="5.88326">
        <ele>539.4368896</ele>
        <time>2011-02-12T12:12:04Z</time>
      </trkpt>
      <trkpt lat="46.93652" lon="5.88333">
        <ele>540.3983154</ele>
        <time>2011-02-12T12:12:08Z</time>
      </trkpt>
      <trkpt lat="46.93654" lon="5.88337">
        <ele>539.9176025</ele>
        <time>2011-02-12T12:12:11Z</time>
      </trkpt>
      <trkpt lat="46.93657" lon="5.88345">
        <ele>540.8789063</ele>
        <time>2011-02-12T12:12:17Z</time>
      </trkpt>
      <trkpt lat="46.93658" lon="5.88347">
        <ele>541.3594971</ele>
        <time>2011-02-12T12:12:18Z</time>
      </trkpt>
      <trkpt lat="46.9366" lon="5.88351">
        <ele>541.84021</ele>
        <time>2011-02-12T12:12:20Z</time>
      </trkpt>
      <trkpt lat="46.93667" lon="5.88358">
        <ele>542.3209229</ele>
        <time>2011-02-12T12:12:25Z</time>
      </trkpt>
      <trkpt lat="46.93668" lon="5.8836">
        <ele>542.3209229</ele>
        <time>2011-02-12T12:12:26Z</time>
      </trkpt>
      <trkpt lat="46.93677" lon="5.88369">
        <ele>543.2821045</ele>
        <time>2011-02-12T12:12:33Z</time>
      </trkpt>
      <trkpt lat="46.93688" lon="5.88383">
        <ele>544.7242432</ele>
        <time>2011-02-12T12:12:40Z</time>
      </trkpt>
      <trkpt lat="46.93691" lon="5.88386">
        <ele>545.204834</ele>
        <time>2011-02-12T12:12:42Z</time>
      </trkpt>
      <trkpt lat="46.93696" lon="5.88395">
        <ele>546.6468506</ele>
        <time>2011-02-12T12:12:46Z</time>
      </trkpt>
      <trkpt lat="46.937" lon="5.88404">
        <ele>548.0888672</ele>
        <time>2011-02-12T12:12:51Z</time>
      </trkpt>
      <trkpt lat="46.93699" lon="5.8841">
        <ele>547.6081543</ele>
        <time>2011-02-12T12:13:00Z</time>
      </trkpt>
      <trkpt lat="46.93699" lon="5.88408">
        <ele>550.9726563</ele>
        <time>2011-02-12T12:13:08Z</time>
      </trkpt>
      <trkpt lat="46.93699" lon="5.88408">
        <ele>551.934082</ele>
        <time>2011-02-12T12:13:17Z</time>
      </trkpt>
      <trkpt lat="46.937" lon="5.88408">
        <ele>552.4145508</ele>
        <time>2011-02-12T12:13:19Z</time>
      </trkpt>
      <trkpt lat="46.93701" lon="5.88408">
        <ele>553.8566895</ele>
        <time>2011-02-12T12:13:23Z</time>
      </trkpt>
      <trkpt lat="46.93707" lon="5.8841">
        <ele>554.8178711</ele>
        <time>2011-02-12T12:13:26Z</time>
      </trkpt>
      <trkpt lat="46.93711" lon="5.88411">
        <ele>555.7792969</ele>
        <time>2011-02-12T12:13:28Z</time>
      </trkpt>
      <trkpt lat="46.9372" lon="5.88421">
        <ele>554.3374023</ele>
        <time>2011-02-12T12:13:35Z</time>
      </trkpt>
      <trkpt lat="46.93724" lon="5.88426">
        <ele>551.934082</ele>
        <time>2011-02-12T12:13:39Z</time>
      </trkpt>
      <trkpt lat="46.93725" lon="5.88426">
        <ele>550.9726563</ele>
        <time>2011-02-12T12:13:40Z</time>
      </trkpt>
      <trkpt lat="46.93733" lon="5.88434">
        <ele>547.6081543</ele>
        <time>2011-02-12T12:13:46Z</time>
      </trkpt>
      <trkpt lat="46.93738" lon="5.8844">
        <ele>544.2436523</ele>
        <time>2011-02-12T12:13:50Z</time>
      </trkpt>
      <trkpt lat="46.93743" lon="5.88445">
        <ele>539.4368896</ele>
        <time>2011-02-12T12:13:54Z</time>
      </trkpt>
      <trkpt lat="46.93742" lon="5.88439">
        <ele>533.6689453</ele>
        <time>2011-02-12T12:14:00Z</time>
      </trkpt>
      <trkpt lat="46.93741" lon="5.88437">
        <ele>533.1883545</ele>
        <time>2011-02-12T12:14:01Z</time>
      </trkpt>
      <trkpt lat="46.93739" lon="5.88422">
        <ele>527.901001</ele>
        <time>2011-02-12T12:14:08Z</time>
      </trkpt>
      <trkpt lat="46.93735" lon="5.88406">
        <ele>522.1331787</ele>
        <time>2011-02-12T12:14:15Z</time>
      </trkpt>
      <trkpt lat="46.93731" lon="5.88393">
        <ele>519.2492676</ele>
        <time>2011-02-12T12:14:21Z</time>
      </trkpt>
      <trkpt lat="46.93729" lon="5.88386">
        <ele>517.3266602</ele>
        <time>2011-02-12T12:14:24Z</time>
      </trkpt>
      <trkpt lat="46.93734" lon="5.88383">
        <ele>513.9620361</ele>
        <time>2011-02-12T12:14:30Z</time>
      </trkpt>
      <trkpt lat="46.93739" lon="5.88385">
        <ele>511.0780029</ele>
        <time>2011-02-12T12:14:35Z</time>
      </trkpt>
      <trkpt lat="46.93749" lon="5.88388">
        <ele>507.713501</ele>
        <time>2011-02-12T12:14:40Z</time>
      </trkpt>
      <trkpt lat="46.93757" lon="5.8839">
        <ele>506.2714844</ele>
        <time>2011-02-12T12:14:45Z</time>
      </trkpt>
      <trkpt lat="46.93758" lon="5.8839">
        <ele>505.3101807</ele>
        <time>2011-02-12T12:14:46Z</time>
      </trkpt>
      <trkpt lat="46.93765" lon="5.88395">
        <ele>502.4261475</ele>
        <time>2011-02-12T12:14:50Z</time>
      </trkpt>
      <trkpt lat="46.93775" lon="5.88402">
        <ele>499.0615234</ele>
        <time>2011-02-12T12:14:58Z</time>
      </trkpt>
      <trkpt lat="46.93778" lon="5.88402">
        <ele>499.0615234</ele>
        <time>2011-02-12T12:15:01Z</time>
      </trkpt>
      <trkpt lat="46.93784" lon="5.88405">
        <ele>496.6583252</ele>
        <time>2011-02-12T12:15:05Z</time>
      </trkpt>
      <trkpt lat="46.9379" lon="5.88408">
        <ele>494.7355957</ele>
        <time>2011-02-12T12:15:08Z</time>
      </trkpt>
      <trkpt lat="46.93803" lon="5.88415">
        <ele>491.8516846</ele>
        <time>2011-02-12T12:15:13Z</time>
      </trkpt>
      <trkpt lat="46.93819" lon="5.8842">
        <ele>489.4483643</ele>
        <time>2011-02-12T12:15:20Z</time>
      </trkpt>
      <trkpt lat="46.93821" lon="5.8842">
        <ele>489.9290771</ele>
        <time>2011-02-12T12:15:21Z</time>
      </trkpt>
      <trkpt lat="46.93828" lon="5.88424">
        <ele>487.5256348</ele>
        <time>2011-02-12T12:15:25Z</time>
      </trkpt>
      <trkpt lat="46.93833" lon="5.88424">
        <ele>488.0064697</ele>
        <time>2011-02-12T12:15:27Z</time>
      </trkpt>
      <trkpt lat="46.93846" lon="5.8843">
        <ele>485.6030273</ele>
        <time>2011-02-12T12:15:32Z</time>
      </trkpt>
      <trkpt lat="46.93863" lon="5.88434">
        <ele>481.7578125</ele>
        <time>2011-02-12T12:15:39Z</time>
      </trkpt>
      <trkpt lat="46.93871" lon="5.88437">
        <ele>475.9898682</ele>
        <time>2011-02-12T12:15:43Z</time>
      </trkpt>
      <trkpt lat="46.93874" lon="5.88438">
        <ele>475.5092773</ele>
        <time>2011-02-12T12:15:45Z</time>
      </trkpt>
      <trkpt lat="46.93888" lon="5.88438">
        <ele>472.6253662</ele>
        <time>2011-02-12T12:15:51Z</time>
      </trkpt>
      <trkpt lat="46.93897" lon="5.88438">
        <ele>471.1833496</ele>
        <time>2011-02-12T12:15:55Z</time>
      </trkpt>
      <trkpt lat="46.93909" lon="5.88438">
        <ele>467.3381348</ele>
        <time>2011-02-12T12:16:01Z</time>
      </trkpt>
      <trkpt lat="46.9392" lon="5.88439">
        <ele>462.0507813</ele>
        <time>2011-02-12T12:16:07Z</time>
      </trkpt>
      <trkpt lat="46.93933" lon="5.88441">
        <ele>460.1281738</ele>
        <time>2011-02-12T12:16:13Z</time>
      </trkpt>
      <trkpt lat="46.93945" lon="5.88441">
        <ele>456.7635498</ele>
        <time>2011-02-12T12:16:18Z</time>
      </trkpt>
      <trkpt lat="46.93953" lon="5.88446">
        <ele>454.8408203</ele>
        <time>2011-02-12T12:16:22Z</time>
      </trkpt>
      <trkpt lat="46.93966" lon="5.8845">
        <ele>454.8408203</ele>
        <time>2011-02-12T12:16:28Z</time>
      </trkpt>
      <trkpt lat="46.93978" lon="5.88458">
        <ele>456.282959</ele>
        <time>2011-02-12T12:16:34Z</time>
      </trkpt>
      <trkpt lat="46.93986" lon="5.8847">
        <ele>456.7635498</ele>
        <time>2011-02-12T12:16:39Z</time>
      </trkpt>
      <trkpt lat="46.93999" lon="5.88483">
        <ele>458.6861572</ele>
        <time>2011-02-12T12:16:45Z</time>
      </trkpt>
      <trkpt lat="46.94007" lon="5.8849">
        <ele>458.2055664</ele>
        <time>2011-02-12T12:16:50Z</time>
      </trkpt>
      <trkpt lat="46.94011" lon="5.88493">
        <ele>462.5313721</ele>
        <time>2011-02-12T12:16:56Z</time>
      </trkpt>
      <trkpt lat="46.94018" lon="5.88495">
        <ele>467.3381348</ele>
        <time>2011-02-12T12:17:00Z</time>
      </trkpt>
      <trkpt lat="46.94022" lon="5.88497">
        <ele>467.3381348</ele>
        <time>2011-02-12T12:17:04Z</time>
      </trkpt>
      <trkpt lat="46.9403" lon="5.88503">
        <ele>467.8187256</ele>
        <time>2011-02-12T12:17:10Z</time>
      </trkpt>
      <trkpt lat="46.94032" lon="5.88505">
        <ele>467.8187256</ele>
        <time>2011-02-12T12:17:12Z</time>
      </trkpt>
      <trkpt lat="46.94039" lon="5.88514">
        <ele>465.8961182</ele>
        <time>2011-02-12T12:17:18Z</time>
      </trkpt>
      <trkpt lat="46.94041" lon="5.88519">
        <ele>465.8961182</ele>
        <time>2011-02-12T12:17:20Z</time>
      </trkpt>
      <trkpt lat="46.94043" lon="5.88522">
        <ele>464.4541016</ele>
        <time>2011-02-12T12:17:22Z</time>
      </trkpt>
      <trkpt lat="46.94047" lon="5.88528">
        <ele>463.4927979</ele>
        <time>2011-02-12T12:17:26Z</time>
      </trkpt>
      <trkpt lat="46.94053" lon="5.88535">
        <ele>464.4541016</ele>
        <time>2011-02-12T12:17:31Z</time>
      </trkpt>
      <trkpt lat="46.94054" lon="5.88538">
        <ele>464.9348145</ele>
        <time>2011-02-12T12:17:33Z</time>
      </trkpt>
      <trkpt lat="46.94058" lon="5.88543">
        <ele>465.4155273</ele>
        <time>2011-02-12T12:17:37Z</time>
      </trkpt>
      <trkpt lat="46.94065" lon="5.8855">
        <ele>464.9348145</ele>
        <time>2011-02-12T12:17:42Z</time>
      </trkpt>
      <trkpt lat="46.9407" lon="5.88554">
        <ele>463.9733887</ele>
        <time>2011-02-12T12:17:46Z</time>
      </trkpt>
      <trkpt lat="46.94073" lon="5.88557">
        <ele>463.4927979</ele>
        <time>2011-02-12T12:17:49Z</time>
      </trkpt>
      <trkpt lat="46.94078" lon="5.88561">
        <ele>463.012085</ele>
        <time>2011-02-12T12:17:53Z</time>
      </trkpt>
      <trkpt lat="46.94088" lon="5.88568">
        <ele>464.4541016</ele>
        <time>2011-02-12T12:18:00Z</time>
      </trkpt>
      <trkpt lat="46.9409" lon="5.88569">
        <ele>464.4541016</ele>
        <time>2011-02-12T12:18:02Z</time>
      </trkpt>
      <trkpt lat="46.94099" lon="5.88573">
        <ele>466.8574219</ele>
        <time>2011-02-12T12:18:08Z</time>
      </trkpt>
      <trkpt lat="46.9411" lon="5.88575">
        <ele>470.7026367</ele>
        <time>2011-02-12T12:18:14Z</time>
      </trkpt>
      <trkpt lat="46.94117" lon="5.88579">
        <ele>477.4318848</ele>
        <time>2011-02-12T12:18:20Z</time>
      </trkpt>
      <trkpt lat="46.94122" lon="5.88585">
        <ele>476.4705811</ele>
        <time>2011-02-12T12:18:25Z</time>
      </trkpt>
      <trkpt lat="46.94132" lon="5.88591">
        <ele>481.2772217</ele>
        <time>2011-02-12T12:18:32Z</time>
      </trkpt>
      <trkpt lat="46.94136" lon="5.88594">
        <ele>483.1998291</ele>
        <time>2011-02-12T12:18:35Z</time>
      </trkpt>
      <trkpt lat="46.94139" lon="5.886">
        <ele>484.1611328</ele>
        <time>2011-02-12T12:18:39Z</time>
      </trkpt>
      <trkpt lat="46.94149" lon="5.88612">
        <ele>483.6804199</ele>
        <time>2011-02-12T12:18:47Z</time>
      </trkpt>
      <trkpt lat="46.9415" lon="5.88614">
        <ele>484.1611328</ele>
        <time>2011-02-12T12:18:48Z</time>
      </trkpt>
      <trkpt lat="46.94157" lon="5.88625">
        <ele>486.5644531</ele>
        <time>2011-02-12T12:18:55Z</time>
      </trkpt>
      <trkpt lat="46.94159" lon="5.88632">
        <ele>490.40979</ele>
        <time>2011-02-12T12:18:59Z</time>
      </trkpt>
      <trkpt lat="46.94163" lon="5.88645">
        <ele>492.8129883</ele>
        <time>2011-02-12T12:19:06Z</time>
      </trkpt>
      <trkpt lat="46.94164" lon="5.8865">
        <ele>493.2935791</ele>
        <time>2011-02-12T12:19:08Z</time>
      </trkpt>
      <trkpt lat="46.94168" lon="5.88661">
        <ele>492.8129883</ele>
        <time>2011-02-12T12:19:14Z</time>
      </trkpt>
      <trkpt lat="46.94172" lon="5.88668">
        <ele>491.3709717</ele>
        <time>2011-02-12T12:19:19Z</time>
      </trkpt>
      <trkpt lat="46.94173" lon="5.8867">
        <ele>491.8516846</ele>
        <time>2011-02-12T12:19:21Z</time>
      </trkpt>
      <trkpt lat="46.94176" lon="5.88677">
        <ele>491.8516846</ele>
        <time>2011-02-12T12:19:26Z</time>
      </trkpt>
      <trkpt lat="46.9418" lon="5.88688">
        <ele>490.8903809</ele>
        <time>2011-02-12T12:19:32Z</time>
      </trkpt>
      <trkpt lat="46.94181" lon="5.88692">
        <ele>490.40979</ele>
        <time>2011-02-12T12:19:34Z</time>
      </trkpt>
      <trkpt lat="46.94187" lon="5.88708">
        <ele>489.4483643</ele>
        <time>2011-02-12T12:19:42Z</time>
      </trkpt>
      <trkpt lat="46.94188" lon="5.88712">
        <ele>488.4871826</ele>
        <time>2011-02-12T12:19:44Z</time>
      </trkpt>
      <trkpt lat="46.94191" lon="5.8872">
        <ele>488.9677734</ele>
        <time>2011-02-12T12:19:48Z</time>
      </trkpt>
      <trkpt lat="46.94201" lon="5.88733">
        <ele>490.8903809</ele>
        <time>2011-02-12T12:19:55Z</time>
      </trkpt>
      <trkpt lat="46.9421" lon="5.88741">
        <ele>488.4871826</ele>
        <time>2011-02-12T12:20:02Z</time>
      </trkpt>
      <trkpt lat="46.94217" lon="5.88741">
        <ele>496.6583252</ele>
        <time>2011-02-12T12:20:06Z</time>
      </trkpt>
      <trkpt lat="46.94225" lon="5.88741">
        <ele>500.50354</ele>
        <time>2011-02-12T12:20:10Z</time>
      </trkpt>
      <trkpt lat="46.94234" lon="5.88745">
        <ele>500.9841309</ele>
        <time>2011-02-12T12:20:16Z</time>
      </trkpt>
      <trkpt lat="46.9424" lon="5.8875">
        <ele>500.9841309</ele>
        <time>2011-02-12T12:20:21Z</time>
      </trkpt>
      <trkpt lat="46.94249" lon="5.88757">
        <ele>500.50354</ele>
        <time>2011-02-12T12:20:27Z</time>
      </trkpt>
      <trkpt lat="46.94255" lon="5.88764">
        <ele>500.0229492</ele>
        <time>2011-02-12T12:20:32Z</time>
      </trkpt>
      <trkpt lat="46.94267" lon="5.8877">
        <ele>501.4648438</ele>
        <time>2011-02-12T12:20:40Z</time>
      </trkpt>
      <trkpt lat="46.94277" lon="5.88772">
        <ele>507.713501</ele>
        <time>2011-02-12T12:20:45Z</time>
      </trkpt>
      <trkpt lat="46.94282" lon="5.88776">
        <ele>508.6746826</ele>
        <time>2011-02-12T12:20:49Z</time>
      </trkpt>
      <trkpt lat="46.9429" lon="5.88779">
        <ele>517.3266602</ele>
        <time>2011-02-12T12:20:55Z</time>
      </trkpt>
      <trkpt lat="46.94296" lon="5.88789">
        <ele>514.9233398</ele>
        <time>2011-02-12T12:21:01Z</time>
      </trkpt>
      <trkpt lat="46.94298" lon="5.88792">
        <ele>514.9233398</ele>
        <time>2011-02-12T12:21:03Z</time>
      </trkpt>
      <trkpt lat="46.94304" lon="5.88797">
        <ele>514.9233398</ele>
        <time>2011-02-12T12:21:08Z</time>
      </trkpt>
      <trkpt lat="46.94311" lon="5.88806">
        <ele>512.5200195</ele>
        <time>2011-02-12T12:21:14Z</time>
      </trkpt>
      <trkpt lat="46.94317" lon="5.88812">
        <ele>513.4814453</ele>
        <time>2011-02-12T12:21:19Z</time>
      </trkpt>
      <trkpt lat="46.94328" lon="5.88822">
        <ele>512.5200195</ele>
        <time>2011-02-12T12:21:27Z</time>
      </trkpt>
      <trkpt lat="46.94328" lon="5.88821">
        <ele>514.9233398</ele>
        <time>2011-02-12T12:21:28Z</time>
      </trkpt>
      <trkpt lat="46.94327" lon="5.88815">
        <ele>520.6912842</ele>
        <time>2011-02-12T12:21:33Z</time>
      </trkpt>
      <trkpt lat="46.94327" lon="5.88815">
        <ele>523.5751953</ele>
        <time>2011-02-12T12:21:39Z</time>
      </trkpt>
      <trkpt lat="46.94334" lon="5.88824">
        <ele>522.1331787</ele>
        <time>2011-02-12T12:21:45Z</time>
      </trkpt>
      <trkpt lat="46.94343" lon="5.8883">
        <ele>526.4591064</ele>
        <time>2011-02-12T12:21:52Z</time>
      </trkpt>
      <trkpt lat="46.94345" lon="5.88832">
        <ele>527.4204102</ele>
        <time>2011-02-12T12:21:54Z</time>
      </trkpt>
      <trkpt lat="46.94352" lon="5.88835">
        <ele>525.9783936</ele>
        <time>2011-02-12T12:21:59Z</time>
      </trkpt>
      <trkpt lat="46.94364" lon="5.88838">
        <ele>528.3818359</ele>
        <time>2011-02-12T12:22:04Z</time>
      </trkpt>
      <trkpt lat="46.94371" lon="5.88839">
        <ele>532.2270508</ele>
        <time>2011-02-12T12:22:08Z</time>
      </trkpt>
      <trkpt lat="46.94383" lon="5.88842">
        <ele>533.1883545</ele>
        <time>2011-02-12T12:22:13Z</time>
      </trkpt>
      <trkpt lat="46.94392" lon="5.88842">
        <ele>534.6303711</ele>
        <time>2011-02-12T12:22:18Z</time>
      </trkpt>
      <trkpt lat="46.94399" lon="5.88842">
        <ele>536.0723877</ele>
        <time>2011-02-12T12:22:22Z</time>
      </trkpt>
      <trkpt lat="46.94411" lon="5.88846">
        <ele>536.5531006</ele>
        <time>2011-02-12T12:22:28Z</time>
      </trkpt>
      <trkpt lat="46.94425" lon="5.88853">
        <ele>540.3983154</ele>
        <time>2011-02-12T12:22:35Z</time>
      </trkpt>
      <trkpt lat="46.94435" lon="5.88857">
        <ele>540.3983154</ele>
        <time>2011-02-12T12:22:40Z</time>
      </trkpt>
      <trkpt lat="46.94439" lon="5.8886">
        <ele>541.3594971</ele>
        <time>2011-02-12T12:22:43Z</time>
      </trkpt>
      <trkpt lat="46.94446" lon="5.88867">
        <ele>540.8789063</ele>
        <time>2011-02-12T12:22:49Z</time>
      </trkpt>
      <trkpt lat="46.94451" lon="5.88874">
        <ele>538.9562988</ele>
        <time>2011-02-12T12:22:53Z</time>
      </trkpt>
      <trkpt lat="46.94458" lon="5.88882">
        <ele>539.4368896</ele>
        <time>2011-02-12T12:22:58Z</time>
      </trkpt>
      <trkpt lat="46.94465" lon="5.88891">
        <ele>539.9176025</ele>
        <time>2011-02-12T12:23:03Z</time>
      </trkpt>
      <trkpt lat="46.94473" lon="5.88899">
        <ele>537.9949951</ele>
        <time>2011-02-12T12:23:08Z</time>
      </trkpt>
      <trkpt lat="46.94481" lon="5.88907">
        <ele>540.3983154</ele>
        <time>2011-02-12T12:23:13Z</time>
      </trkpt>
      <trkpt lat="46.94482" lon="5.88908">
        <ele>540.3983154</ele>
        <time>2011-02-12T12:23:14Z</time>
      </trkpt>
      <trkpt lat="46.9449" lon="5.88917">
        <ele>541.84021</ele>
        <time>2011-02-12T12:23:20Z</time>
      </trkpt>
      <trkpt lat="46.94491" lon="5.88918">
        <ele>542.3209229</ele>
        <time>2011-02-12T12:23:21Z</time>
      </trkpt>
      <trkpt lat="46.945" lon="5.88929">
        <ele>545.204834</ele>
        <time>2011-02-12T12:23:28Z</time>
      </trkpt>
      <trkpt lat="46.94506" lon="5.88937">
        <ele>546.6468506</ele>
        <time>2011-02-12T12:23:32Z</time>
      </trkpt>
      <trkpt lat="46.94511" lon="5.88948">
        <ele>549.0500488</ele>
        <time>2011-02-12T12:23:38Z</time>
      </trkpt>
      <trkpt lat="46.94519" lon="5.88955">
        <ele>550.9726563</ele>
        <time>2011-02-12T12:23:43Z</time>
      </trkpt>
      <trkpt lat="46.94523" lon="5.88962">
        <ele>551.4533691</ele>
        <time>2011-02-12T12:23:47Z</time>
      </trkpt>
      <trkpt lat="46.94532" lon="5.88972">
        <ele>552.4145508</ele>
        <time>2011-02-12T12:23:54Z</time>
      </trkpt>
      <trkpt lat="46.94533" lon="5.88973">
        <ele>552.4145508</ele>
        <time>2011-02-12T12:23:55Z</time>
      </trkpt>
      <trkpt lat="46.9454" lon="5.88975">
        <ele>552.8952637</ele>
        <time>2011-02-12T12:24:00Z</time>
      </trkpt>
      <trkpt lat="46.94547" lon="5.88984">
        <ele>556.2600098</ele>
        <time>2011-02-12T12:24:05Z</time>
      </trkpt>
      <trkpt lat="46.94553" lon="5.88995">
        <ele>557.7021484</ele>
        <time>2011-02-12T12:24:10Z</time>
      </trkpt>
      <trkpt lat="46.94558" lon="5.89004">
        <ele>560.1052246</ele>
        <time>2011-02-12T12:24:14Z</time>
      </trkpt>
      <trkpt lat="46.94572" lon="5.89023">
        <ele>558.6633301</ele>
        <time>2011-02-12T12:24:23Z</time>
      </trkpt>
      <trkpt lat="46.94576" lon="5.8903">
        <ele>558.6633301</ele>
        <time>2011-02-12T12:24:26Z</time>
      </trkpt>
      <trkpt lat="46.94579" lon="5.89035">
        <ele>559.144043</ele>
        <time>2011-02-12T12:24:28Z</time>
      </trkpt>
      <trkpt lat="46.94584" lon="5.89049">
        <ele>559.144043</ele>
        <time>2011-02-12T12:24:35Z</time>
      </trkpt>
      <trkpt lat="46.94589" lon="5.89058">
        <ele>560.1052246</ele>
        <time>2011-02-12T12:24:40Z</time>
      </trkpt>
      <trkpt lat="46.94595" lon="5.89068">
        <ele>562.5085449</ele>
        <time>2011-02-12T12:24:45Z</time>
      </trkpt>
      <trkpt lat="46.94599" lon="5.89076">
        <ele>562.9892578</ele>
        <time>2011-02-12T12:24:49Z</time>
      </trkpt>
      <trkpt lat="46.946" lon="5.89079">
        <ele>562.9892578</ele>
        <time>2011-02-12T12:24:50Z</time>
      </trkpt>
      <trkpt lat="46.94602" lon="5.89083">
        <ele>564.4311523</ele>
        <time>2011-02-12T12:24:52Z</time>
      </trkpt>
      <trkpt lat="46.9461" lon="5.891">
        <ele>565.3925781</ele>
        <time>2011-02-12T12:24:59Z</time>
      </trkpt>
      <trkpt lat="46.94614" lon="5.89111">
        <ele>568.2763672</ele>
        <time>2011-02-12T12:25:04Z</time>
      </trkpt>
      <trkpt lat="46.94615" lon="5.89114">
        <ele>569.7185059</ele>
        <time>2011-02-12T12:25:06Z</time>
      </trkpt>
      <trkpt lat="46.9462" lon="5.89125">
        <ele>572.1218262</ele>
        <time>2011-02-12T12:25:12Z</time>
      </trkpt>
      <trkpt lat="46.94625" lon="5.89136">
        <ele>574.5251465</ele>
        <time>2011-02-12T12:25:17Z</time>
      </trkpt>
      <trkpt lat="46.94626" lon="5.89139">
        <ele>574.0444336</ele>
        <time>2011-02-12T12:25:18Z</time>
      </trkpt>
      <trkpt lat="46.94629" lon="5.89146">
        <ele>574.5251465</ele>
        <time>2011-02-12T12:25:21Z</time>
      </trkpt>
      <trkpt lat="46.94638" lon="5.89163">
        <ele>572.6025391</ele>
        <time>2011-02-12T12:25:28Z</time>
      </trkpt>
      <trkpt lat="46.94644" lon="5.89176">
        <ele>574.0444336</ele>
        <time>2011-02-12T12:25:34Z</time>
      </trkpt>
      <trkpt lat="46.94645" lon="5.89179">
        <ele>574.5251465</ele>
        <time>2011-02-12T12:25:35Z</time>
      </trkpt>
      <trkpt lat="46.9465" lon="5.89197">
        <ele>578.8510742</ele>
        <time>2011-02-12T12:25:43Z</time>
      </trkpt>
      <trkpt lat="46.94652" lon="5.89207">
        <ele>579.8122559</ele>
        <time>2011-02-12T12:25:47Z</time>
      </trkpt>
      <trkpt lat="46.94653" lon="5.89222">
        <ele>580.2929688</ele>
        <time>2011-02-12T12:25:53Z</time>
      </trkpt>
      <trkpt lat="46.94654" lon="5.89225">
        <ele>581.2543945</ele>
        <time>2011-02-12T12:25:54Z</time>
      </trkpt>
      <trkpt lat="46.94657" lon="5.89244">
        <ele>584.1381836</ele>
        <time>2011-02-12T12:26:00Z</time>
      </trkpt>
      <trkpt lat="46.94662" lon="5.89257">
        <ele>584.1381836</ele>
        <time>2011-02-12T12:26:05Z</time>
      </trkpt>
      <trkpt lat="46.94672" lon="5.89271">
        <ele>587.0219727</ele>
        <time>2011-02-12T12:26:12Z</time>
      </trkpt>
      <trkpt lat="46.94674" lon="5.89274">
        <ele>587.0219727</ele>
        <time>2011-02-12T12:26:14Z</time>
      </trkpt>
      <trkpt lat="46.94685" lon="5.89287">
        <ele>587.0219727</ele>
        <time>2011-02-12T12:26:20Z</time>
      </trkpt>
      <trkpt lat="46.94688" lon="5.89291">
        <ele>586.5415039</ele>
        <time>2011-02-12T12:26:22Z</time>
      </trkpt>
      <trkpt lat="46.94691" lon="5.89299">
        <ele>587.0219727</ele>
        <time>2011-02-12T12:26:25Z</time>
      </trkpt>
      <trkpt lat="46.94696" lon="5.8931">
        <ele>588.4643555</ele>
        <time>2011-02-12T12:26:31Z</time>
      </trkpt>
      <trkpt lat="46.94697" lon="5.89317">
        <ele>585.5800781</ele>
        <time>2011-02-12T12:26:34Z</time>
      </trkpt>
      <trkpt lat="46.94699" lon="5.8932">
        <ele>584.1381836</ele>
        <time>2011-02-12T12:26:36Z</time>
      </trkpt>
      <trkpt lat="46.94706" lon="5.89329">
        <ele>579.331543</ele>
        <time>2011-02-12T12:26:42Z</time>
      </trkpt>
      <trkpt lat="46.94712" lon="5.8934">
        <ele>579.331543</ele>
        <time>2011-02-12T12:26:47Z</time>
      </trkpt>
      <trkpt lat="46.94718" lon="5.89351">
        <ele>578.8510742</ele>
        <time>2011-02-12T12:26:52Z</time>
      </trkpt>
      <trkpt lat="46.94729" lon="5.89362">
        <ele>578.3703613</ele>
        <time>2011-02-12T12:26:59Z</time>
      </trkpt>
      <trkpt lat="46.94733" lon="5.89365">
        <ele>578.3703613</ele>
        <time>2011-02-12T12:27:01Z</time>
      </trkpt>
      <trkpt lat="46.94741" lon="5.89373">
        <ele>578.8510742</ele>
        <time>2011-02-12T12:27:06Z</time>
      </trkpt>
      <trkpt lat="46.9475" lon="5.89385">
        <ele>586.060791</ele>
        <time>2011-02-12T12:27:13Z</time>
      </trkpt>
      <trkpt lat="46.94759" lon="5.89395">
        <ele>589.90625</ele>
        <time>2011-02-12T12:27:19Z</time>
      </trkpt>
      <trkpt lat="46.94769" lon="5.89408">
        <ele>596.635498</ele>
        <time>2011-02-12T12:27:26Z</time>
      </trkpt>
      <trkpt lat="46.94775" lon="5.89411">
        <ele>597.1159668</ele>
        <time>2011-02-12T12:27:30Z</time>
      </trkpt>
      <trkpt lat="46.94783" lon="5.89413">
        <ele>598.5578613</ele>
        <time>2011-02-12T12:27:35Z</time>
      </trkpt>
      <trkpt lat="46.94786" lon="5.89413">
        <ele>601.4418945</ele>
        <time>2011-02-12T12:27:36Z</time>
      </trkpt>
      <trkpt lat="46.94802" lon="5.89415">
        <ele>604.8066406</ele>
        <time>2011-02-12T12:27:44Z</time>
      </trkpt>
      <trkpt lat="46.9481" lon="5.8942">
        <ele>603.8452148</ele>
        <time>2011-02-12T12:27:48Z</time>
      </trkpt>
      <trkpt lat="46.94818" lon="5.89427">
        <ele>604.3261719</ele>
        <time>2011-02-12T12:27:53Z</time>
      </trkpt>
      <trkpt lat="46.94827" lon="5.89433">
        <ele>607.2099609</ele>
        <time>2011-02-12T12:27:59Z</time>
      </trkpt>
      <trkpt lat="46.94831" lon="5.89436">
        <ele>610.5744629</ele>
        <time>2011-02-12T12:28:02Z</time>
      </trkpt>
      <trkpt lat="46.94842" lon="5.89447">
        <ele>611.0551758</ele>
        <time>2011-02-12T12:28:09Z</time>
      </trkpt>
      <trkpt lat="46.94845" lon="5.89451">
        <ele>610.5744629</ele>
        <time>2011-02-12T12:28:11Z</time>
      </trkpt>
      <trkpt lat="46.94845" lon="5.89453">
        <ele>611.5358887</ele>
        <time>2011-02-12T12:28:17Z</time>
      </trkpt>
      <trkpt lat="46.94843" lon="5.89448">
        <ele>610.5744629</ele>
        <time>2011-02-12T12:28:21Z</time>
      </trkpt>
      <trkpt lat="46.94839" lon="5.89442">
        <ele>607.6906738</ele>
        <time>2011-02-12T12:28:27Z</time>
      </trkpt>
      <trkpt lat="46.94833" lon="5.89438">
        <ele>607.2099609</ele>
        <time>2011-02-12T12:28:33Z</time>
      </trkpt>
      <trkpt lat="46.94831" lon="5.89436">
        <ele>605.7680664</ele>
        <time>2011-02-12T12:28:37Z</time>
      </trkpt>
      <trkpt lat="46.94834" lon="5.8944">
        <ele>605.2873535</ele>
        <time>2011-02-12T12:28:41Z</time>
      </trkpt>
      <trkpt lat="46.94839" lon="5.89448">
        <ele>605.2873535</ele>
        <time>2011-02-12T12:28:48Z</time>
      </trkpt>
      <trkpt lat="46.94842" lon="5.89451">
        <ele>605.2873535</ele>
        <time>2011-02-12T12:28:50Z</time>
      </trkpt>
      <trkpt lat="46.94847" lon="5.89463">
        <ele>603.8452148</ele>
        <time>2011-02-12T12:28:56Z</time>
      </trkpt>
      <trkpt lat="46.94853" lon="5.89475">
        <ele>603.364502</ele>
        <time>2011-02-12T12:29:01Z</time>
      </trkpt>
      <trkpt lat="46.94859" lon="5.89488">
        <ele>604.8066406</ele>
        <time>2011-02-12T12:29:06Z</time>
      </trkpt>
      <trkpt lat="46.94869" lon="5.89496">
        <ele>603.8452148</ele>
        <time>2011-02-12T12:29:11Z</time>
      </trkpt>
      <trkpt lat="46.94877" lon="5.8951">
        <ele>605.2873535</ele>
        <time>2011-02-12T12:29:17Z</time>
      </trkpt>
      <trkpt lat="46.94879" lon="5.89512">
        <ele>606.2485352</ele>
        <time>2011-02-12T12:29:18Z</time>
      </trkpt>
      <trkpt lat="46.94887" lon="5.89526">
        <ele>607.2099609</ele>
        <time>2011-02-12T12:29:23Z</time>
      </trkpt>
      <trkpt lat="46.94893" lon="5.89542">
        <ele>609.6132813</ele>
        <time>2011-02-12T12:29:29Z</time>
      </trkpt>
      <trkpt lat="46.94894" lon="5.89544">
        <ele>610.09375</ele>
        <time>2011-02-12T12:29:30Z</time>
      </trkpt>
      <trkpt lat="46.94899" lon="5.89555">
        <ele>612.0166016</ele>
        <time>2011-02-12T12:29:34Z</time>
      </trkpt>
      <trkpt lat="46.94901" lon="5.89568">
        <ele>614.4196777</ele>
        <time>2011-02-12T12:29:38Z</time>
      </trkpt>
      <trkpt lat="46.94909" lon="5.89581">
        <ele>615.3811035</ele>
        <time>2011-02-12T12:29:44Z</time>
      </trkpt>
      <trkpt lat="46.94916" lon="5.89598">
        <ele>615.3811035</ele>
        <time>2011-02-12T12:29:51Z</time>
      </trkpt>
      <trkpt lat="46.94922" lon="5.89613">
        <ele>615.8618164</ele>
        <time>2011-02-12T12:29:56Z</time>
      </trkpt>
      <trkpt lat="46.94927" lon="5.8963">
        <ele>617.3037109</ele>
        <time>2011-02-12T12:30:02Z</time>
      </trkpt>
      <trkpt lat="46.9493" lon="5.89639">
        <ele>617.3037109</ele>
        <time>2011-02-12T12:30:07Z</time>
      </trkpt>
      <trkpt lat="46.94931" lon="5.89644">
        <ele>617.3037109</ele>
        <time>2011-02-12T12:30:10Z</time>
      </trkpt>
      <trkpt lat="46.94936" lon="5.8965">
        <ele>617.7841797</ele>
        <time>2011-02-12T12:30:17Z</time>
      </trkpt>
      <trkpt lat="46.94938" lon="5.89648">
        <ele>616.822998</ele>
        <time>2011-02-12T12:30:19Z</time>
      </trkpt>
      <trkpt lat="46.94944" lon="5.89643">
        <ele>616.822998</ele>
        <time>2011-02-12T12:30:23Z</time>
      </trkpt>
      <trkpt lat="46.94948" lon="5.89636">
        <ele>615.3811035</ele>
        <time>2011-02-12T12:30:27Z</time>
      </trkpt>
      <trkpt lat="46.94957" lon="5.89627">
        <ele>613.9389648</ele>
        <time>2011-02-12T12:30:33Z</time>
      </trkpt>
      <trkpt lat="46.94961" lon="5.8962">
        <ele>613.4584961</ele>
        <time>2011-02-12T12:30:36Z</time>
      </trkpt>
      <trkpt lat="46.9497" lon="5.89614">
        <ele>611.5358887</ele>
        <time>2011-02-12T12:30:41Z</time>
      </trkpt>
      <trkpt lat="46.94976" lon="5.89603">
        <ele>609.6132813</ele>
        <time>2011-02-12T12:30:45Z</time>
      </trkpt>
      <trkpt lat="46.94982" lon="5.89595">
        <ele>607.2099609</ele>
        <time>2011-02-12T12:30:49Z</time>
      </trkpt>
      <trkpt lat="46.94987" lon="5.89579">
        <ele>603.364502</ele>
        <time>2011-02-12T12:30:54Z</time>
      </trkpt>
      <trkpt lat="46.9499" lon="5.89575">
        <ele>602.8837891</ele>
        <time>2011-02-12T12:30:56Z</time>
      </trkpt>
      <trkpt lat="46.95002" lon="5.89567">
        <ele>598.5578613</ele>
        <time>2011-02-12T12:31:02Z</time>
      </trkpt>
      <trkpt lat="46.95014" lon="5.89563">
        <ele>594.7126465</ele>
        <time>2011-02-12T12:31:07Z</time>
      </trkpt>
      <trkpt lat="46.95025" lon="5.89558">
        <ele>591.8288574</ele>
        <time>2011-02-12T12:31:12Z</time>
      </trkpt>
      <trkpt lat="46.95034" lon="5.89553">
        <ele>588.4643555</ele>
        <time>2011-02-12T12:31:17Z</time>
      </trkpt>
      <trkpt lat="46.95045" lon="5.89548">
        <ele>582.2155762</ele>
        <time>2011-02-12T12:31:22Z</time>
      </trkpt>
      <trkpt lat="46.95055" lon="5.89542">
        <ele>577.8896484</ele>
        <time>2011-02-12T12:31:26Z</time>
      </trkpt>
      <trkpt lat="46.95059" lon="5.89536">
        <ele>575.4863281</ele>
        <time>2011-02-12T12:31:29Z</time>
      </trkpt>
      <trkpt lat="46.95062" lon="5.8953">
        <ele>574.0444336</ele>
        <time>2011-02-12T12:31:31Z</time>
      </trkpt>
      <trkpt lat="46.95067" lon="5.89521">
        <ele>571.6408691</ele>
        <time>2011-02-12T12:31:35Z</time>
      </trkpt>
      <trkpt lat="46.95078" lon="5.89505">
        <ele>566.8344727</ele>
        <time>2011-02-12T12:31:42Z</time>
      </trkpt>
      <trkpt lat="46.95087" lon="5.89498">
        <ele>563.4699707</ele>
        <time>2011-02-12T12:31:47Z</time>
      </trkpt>
      <trkpt lat="46.95101" lon="5.89489">
        <ele>561.0666504</ele>
        <time>2011-02-12T12:31:53Z</time>
      </trkpt>
      <trkpt lat="46.95111" lon="5.89491">
        <ele>560.1052246</ele>
        <time>2011-02-12T12:31:57Z</time>
      </trkpt>
      <trkpt lat="46.95119" lon="5.89496">
        <ele>557.2214355</ele>
        <time>2011-02-12T12:32:01Z</time>
      </trkpt>
      <trkpt lat="46.9513" lon="5.89497">
        <ele>552.4145508</ele>
        <time>2011-02-12T12:32:05Z</time>
      </trkpt>
      <trkpt lat="46.95141" lon="5.89494">
        <ele>550.9726563</ele>
        <time>2011-02-12T12:32:09Z</time>
      </trkpt>
      <trkpt lat="46.95153" lon="5.89488">
        <ele>548.0888672</ele>
        <time>2011-02-12T12:32:14Z</time>
      </trkpt>
      <trkpt lat="46.95154" lon="5.89487">
        <ele>548.0888672</ele>
        <time>2011-02-12T12:32:15Z</time>
      </trkpt>
      <trkpt lat="46.95166" lon="5.89482">
        <ele>542.3209229</ele>
        <time>2011-02-12T12:32:21Z</time>
      </trkpt>
      <trkpt lat="46.95179" lon="5.89478">
        <ele>538.9562988</ele>
        <time>2011-02-12T12:32:26Z</time>
      </trkpt>
      <trkpt lat="46.95189" lon="5.89482">
        <ele>536.5531006</ele>
        <time>2011-02-12T12:32:30Z</time>
      </trkpt>
      <trkpt lat="46.95201" lon="5.89493">
        <ele>531.2657471</ele>
        <time>2011-02-12T12:32:35Z</time>
      </trkpt>
      <trkpt lat="46.95203" lon="5.89495">
        <ele>530.3044434</ele>
        <time>2011-02-12T12:32:36Z</time>
      </trkpt>
      <trkpt lat="46.95215" lon="5.89503">
        <ele>524.536499</ele>
        <time>2011-02-12T12:32:42Z</time>
      </trkpt>
      <trkpt lat="46.9522" lon="5.89512">
        <ele>520.2105713</ele>
        <time>2011-02-12T12:32:46Z</time>
      </trkpt>
      <trkpt lat="46.95226" lon="5.89525">
        <ele>517.3266602</ele>
        <time>2011-02-12T12:32:51Z</time>
      </trkpt>
      <trkpt lat="46.95227" lon="5.89529">
        <ele>515.8846436</ele>
        <time>2011-02-12T12:32:55Z</time>
      </trkpt>
      <trkpt lat="46.95227" lon="5.8953">
        <ele>516.8459473</ele>
        <time>2011-02-12T12:33:01Z</time>
      </trkpt>
      <trkpt lat="46.95228" lon="5.89529">
        <ele>518.2878418</ele>
        <time>2011-02-12T12:33:05Z</time>
      </trkpt>
      <trkpt lat="46.95233" lon="5.89529">
        <ele>518.7685547</ele>
        <time>2011-02-12T12:33:11Z</time>
      </trkpt>
      <trkpt lat="46.95236" lon="5.89531">
        <ele>517.807251</ele>
        <time>2011-02-12T12:33:16Z</time>
      </trkpt>
      <trkpt lat="46.95244" lon="5.89533">
        <ele>519.7298584</ele>
        <time>2011-02-12T12:33:23Z</time>
      </trkpt>
      <trkpt lat="46.95252" lon="5.89531">
        <ele>515.4040527</ele>
        <time>2011-02-12T12:33:29Z</time>
      </trkpt>
      <trkpt lat="46.95256" lon="5.89518">
        <ele>512.0394287</ele>
        <time>2011-02-12T12:33:34Z</time>
      </trkpt>
      <trkpt lat="46.95254" lon="5.8951">
        <ele>511.0780029</ele>
        <time>2011-02-12T12:33:36Z</time>
      </trkpt>
      <trkpt lat="46.95246" lon="5.89489">
        <ele>509.1553955</ele>
        <time>2011-02-12T12:33:42Z</time>
      </trkpt>
      <trkpt lat="46.95246" lon="5.89487">
        <ele>509.1553955</ele>
        <time>2011-02-12T12:33:43Z</time>
      </trkpt>
      <trkpt lat="46.95248" lon="5.89485">
        <ele>505.7908936</ele>
        <time>2011-02-12T12:33:48Z</time>
      </trkpt>
      <trkpt lat="46.95253" lon="5.89478">
        <ele>503.3874512</ele>
        <time>2011-02-12T12:33:55Z</time>
      </trkpt>
      <trkpt lat="46.95256" lon="5.89475">
        <ele>500.50354</ele>
        <time>2011-02-12T12:33:59Z</time>
      </trkpt>
      <trkpt lat="46.95258" lon="5.89473">
        <ele>499.0615234</ele>
        <time>2011-02-12T12:34:01Z</time>
      </trkpt>
      <trkpt lat="46.95263" lon="5.8947">
        <ele>497.138916</ele>
        <time>2011-02-12T12:34:05Z</time>
      </trkpt>
      <trkpt lat="46.95273" lon="5.89461">
        <ele>499.0615234</ele>
        <time>2011-02-12T12:34:11Z</time>
      </trkpt>
      <trkpt lat="46.95276" lon="5.89459">
        <ele>498.1003418</ele>
        <time>2011-02-12T12:34:13Z</time>
      </trkpt>
      <trkpt lat="46.95281" lon="5.89462">
        <ele>496.6583252</ele>
        <time>2011-02-12T12:34:18Z</time>
      </trkpt>
      <trkpt lat="46.95283" lon="5.89465">
        <ele>494.7355957</ele>
        <time>2011-02-12T12:34:22Z</time>
      </trkpt>
      <trkpt lat="46.95291" lon="5.89466">
        <ele>493.2935791</ele>
        <time>2011-02-12T12:34:26Z</time>
      </trkpt>
      <trkpt lat="46.95292" lon="5.89468">
        <ele>492.8129883</ele>
        <time>2011-02-12T12:34:33Z</time>
      </trkpt>
      <trkpt lat="46.95294" lon="5.89472">
        <ele>492.8129883</ele>
        <time>2011-02-12T12:34:41Z</time>
      </trkpt>
      <trkpt lat="46.95299" lon="5.89475">
        <ele>490.8903809</ele>
        <time>2011-02-12T12:34:49Z</time>
      </trkpt>
      <trkpt lat="46.95305" lon="5.8948">
        <ele>489.9290771</ele>
        <time>2011-02-12T12:34:54Z</time>
      </trkpt>
      <trkpt lat="46.95306" lon="5.89485">
        <ele>489.4483643</ele>
        <time>2011-02-12T12:34:56Z</time>
      </trkpt>
      <trkpt lat="46.95306" lon="5.89488">
        <ele>488.9677734</ele>
        <time>2011-02-12T12:34:57Z</time>
      </trkpt>
      <trkpt lat="46.95306" lon="5.89495">
        <ele>488.0064697</ele>
        <time>2011-02-12T12:34:59Z</time>
      </trkpt>
      <trkpt lat="46.95307" lon="5.89509">
        <ele>486.5644531</ele>
        <time>2011-02-12T12:35:04Z</time>
      </trkpt>
      <trkpt lat="46.9531" lon="5.8952">
        <ele>485.6030273</ele>
        <time>2011-02-12T12:35:10Z</time>
      </trkpt>
      <trkpt lat="46.95312" lon="5.89534">
        <ele>483.6804199</ele>
        <time>2011-02-12T12:35:14Z</time>
      </trkpt>
      <trkpt lat="46.95314" lon="5.8955">
        <ele>479.835083</ele>
        <time>2011-02-12T12:35:19Z</time>
      </trkpt>
      <trkpt lat="46.95314" lon="5.89558">
        <ele>478.3931885</ele>
        <time>2011-02-12T12:35:21Z</time>
      </trkpt>
      <trkpt lat="46.95315" lon="5.89566">
        <ele>477.4318848</ele>
        <time>2011-02-12T12:35:24Z</time>
      </trkpt>
      <trkpt lat="46.95321" lon="5.89578">
        <ele>474.5479736</ele>
        <time>2011-02-12T12:35:29Z</time>
      </trkpt>
      <trkpt lat="46.9533" lon="5.89574">
        <ele>472.1446533</ele>
        <time>2011-02-12T12:35:34Z</time>
      </trkpt>
      <trkpt lat="46.95349" lon="5.89571">
        <ele>470.2219238</ele>
        <time>2011-02-12T12:35:40Z</time>
      </trkpt>
      <trkpt lat="46.95362" lon="5.89575">
        <ele>467.8187256</ele>
        <time>2011-02-12T12:35:45Z</time>
      </trkpt>
      <trkpt lat="46.95374" lon="5.89582">
        <ele>464.9348145</ele>
        <time>2011-02-12T12:35:50Z</time>
      </trkpt>
      <trkpt lat="46.95381" lon="5.89591">
        <ele>463.9733887</ele>
        <time>2011-02-12T12:35:54Z</time>
      </trkpt>
      <trkpt lat="46.95389" lon="5.89601">
        <ele>462.0507813</ele>
        <time>2011-02-12T12:35:58Z</time>
      </trkpt>
      <trkpt lat="46.95396" lon="5.89613">
        <ele>461.5701904</ele>
        <time>2011-02-12T12:36:03Z</time>
      </trkpt>
      <trkpt lat="46.95403" lon="5.89615">
        <ele>461.0894775</ele>
        <time>2011-02-12T12:36:07Z</time>
      </trkpt>
      <trkpt lat="46.95405" lon="5.89615">
        <ele>461.0894775</ele>
        <time>2011-02-12T12:36:08Z</time>
      </trkpt>
      <trkpt lat="46.9542" lon="5.89609">
        <ele>459.647583</ele>
        <time>2011-02-12T12:36:15Z</time>
      </trkpt>
      <trkpt lat="46.95428" lon="5.89598">
        <ele>457.2442627</ele>
        <time>2011-02-12T12:36:20Z</time>
      </trkpt>
      <trkpt lat="46.95443" lon="5.89597">
        <ele>453.8796387</ele>
        <time>2011-02-12T12:36:26Z</time>
      </trkpt>
      <trkpt lat="46.95445" lon="5.89595">
        <ele>453.8796387</ele>
        <time>2011-02-12T12:36:27Z</time>
      </trkpt>
      <trkpt lat="46.95458" lon="5.89583">
        <ele>451.9570313</ele>
        <time>2011-02-12T12:36:34Z</time>
      </trkpt>
      <trkpt lat="46.95468" lon="5.89573">
        <ele>449.5537109</ele>
        <time>2011-02-12T12:36:39Z</time>
      </trkpt>
      <trkpt lat="46.95478" lon="5.89562">
        <ele>448.1118164</ele>
        <time>2011-02-12T12:36:44Z</time>
      </trkpt>
      <trkpt lat="46.9549" lon="5.89551">
        <ele>443.7857666</ele>
        <time>2011-02-12T12:36:50Z</time>
      </trkpt>
      <trkpt lat="46.95507" lon="5.89532">
        <ele>440.9018555</ele>
        <time>2011-02-12T12:36:57Z</time>
      </trkpt>
      <trkpt lat="46.95518" lon="5.8952">
        <ele>438.979126</ele>
        <time>2011-02-12T12:37:02Z</time>
      </trkpt>
      <trkpt lat="46.95525" lon="5.89503">
        <ele>437.5371094</ele>
        <time>2011-02-12T12:37:07Z</time>
      </trkpt>
      <trkpt lat="46.95528" lon="5.89492">
        <ele>435.1339111</ele>
        <time>2011-02-12T12:37:11Z</time>
      </trkpt>
      <trkpt lat="46.95529" lon="5.8949">
        <ele>434.6533203</ele>
        <time>2011-02-12T12:37:12Z</time>
      </trkpt>
      <trkpt lat="46.95534" lon="5.89492">
        <ele>432.25</ele>
        <time>2011-02-12T12:37:19Z</time>
      </trkpt>
      <trkpt lat="46.95536" lon="5.89491">
        <ele>432.25</ele>
        <time>2011-02-12T12:37:29Z</time>
      </trkpt>
      <trkpt lat="46.9554" lon="5.89488">
        <ele>438.0178223</ele>
        <time>2011-02-12T12:37:57Z</time>
      </trkpt>
      <trkpt lat="46.95542" lon="5.89487">
        <ele>437.0565186</ele>
        <time>2011-02-12T12:38:04Z</time>
      </trkpt>
      <trkpt lat="46.95545" lon="5.89488">
        <ele>436.0952148</ele>
        <time>2011-02-12T12:38:10Z</time>
      </trkpt>
      <trkpt lat="46.9555" lon="5.89492">
        <ele>437.0565186</ele>
        <time>2011-02-12T12:38:17Z</time>
      </trkpt>
      <trkpt lat="46.95556" lon="5.89494">
        <ele>436.5759277</ele>
        <time>2011-02-12T12:38:22Z</time>
      </trkpt>
      <trkpt lat="46.95563" lon="5.89497">
        <ele>436.5759277</ele>
        <time>2011-02-12T12:38:28Z</time>
      </trkpt>
      <trkpt lat="46.95573" lon="5.89502">
        <ele>435.1339111</ele>
        <time>2011-02-12T12:38:33Z</time>
      </trkpt>
      <trkpt lat="46.9558" lon="5.89503">
        <ele>434.6533203</ele>
        <time>2011-02-12T12:38:36Z</time>
      </trkpt>
      <trkpt lat="46.95584" lon="5.89504">
        <ele>433.6918945</ele>
        <time>2011-02-12T12:38:38Z</time>
      </trkpt>
      <trkpt lat="46.95598" lon="5.89503">
        <ele>431.769165</ele>
        <time>2011-02-12T12:38:44Z</time>
      </trkpt>
      <trkpt lat="46.95602" lon="5.89499">
        <ele>431.2885742</ele>
        <time>2011-02-12T12:38:46Z</time>
      </trkpt>
      <trkpt lat="46.95605" lon="5.89493">
        <ele>429.8465576</ele>
        <time>2011-02-12T12:38:51Z</time>
      </trkpt>
      <trkpt lat="46.9561" lon="5.89479">
        <ele>428.885376</ele>
        <time>2011-02-12T12:38:55Z</time>
      </trkpt>
      <trkpt lat="46.95611" lon="5.89471">
        <ele>427.9239502</ele>
        <time>2011-02-12T12:38:57Z</time>
      </trkpt>
      <trkpt lat="46.95616" lon="5.89447">
        <ele>426.0013428</ele>
        <time>2011-02-12T12:39:03Z</time>
      </trkpt>
      <trkpt lat="46.95619" lon="5.89422">
        <ele>425.520752</ele>
        <time>2011-02-12T12:39:09Z</time>
      </trkpt>
      <trkpt lat="46.95621" lon="5.89407">
        <ele>425.0401611</ele>
        <time>2011-02-12T12:39:13Z</time>
      </trkpt>
      <trkpt lat="46.95623" lon="5.89391">
        <ele>424.0787354</ele>
        <time>2011-02-12T12:39:18Z</time>
      </trkpt>
      <trkpt lat="46.95622" lon="5.89377">
        <ele>422.1560059</ele>
        <time>2011-02-12T12:39:23Z</time>
      </trkpt>
      <trkpt lat="46.95622" lon="5.89374">
        <ele>421.675415</ele>
        <time>2011-02-12T12:39:24Z</time>
      </trkpt>
      <trkpt lat="46.9562" lon="5.89357">
        <ele>419.2722168</ele>
        <time>2011-02-12T12:39:29Z</time>
      </trkpt>
      <trkpt lat="46.95617" lon="5.89341">
        <ele>419.7528076</ele>
        <time>2011-02-12T12:39:34Z</time>
      </trkpt>
      <trkpt lat="46.95618" lon="5.89336">
        <ele>419.2722168</ele>
        <time>2011-02-12T12:39:36Z</time>
      </trkpt>
      <trkpt lat="46.95622" lon="5.89339">
        <ele>419.2722168</ele>
        <time>2011-02-12T12:39:40Z</time>
      </trkpt>
      <trkpt lat="46.95629" lon="5.89356">
        <ele>421.1948242</ele>
        <time>2011-02-12T12:39:46Z</time>
      </trkpt>
      <trkpt lat="46.95632" lon="5.89364">
        <ele>420.7141113</ele>
        <time>2011-02-12T12:39:49Z</time>
      </trkpt>
      <trkpt lat="46.95638" lon="5.89376">
        <ele>419.2722168</ele>
        <time>2011-02-12T12:39:54Z</time>
      </trkpt>
      <trkpt lat="46.95648" lon="5.89391">
        <ele>419.7528076</ele>
        <time>2011-02-12T12:40:01Z</time>
      </trkpt>
      <trkpt lat="46.95654" lon="5.89401">
        <ele>418.7915039</ele>
        <time>2011-02-12T12:40:06Z</time>
      </trkpt>
      <trkpt lat="46.95662" lon="5.8941">
        <ele>421.1948242</ele>
        <time>2011-02-12T12:40:12Z</time>
      </trkpt>
      <trkpt lat="46.95664" lon="5.89413">
        <ele>421.675415</ele>
        <time>2011-02-12T12:40:14Z</time>
      </trkpt>
      <trkpt lat="46.95673" lon="5.8942">
        <ele>423.1174316</ele>
        <time>2011-02-12T12:40:21Z</time>
      </trkpt>
      <trkpt lat="46.95679" lon="5.89426">
        <ele>423.5980225</ele>
        <time>2011-02-12T12:40:26Z</time>
      </trkpt>
      <trkpt lat="46.95687" lon="5.89433">
        <ele>424.5594482</ele>
        <time>2011-02-12T12:40:32Z</time>
      </trkpt>
      <trkpt lat="46.95691" lon="5.8944">
        <ele>424.5594482</ele>
        <time>2011-02-12T12:40:37Z</time>
      </trkpt>
      <trkpt lat="46.95699" lon="5.8945">
        <ele>426.0013428</ele>
        <time>2011-02-12T12:40:44Z</time>
      </trkpt>
      <trkpt lat="46.95705" lon="5.89462">
        <ele>426.9627686</ele>
        <time>2011-02-12T12:40:51Z</time>
      </trkpt>
      <trkpt lat="46.95715" lon="5.89472">
        <ele>430.3272705</ele>
        <time>2011-02-12T12:40:58Z</time>
      </trkpt>
      <trkpt lat="46.95724" lon="5.89478">
        <ele>435.1339111</ele>
        <time>2011-02-12T12:41:04Z</time>
      </trkpt>
      <trkpt lat="46.95734" lon="5.89486">
        <ele>437.5371094</ele>
        <time>2011-02-12T12:41:10Z</time>
      </trkpt>
      <trkpt lat="46.95746" lon="5.89498">
        <ele>440.4212646</ele>
        <time>2011-02-12T12:41:18Z</time>
      </trkpt>
      <trkpt lat="46.95753" lon="5.89506">
        <ele>441.3824463</ele>
        <time>2011-02-12T12:41:23Z</time>
      </trkpt>
      <trkpt lat="46.95762" lon="5.89515">
        <ele>442.8244629</ele>
        <time>2011-02-12T12:41:29Z</time>
      </trkpt>
      <trkpt lat="46.95772" lon="5.89528">
        <ele>445.2276611</ele>
        <time>2011-02-12T12:41:36Z</time>
      </trkpt>
      <trkpt lat="46.95781" lon="5.89533">
        <ele>446.1890869</ele>
        <time>2011-02-12T12:41:40Z</time>
      </trkpt>
      <trkpt lat="46.95787" lon="5.89539">
        <ele>447.1502686</ele>
        <time>2011-02-12T12:41:44Z</time>
      </trkpt>
      <trkpt lat="46.95791" lon="5.89542">
        <ele>447.1502686</ele>
        <time>2011-02-12T12:41:46Z</time>
      </trkpt>
      <trkpt lat="46.958" lon="5.89552">
        <ele>448.1118164</ele>
        <time>2011-02-12T12:41:52Z</time>
      </trkpt>
      <trkpt lat="46.9581" lon="5.89563">
        <ele>448.5924072</ele>
        <time>2011-02-12T12:41:58Z</time>
      </trkpt>
      <trkpt lat="46.9582" lon="5.89573">
        <ele>450.5150146</ele>
        <time>2011-02-12T12:42:04Z</time>
      </trkpt>
      <trkpt lat="46.9583" lon="5.89584">
        <ele>451.9570313</ele>
        <time>2011-02-12T12:42:10Z</time>
      </trkpt>
      <trkpt lat="46.95835" lon="5.89586">
        <ele>452.4376221</ele>
        <time>2011-02-12T12:42:12Z</time>
      </trkpt>
      <trkpt lat="46.95846" lon="5.89599">
        <ele>452.4376221</ele>
        <time>2011-02-12T12:42:18Z</time>
      </trkpt>
      <trkpt lat="46.95849" lon="5.89603">
        <ele>452.4376221</ele>
        <time>2011-02-12T12:42:20Z</time>
      </trkpt>
      <trkpt lat="46.95861" lon="5.89615">
        <ele>453.3989258</ele>
        <time>2011-02-12T12:42:26Z</time>
      </trkpt>
      <trkpt lat="46.95869" lon="5.89626">
        <ele>453.8796387</ele>
        <time>2011-02-12T12:42:31Z</time>
      </trkpt>
      <trkpt lat="46.95881" lon="5.89634">
        <ele>454.8408203</ele>
        <time>2011-02-12T12:42:36Z</time>
      </trkpt>
      <trkpt lat="46.95888" lon="5.89643">
        <ele>456.282959</ele>
        <time>2011-02-12T12:42:40Z</time>
      </trkpt>
      <trkpt lat="46.959" lon="5.89657">
        <ele>457.7249756</ele>
        <time>2011-02-12T12:42:47Z</time>
      </trkpt>
      <trkpt lat="46.9591" lon="5.8967">
        <ele>458.6861572</ele>
        <time>2011-02-12T12:42:53Z</time>
      </trkpt>
      <trkpt lat="46.95918" lon="5.89681">
        <ele>459.1668701</ele>
        <time>2011-02-12T12:42:59Z</time>
      </trkpt>
      <trkpt lat="46.95926" lon="5.89694">
        <ele>458.6861572</ele>
        <time>2011-02-12T12:43:05Z</time>
      </trkpt>
      <trkpt lat="46.95933" lon="5.89706">
        <ele>457.2442627</ele>
        <time>2011-02-12T12:43:11Z</time>
      </trkpt>
      <trkpt lat="46.9594" lon="5.89718">
        <ele>457.7249756</ele>
        <time>2011-02-12T12:43:16Z</time>
      </trkpt>
      <trkpt lat="46.95945" lon="5.89724">
        <ele>458.2055664</ele>
        <time>2011-02-12T12:43:19Z</time>
      </trkpt>
      <trkpt lat="46.95954" lon="5.89745">
        <ele>458.2055664</ele>
        <time>2011-02-12T12:43:27Z</time>
      </trkpt>
      <trkpt lat="46.95956" lon="5.89749">
        <ele>459.1668701</ele>
        <time>2011-02-12T12:43:29Z</time>
      </trkpt>
      <trkpt lat="46.95969" lon="5.89764">
        <ele>463.4927979</ele>
        <time>2011-02-12T12:43:36Z</time>
      </trkpt>
      <trkpt lat="46.95974" lon="5.89772">
        <ele>466.376709</ele>
        <time>2011-02-12T12:43:39Z</time>
      </trkpt>
      <trkpt lat="46.95984" lon="5.89783">
        <ele>468.2993164</ele>
        <time>2011-02-12T12:43:44Z</time>
      </trkpt>
      <trkpt lat="46.95993" lon="5.898">
        <ele>469.2607422</ele>
        <time>2011-02-12T12:43:51Z</time>
      </trkpt>
      <trkpt lat="46.96" lon="5.89814">
        <ele>472.1446533</ele>
        <time>2011-02-12T12:43:57Z</time>
      </trkpt>
      <trkpt lat="46.96008" lon="5.89827">
        <ele>474.5479736</ele>
        <time>2011-02-12T12:44:02Z</time>
      </trkpt>
      <trkpt lat="46.96017" lon="5.89839">
        <ele>476.4705811</ele>
        <time>2011-02-12T12:44:07Z</time>
      </trkpt>
      <trkpt lat="46.96025" lon="5.89858">
        <ele>477.9124756</ele>
        <time>2011-02-12T12:44:14Z</time>
      </trkpt>
      <trkpt lat="46.96029" lon="5.89869">
        <ele>478.3931885</ele>
        <time>2011-02-12T12:44:18Z</time>
      </trkpt>
      <trkpt lat="46.9603" lon="5.89871">
        <ele>478.3931885</ele>
        <time>2011-02-12T12:44:19Z</time>
      </trkpt>
      <trkpt lat="46.96039" lon="5.89893">
        <ele>477.9124756</ele>
        <time>2011-02-12T12:44:27Z</time>
      </trkpt>
      <trkpt lat="46.96041" lon="5.89898">
        <ele>478.3931885</ele>
        <time>2011-02-12T12:44:29Z</time>
      </trkpt>
      <trkpt lat="46.96045" lon="5.89906">
        <ele>479.3544922</ele>
        <time>2011-02-12T12:44:32Z</time>
      </trkpt>
      <trkpt lat="46.96051" lon="5.89921">
        <ele>480.315918</ele>
        <time>2011-02-12T12:44:38Z</time>
      </trkpt>
      <trkpt lat="46.96057" lon="5.8994">
        <ele>482.7192383</ele>
        <time>2011-02-12T12:44:44Z</time>
      </trkpt>
      <trkpt lat="46.9606" lon="5.89944">
        <ele>484.6418457</ele>
        <time>2011-02-12T12:44:46Z</time>
      </trkpt>
      <trkpt lat="46.96065" lon="5.89962">
        <ele>487.0450439</ele>
        <time>2011-02-12T12:44:52Z</time>
      </trkpt>
      <trkpt lat="46.9607" lon="5.89976">
        <ele>486.0837402</ele>
        <time>2011-02-12T12:44:57Z</time>
      </trkpt>
      <trkpt lat="46.96077" lon="5.89988">
        <ele>486.5644531</ele>
        <time>2011-02-12T12:45:02Z</time>
      </trkpt>
      <trkpt lat="46.96081" lon="5.90002">
        <ele>488.0064697</ele>
        <time>2011-02-12T12:45:07Z</time>
      </trkpt>
      <trkpt lat="46.96085" lon="5.90025">
        <ele>487.5256348</ele>
        <time>2011-02-12T12:45:14Z</time>
      </trkpt>
      <trkpt lat="46.96087" lon="5.9003">
        <ele>488.0064697</ele>
        <time>2011-02-12T12:45:16Z</time>
      </trkpt>
      <trkpt lat="46.96092" lon="5.90042">
        <ele>488.9677734</ele>
        <time>2011-02-12T12:45:20Z</time>
      </trkpt>
      <trkpt lat="46.96097" lon="5.90066">
        <ele>490.40979</ele>
        <time>2011-02-12T12:45:27Z</time>
      </trkpt>
      <trkpt lat="46.96102" lon="5.90082">
        <ele>490.8903809</ele>
        <time>2011-02-12T12:45:32Z</time>
      </trkpt>
      <trkpt lat="46.96106" lon="5.90099">
        <ele>492.3323975</ele>
        <time>2011-02-12T12:45:37Z</time>
      </trkpt>
      <trkpt lat="46.96109" lon="5.90113">
        <ele>493.2935791</ele>
        <time>2011-02-12T12:45:41Z</time>
      </trkpt>
      <trkpt lat="46.96108" lon="5.90108">
        <ele>494.7355957</ele>
        <time>2011-02-12T12:45:45Z</time>
      </trkpt>
      <trkpt lat="46.96107" lon="5.90105">
        <ele>494.2550049</ele>
        <time>2011-02-12T12:45:46Z</time>
      </trkpt>
      <trkpt lat="46.96103" lon="5.90087">
        <ele>493.774292</ele>
        <time>2011-02-12T12:45:52Z</time>
      </trkpt>
      <trkpt lat="46.96102" lon="5.90081">
        <ele>492.8129883</ele>
        <time>2011-02-12T12:45:54Z</time>
      </trkpt>
      <trkpt lat="46.96101" lon="5.90081">
        <ele>492.8129883</ele>
        <time>2011-02-12T12:45:58Z</time>
      </trkpt>
      <trkpt lat="46.96107" lon="5.90096">
        <ele>492.8129883</ele>
        <time>2011-02-12T12:46:03Z</time>
      </trkpt>
      <trkpt lat="46.96108" lon="5.90099">
        <ele>492.8129883</ele>
        <time>2011-02-12T12:46:04Z</time>
      </trkpt>
      <trkpt lat="46.96115" lon="5.90122">
        <ele>492.3323975</ele>
        <time>2011-02-12T12:46:11Z</time>
      </trkpt>
      <trkpt lat="46.9612" lon="5.90138">
        <ele>492.8129883</ele>
        <time>2011-02-12T12:46:16Z</time>
      </trkpt>
      <trkpt lat="46.96127" lon="5.90157">
        <ele>494.2550049</ele>
        <time>2011-02-12T12:46:22Z</time>
      </trkpt>
      <trkpt lat="46.9613" lon="5.90172">
        <ele>494.7355957</ele>
        <time>2011-02-12T12:46:27Z</time>
      </trkpt>
      <trkpt lat="46.96134" lon="5.9019">
        <ele>496.6583252</ele>
        <time>2011-02-12T12:46:33Z</time>
      </trkpt>
      <trkpt lat="46.96136" lon="5.90204">
        <ele>498.5809326</ele>
        <time>2011-02-12T12:46:38Z</time>
      </trkpt>
      <trkpt lat="46.96138" lon="5.9022">
        <ele>500.0229492</ele>
        <time>2011-02-12T12:46:43Z</time>
      </trkpt>
      <trkpt lat="46.96142" lon="5.90241">
        <ele>501.9455566</ele>
        <time>2011-02-12T12:46:50Z</time>
      </trkpt>
      <trkpt lat="46.96146" lon="5.90253">
        <ele>502.4261475</ele>
        <time>2011-02-12T12:46:54Z</time>
      </trkpt>
      <trkpt lat="46.96152" lon="5.90267">
        <ele>502.4261475</ele>
        <time>2011-02-12T12:46:59Z</time>
      </trkpt>
      <trkpt lat="46.96161" lon="5.90282">
        <ele>504.348877</ele>
        <time>2011-02-12T12:47:05Z</time>
      </trkpt>
      <trkpt lat="46.96168" lon="5.90295">
        <ele>503.8681641</ele>
        <time>2011-02-12T12:47:10Z</time>
      </trkpt>
      <trkpt lat="46.96177" lon="5.90307">
        <ele>503.8681641</ele>
        <time>2011-02-12T12:47:15Z</time>
      </trkpt>
      <trkpt lat="46.96185" lon="5.9032">
        <ele>503.3874512</ele>
        <time>2011-02-12T12:47:20Z</time>
      </trkpt>
      <trkpt lat="46.96197" lon="5.90333">
        <ele>503.3874512</ele>
        <time>2011-02-12T12:47:26Z</time>
      </trkpt>
      <trkpt lat="46.96206" lon="5.90343">
        <ele>501.4648438</ele>
        <time>2011-02-12T12:47:31Z</time>
      </trkpt>
      <trkpt lat="46.96213" lon="5.90355">
        <ele>500.50354</ele>
        <time>2011-02-12T12:47:36Z</time>
      </trkpt>
      <trkpt lat="46.9623" lon="5.90366">
        <ele>500.0229492</ele>
        <time>2011-02-12T12:47:43Z</time>
      </trkpt>
      <trkpt lat="46.96243" lon="5.90375">
        <ele>500.9841309</ele>
        <time>2011-02-12T12:47:49Z</time>
      </trkpt>
      <trkpt lat="46.96256" lon="5.90386">
        <ele>503.8681641</ele>
        <time>2011-02-12T12:47:56Z</time>
      </trkpt>
      <trkpt lat="46.9626" lon="5.90389">
        <ele>505.3101807</ele>
        <time>2011-02-12T12:48:00Z</time>
      </trkpt>
      <trkpt lat="46.96267" lon="5.90396">
        <ele>506.7520752</ele>
        <time>2011-02-12T12:48:07Z</time>
      </trkpt>
      <trkpt lat="46.96274" lon="5.90389">
        <ele>506.2714844</ele>
        <time>2011-02-12T12:48:12Z</time>
      </trkpt>
      <trkpt lat="46.96274" lon="5.90385">
        <ele>506.7520752</ele>
        <time>2011-02-12T12:48:13Z</time>
      </trkpt>
      <trkpt lat="46.96274" lon="5.90358">
        <ele>509.6361084</ele>
        <time>2011-02-12T12:48:20Z</time>
      </trkpt>
      <trkpt lat="46.96271" lon="5.9034">
        <ele>509.6361084</ele>
        <time>2011-02-12T12:48:25Z</time>
      </trkpt>
      <trkpt lat="46.96268" lon="5.90317">
        <ele>510.1166992</ele>
        <time>2011-02-12T12:48:31Z</time>
      </trkpt>
      <trkpt lat="46.96266" lon="5.90295">
        <ele>510.1166992</ele>
        <time>2011-02-12T12:48:37Z</time>
      </trkpt>
      <trkpt lat="46.96263" lon="5.90277">
        <ele>510.59729</ele>
        <time>2011-02-12T12:48:42Z</time>
      </trkpt>
      <trkpt lat="46.9626" lon="5.9026">
        <ele>511.0780029</ele>
        <time>2011-02-12T12:48:47Z</time>
      </trkpt>
      <trkpt lat="46.96257" lon="5.90239">
        <ele>509.6361084</ele>
        <time>2011-02-12T12:48:53Z</time>
      </trkpt>
      <trkpt lat="46.96257" lon="5.90219">
        <ele>511.0780029</ele>
        <time>2011-02-12T12:48:59Z</time>
      </trkpt>
      <trkpt lat="46.96259" lon="5.90198">
        <ele>511.0780029</ele>
        <time>2011-02-12T12:49:05Z</time>
      </trkpt>
      <trkpt lat="46.96261" lon="5.90179">
        <ele>511.0780029</ele>
        <time>2011-02-12T12:49:10Z</time>
      </trkpt>
      <trkpt lat="46.96262" lon="5.90159">
        <ele>512.0394287</ele>
        <time>2011-02-12T12:49:16Z</time>
      </trkpt>
      <trkpt lat="46.96268" lon="5.90136">
        <ele>513.4814453</ele>
        <time>2011-02-12T12:49:23Z</time>
      </trkpt>
      <trkpt lat="46.96275" lon="5.90118">
        <ele>513.4814453</ele>
        <time>2011-02-12T12:49:29Z</time>
      </trkpt>
      <trkpt lat="46.96285" lon="5.90098">
        <ele>513.4814453</ele>
        <time>2011-02-12T12:49:36Z</time>
      </trkpt>
      <trkpt lat="46.96295" lon="5.90084">
        <ele>514.442627</ele>
        <time>2011-02-12T12:49:42Z</time>
      </trkpt>
      <trkpt lat="46.96305" lon="5.90071">
        <ele>515.8846436</ele>
        <time>2011-02-12T12:49:48Z</time>
      </trkpt>
      <trkpt lat="46.96316" lon="5.90058">
        <ele>516.3652344</ele>
        <time>2011-02-12T12:49:54Z</time>
      </trkpt>
      <trkpt lat="46.96327" lon="5.90044">
        <ele>517.807251</ele>
        <time>2011-02-12T12:50:01Z</time>
      </trkpt>
      <trkpt lat="46.96337" lon="5.90033">
        <ele>518.7685547</ele>
        <time>2011-02-12T12:50:07Z</time>
      </trkpt>
      <trkpt lat="46.96344" lon="5.90026">
        <ele>519.2492676</ele>
        <time>2011-02-12T12:50:13Z</time>
      </trkpt>
      <trkpt lat="46.96353" lon="5.9002">
        <ele>520.6912842</ele>
        <time>2011-02-12T12:50:21Z</time>
      </trkpt>
      <trkpt lat="46.96358" lon="5.90012">
        <ele>523.0946045</ele>
        <time>2011-02-12T12:50:28Z</time>
      </trkpt>
      <trkpt lat="46.96362" lon="5.9">
        <ele>524.0557861</ele>
        <time>2011-02-12T12:50:35Z</time>
      </trkpt>
      <trkpt lat="46.96369" lon="5.89989">
        <ele>524.0557861</ele>
        <time>2011-02-12T12:50:41Z</time>
      </trkpt>
      <trkpt lat="46.96374" lon="5.89984">
        <ele>524.0557861</ele>
        <time>2011-02-12T12:50:45Z</time>
      </trkpt>
      <trkpt lat="46.96375" lon="5.89981">
        <ele>524.0557861</ele>
        <time>2011-02-12T12:50:47Z</time>
      </trkpt>
      <trkpt lat="46.9638" lon="5.89968">
        <ele>522.6138916</ele>
        <time>2011-02-12T12:50:54Z</time>
      </trkpt>
      <trkpt lat="46.9638" lon="5.89961">
        <ele>524.536499</ele>
        <time>2011-02-12T12:50:58Z</time>
      </trkpt>
      <trkpt lat="46.96382" lon="5.89949">
        <ele>521.6525879</ele>
        <time>2011-02-12T12:51:05Z</time>
      </trkpt>
      <trkpt lat="46.96384" lon="5.89939">
        <ele>521.6525879</ele>
        <time>2011-02-12T12:51:10Z</time>
      </trkpt>
      <trkpt lat="46.96384" lon="5.8993">
        <ele>524.0557861</ele>
        <time>2011-02-12T12:51:16Z</time>
      </trkpt>
      <trkpt lat="46.96383" lon="5.89927">
        <ele>525.4978027</ele>
        <time>2011-02-12T12:51:27Z</time>
      </trkpt>
      <trkpt lat="46.96386" lon="5.89917">
        <ele>525.4978027</ele>
        <time>2011-02-12T12:51:33Z</time>
      </trkpt>
      <trkpt lat="46.96387" lon="5.89902">
        <ele>527.4204102</ele>
        <time>2011-02-12T12:51:41Z</time>
      </trkpt>
      <trkpt lat="46.96388" lon="5.89896">
        <ele>527.901001</ele>
        <time>2011-02-12T12:51:45Z</time>
      </trkpt>
      <trkpt lat="46.96388" lon="5.89888">
        <ele>530.7851563</ele>
        <time>2011-02-12T12:51:51Z</time>
      </trkpt>
      <trkpt lat="46.96388" lon="5.89886">
        <ele>530.3044434</ele>
        <time>2011-02-12T12:51:52Z</time>
      </trkpt>
      <trkpt lat="46.96387" lon="5.89875">
        <ele>532.7077637</ele>
        <time>2011-02-12T12:51:58Z</time>
      </trkpt>
      <trkpt lat="46.96386" lon="5.89866">
        <ele>532.7077637</ele>
        <time>2011-02-12T12:52:03Z</time>
      </trkpt>
      <trkpt lat="46.96386" lon="5.89863">
        <ele>532.7077637</ele>
        <time>2011-02-12T12:52:05Z</time>
      </trkpt>
      <trkpt lat="46.96386" lon="5.89858">
        <ele>532.7077637</ele>
        <time>2011-02-12T12:52:07Z</time>
      </trkpt>
      <trkpt lat="46.96384" lon="5.89851">
        <ele>533.6689453</ele>
        <time>2011-02-12T12:52:11Z</time>
      </trkpt>
      <trkpt lat="46.96383" lon="5.89845">
        <ele>534.6303711</ele>
        <time>2011-02-12T12:52:14Z</time>
      </trkpt>
      <trkpt lat="46.96384" lon="5.89834">
        <ele>537.5142822</ele>
        <time>2011-02-12T12:52:20Z</time>
      </trkpt>
      <trkpt lat="46.96383" lon="5.89832">
        <ele>537.9949951</ele>
        <time>2011-02-12T12:52:21Z</time>
      </trkpt>
      <trkpt lat="46.96378" lon="5.89821">
        <ele>540.8789063</ele>
        <time>2011-02-12T12:52:26Z</time>
      </trkpt>
      <trkpt lat="46.96374" lon="5.89813">
        <ele>544.2436523</ele>
        <time>2011-02-12T12:52:30Z</time>
      </trkpt>
      <trkpt lat="46.96373" lon="5.89798">
        <ele>545.6855469</ele>
        <time>2011-02-12T12:52:37Z</time>
      </trkpt>
      <trkpt lat="46.96371" lon="5.89788">
        <ele>546.1662598</ele>
        <time>2011-02-12T12:52:42Z</time>
      </trkpt>
      <trkpt lat="46.9637" lon="5.89786">
        <ele>547.1274414</ele>
        <time>2011-02-12T12:52:44Z</time>
      </trkpt>
      <trkpt lat="46.96368" lon="5.89773">
        <ele>547.1274414</ele>
        <time>2011-02-12T12:52:51Z</time>
      </trkpt>
      <trkpt lat="46.96362" lon="5.89764">
        <ele>551.4533691</ele>
        <time>2011-02-12T12:52:56Z</time>
      </trkpt>
      <trkpt lat="46.96356" lon="5.89753">
        <ele>556.2600098</ele>
        <time>2011-02-12T12:53:03Z</time>
      </trkpt>
      <trkpt lat="46.96355" lon="5.89751">
        <ele>556.7407227</ele>
        <time>2011-02-12T12:53:04Z</time>
      </trkpt>
      <trkpt lat="46.96353" lon="5.89746">
        <ele>558.6633301</ele>
        <time>2011-02-12T12:53:08Z</time>
      </trkpt>
      <trkpt lat="46.96352" lon="5.89741">
        <ele>558.1828613</ele>
        <time>2011-02-12T12:53:12Z</time>
      </trkpt>
      <trkpt lat="46.96352" lon="5.89736">
        <ele>557.2214355</ele>
        <time>2011-02-12T12:53:18Z</time>
      </trkpt>
      <trkpt lat="46.96351" lon="5.8973">
        <ele>556.2600098</ele>
        <time>2011-02-12T12:53:23Z</time>
      </trkpt>
      <trkpt lat="46.96348" lon="5.89725">
        <ele>556.7407227</ele>
        <time>2011-02-12T12:53:26Z</time>
      </trkpt>
      <trkpt lat="46.96343" lon="5.89718">
        <ele>559.6247559</ele>
        <time>2011-02-12T12:53:30Z</time>
      </trkpt>
      <trkpt lat="46.96338" lon="5.89709">
        <ele>561.5473633</ele>
        <time>2011-02-12T12:53:35Z</time>
      </trkpt>
      <trkpt lat="46.96334" lon="5.89698">
        <ele>562.0280762</ele>
        <time>2011-02-12T12:53:40Z</time>
      </trkpt>
      <trkpt lat="46.96331" lon="5.89686">
        <ele>560.5859375</ele>
        <time>2011-02-12T12:53:46Z</time>
      </trkpt>
      <trkpt lat="46.96331" lon="5.8968">
        <ele>559.6247559</ele>
        <time>2011-02-12T12:53:49Z</time>
      </trkpt>
      <trkpt lat="46.96331" lon="5.89672">
        <ele>558.1828613</ele>
        <time>2011-02-12T12:53:53Z</time>
      </trkpt>
      <trkpt lat="46.96328" lon="5.8966">
        <ele>561.5473633</ele>
        <time>2011-02-12T12:53:59Z</time>
      </trkpt>
      <trkpt lat="46.96326" lon="5.89655">
        <ele>562.5085449</ele>
        <time>2011-02-12T12:54:02Z</time>
      </trkpt>
      <trkpt lat="46.96325" lon="5.89645">
        <ele>562.9892578</ele>
        <time>2011-02-12T12:54:07Z</time>
      </trkpt>
      <trkpt lat="46.96323" lon="5.8963">
        <ele>563.4699707</ele>
        <time>2011-02-12T12:54:15Z</time>
      </trkpt>
      <trkpt lat="46.96323" lon="5.89628">
        <ele>563.4699707</ele>
        <time>2011-02-12T12:54:16Z</time>
      </trkpt>
      <trkpt lat="46.96321" lon="5.89616">
        <ele>563.4699707</ele>
        <time>2011-02-12T12:54:22Z</time>
      </trkpt>
      <trkpt lat="46.9632" lon="5.89613">
        <ele>563.4699707</ele>
        <time>2011-02-12T12:54:24Z</time>
      </trkpt>
      <trkpt lat="46.96317" lon="5.89599">
        <ele>564.4311523</ele>
        <time>2011-02-12T12:54:32Z</time>
      </trkpt>
      <trkpt lat="46.96317" lon="5.89597">
        <ele>564.9118652</ele>
        <time>2011-02-12T12:54:33Z</time>
      </trkpt>
      <trkpt lat="46.96317" lon="5.89593">
        <ele>565.3925781</ele>
        <time>2011-02-12T12:54:35Z</time>
      </trkpt>
      <trkpt lat="46.96313" lon="5.89583">
        <ele>569.237793</ele>
        <time>2011-02-12T12:54:41Z</time>
      </trkpt>
      <trkpt lat="46.9631" lon="5.89574">
        <ele>571.1604004</ele>
        <time>2011-02-12T12:54:46Z</time>
      </trkpt>
      <trkpt lat="46.96307" lon="5.8956">
        <ele>573.5639648</ele>
        <time>2011-02-12T12:54:54Z</time>
      </trkpt>
      <trkpt lat="46.96305" lon="5.89559">
        <ele>575.0058594</ele>
        <time>2011-02-12T12:54:55Z</time>
      </trkpt>
      <trkpt lat="46.96305" lon="5.89549">
        <ele>577.8896484</ele>
        <time>2011-02-12T12:55:00Z</time>
      </trkpt>
      <trkpt lat="46.96302" lon="5.89544">
        <ele>581.2543945</ele>
        <time>2011-02-12T12:55:03Z</time>
      </trkpt>
      <trkpt lat="46.96302" lon="5.89532">
        <ele>580.7736816</ele>
        <time>2011-02-12T12:55:10Z</time>
      </trkpt>
      <trkpt lat="46.963" lon="5.89524">
        <ele>580.2929688</ele>
        <time>2011-02-12T12:55:15Z</time>
      </trkpt>
      <trkpt lat="46.963" lon="5.89513">
        <ele>580.7736816</ele>
        <time>2011-02-12T12:55:21Z</time>
      </trkpt>
      <trkpt lat="46.96299" lon="5.89504">
        <ele>583.1767578</ele>
        <time>2011-02-12T12:55:26Z</time>
      </trkpt>
      <trkpt lat="46.96298" lon="5.89501">
        <ele>585.0996094</ele>
        <time>2011-02-12T12:55:28Z</time>
      </trkpt>
      <trkpt lat="46.96297" lon="5.8949">
        <ele>588.4643555</ele>
        <time>2011-02-12T12:55:34Z</time>
      </trkpt>
      <trkpt lat="46.96296" lon="5.89481">
        <ele>590.8674316</ele>
        <time>2011-02-12T12:55:40Z</time>
      </trkpt>
      <trkpt lat="46.96296" lon="5.89479">
        <ele>592.3095703</ele>
        <time>2011-02-12T12:55:42Z</time>
      </trkpt>
      <trkpt lat="46.96294" lon="5.89475">
        <ele>595.1933594</ele>
        <time>2011-02-12T12:55:45Z</time>
      </trkpt>
      <trkpt lat="46.96291" lon="5.89467">
        <ele>597.1159668</ele>
        <time>2011-02-12T12:55:50Z</time>
      </trkpt>
      <trkpt lat="46.9629" lon="5.89459">
        <ele>600</ele>
        <time>2011-02-12T12:55:56Z</time>
      </trkpt>
      <trkpt lat="46.96287" lon="5.89455">
        <ele>603.364502</ele>
        <time>2011-02-12T12:55:59Z</time>
      </trkpt>
      <trkpt lat="46.96286" lon="5.89444">
        <ele>606.2485352</ele>
        <time>2011-02-12T12:56:05Z</time>
      </trkpt>
      <trkpt lat="46.96285" lon="5.89435">
        <ele>605.2873535</ele>
        <time>2011-02-12T12:56:10Z</time>
      </trkpt>
      <trkpt lat="46.96286" lon="5.89429">
        <ele>607.6906738</ele>
        <time>2011-02-12T12:56:13Z</time>
      </trkpt>
      <trkpt lat="46.96286" lon="5.89419">
        <ele>606.2485352</ele>
        <time>2011-02-12T12:56:19Z</time>
      </trkpt>
      <trkpt lat="46.96286" lon="5.89405">
        <ele>606.2485352</ele>
        <time>2011-02-12T12:56:27Z</time>
      </trkpt>
      <trkpt lat="46.96285" lon="5.89405">
        <ele>606.2485352</ele>
        <time>2011-02-12T12:56:28Z</time>
      </trkpt>
      <trkpt lat="46.96285" lon="5.89396">
        <ele>608.6518555</ele>
        <time>2011-02-12T12:56:33Z</time>
      </trkpt>
      <trkpt lat="46.96283" lon="5.89392">
        <ele>611.0551758</ele>
        <time>2011-02-12T12:56:36Z</time>
      </trkpt>
      <trkpt lat="46.96283" lon="5.89388">
        <ele>612.9777832</ele>
        <time>2011-02-12T12:56:38Z</time>
      </trkpt>
      <trkpt lat="46.96283" lon="5.89381">
        <ele>612.0166016</ele>
        <time>2011-02-12T12:56:44Z</time>
      </trkpt>
      <trkpt lat="46.96283" lon="5.89371">
        <ele>614.9003906</ele>
        <time>2011-02-12T12:56:52Z</time>
      </trkpt>
      <trkpt lat="46.96283" lon="5.89364">
        <ele>615.8618164</ele>
        <time>2011-02-12T12:56:58Z</time>
      </trkpt>
      <trkpt lat="46.96283" lon="5.89352">
        <ele>622.5910645</ele>
        <time>2011-02-12T12:57:06Z</time>
      </trkpt>
      <trkpt lat="46.96282" lon="5.89346">
        <ele>626.9169922</ele>
        <time>2011-02-12T12:57:10Z</time>
      </trkpt>
      <trkpt lat="46.96283" lon="5.89337">
        <ele>631.7233887</ele>
        <time>2011-02-12T12:57:17Z</time>
      </trkpt>
      <trkpt lat="46.9628" lon="5.89328">
        <ele>637.0107422</ele>
        <time>2011-02-12T12:57:23Z</time>
      </trkpt>
      <trkpt lat="46.9628" lon="5.89321">
        <ele>639.8947754</ele>
        <time>2011-02-12T12:57:28Z</time>
      </trkpt>
      <trkpt lat="46.9628" lon="5.8932">
        <ele>640.3754883</ele>
        <time>2011-02-12T12:57:29Z</time>
      </trkpt>
      <trkpt lat="46.96283" lon="5.89307">
        <ele>637.0107422</ele>
        <time>2011-02-12T12:57:38Z</time>
      </trkpt>
      <trkpt lat="46.96283" lon="5.89302">
        <ele>636.0495605</ele>
        <time>2011-02-12T12:57:42Z</time>
      </trkpt>
      <trkpt lat="46.96284" lon="5.89296">
        <ele>637.0107422</ele>
        <time>2011-02-12T12:57:45Z</time>
      </trkpt>
      <trkpt lat="46.96287" lon="5.89283">
        <ele>637.972168</ele>
        <time>2011-02-12T12:57:50Z</time>
      </trkpt>
      <trkpt lat="46.96289" lon="5.89273">
        <ele>638.9335938</ele>
        <time>2011-02-12T12:57:54Z</time>
      </trkpt>
      <trkpt lat="46.96291" lon="5.89257">
        <ele>638.9335938</ele>
        <time>2011-02-12T12:58:01Z</time>
      </trkpt>
      <trkpt lat="46.96292" lon="5.89252">
        <ele>638.4528809</ele>
        <time>2011-02-12T12:58:03Z</time>
      </trkpt>
      <trkpt lat="46.96292" lon="5.89238">
        <ele>639.8947754</ele>
        <time>2011-02-12T12:58:09Z</time>
      </trkpt>
      <trkpt lat="46.96293" lon="5.89226">
        <ele>641.3366699</ele>
        <time>2011-02-12T12:58:14Z</time>
      </trkpt>
      <trkpt lat="46.96293" lon="5.89213">
        <ele>642.2980957</ele>
        <time>2011-02-12T12:58:20Z</time>
      </trkpt>
      <trkpt lat="46.96293" lon="5.89212">
        <ele>642.7788086</ele>
        <time>2011-02-12T12:58:21Z</time>
      </trkpt>
      <trkpt lat="46.96293" lon="5.89207">
        <ele>643.7399902</ele>
        <time>2011-02-12T12:58:23Z</time>
      </trkpt>
      <trkpt lat="46.96292" lon="5.892">
        <ele>646.1433105</ele>
        <time>2011-02-12T12:58:27Z</time>
      </trkpt>
      <trkpt lat="46.96293" lon="5.89194">
        <ele>646.1433105</ele>
        <time>2011-02-12T12:58:30Z</time>
      </trkpt>
      <trkpt lat="46.96293" lon="5.89183">
        <ele>648.5463867</ele>
        <time>2011-02-12T12:58:35Z</time>
      </trkpt>
      <trkpt lat="46.96294" lon="5.89172">
        <ele>652.8725586</ele>
        <time>2011-02-12T12:58:41Z</time>
      </trkpt>
      <trkpt lat="46.96294" lon="5.89171">
        <ele>653.8339844</ele>
        <time>2011-02-12T12:58:42Z</time>
      </trkpt>
      <trkpt lat="46.96294" lon="5.89167">
        <ele>654.3146973</ele>
        <time>2011-02-12T12:58:44Z</time>
      </trkpt>
      <trkpt lat="46.96293" lon="5.89158">
        <ele>656.7177734</ele>
        <time>2011-02-12T12:58:49Z</time>
      </trkpt>
      <trkpt lat="46.96295" lon="5.89147">
        <ele>657.6791992</ele>
        <time>2011-02-12T12:58:55Z</time>
      </trkpt>
      <trkpt lat="46.96295" lon="5.89137">
        <ele>659.1210938</ele>
        <time>2011-02-12T12:59:01Z</time>
      </trkpt>
      <trkpt lat="46.96296" lon="5.8913">
        <ele>659.1210938</ele>
        <time>2011-02-12T12:59:06Z</time>
      </trkpt>
      <trkpt lat="46.96297" lon="5.89127">
        <ele>659.1210938</ele>
        <time>2011-02-12T12:59:08Z</time>
      </trkpt>
      <trkpt lat="46.96301" lon="5.89117">
        <ele>662.4855957</ele>
        <time>2011-02-12T12:59:15Z</time>
      </trkpt>
      <trkpt lat="46.963" lon="5.89117">
        <ele>663.9274902</ele>
        <time>2011-02-12T12:59:17Z</time>
      </trkpt>
      <trkpt lat="46.96297" lon="5.89123">
        <ele>663.4470215</ele>
        <time>2011-02-12T12:59:20Z</time>
      </trkpt>
      <trkpt lat="46.96295" lon="5.89135">
        <ele>662.4855957</ele>
        <time>2011-02-12T12:59:26Z</time>
      </trkpt>
      <trkpt lat="46.96295" lon="5.89141">
        <ele>662.005127</ele>
        <time>2011-02-12T12:59:29Z</time>
      </trkpt>
      <trkpt lat="46.96295" lon="5.89153">
        <ele>660.0822754</ele>
        <time>2011-02-12T12:59:35Z</time>
      </trkpt>
      <trkpt lat="46.96294" lon="5.89163">
        <ele>658.1599121</ele>
        <time>2011-02-12T12:59:40Z</time>
      </trkpt>
      <trkpt lat="46.96294" lon="5.89165">
        <ele>657.1984863</ele>
        <time>2011-02-12T12:59:46Z</time>
      </trkpt>
      <trkpt lat="46.96294" lon="5.89162">
        <ele>657.1984863</ele>
        <time>2011-02-12T12:59:48Z</time>
      </trkpt>
      <trkpt lat="46.96295" lon="5.89156">
        <ele>655.7565918</ele>
        <time>2011-02-12T12:59:52Z</time>
      </trkpt>
      <trkpt lat="46.96295" lon="5.89154">
        <ele>656.2370605</ele>
        <time>2011-02-12T12:59:54Z</time>
      </trkpt>
      <trkpt lat="46.96295" lon="5.89151">
        <ele>656.2370605</ele>
        <time>2011-02-12T12:59:56Z</time>
      </trkpt>
      <trkpt lat="46.96296" lon="5.89142">
        <ele>659.1210938</ele>
        <time>2011-02-12T13:00:03Z</time>
      </trkpt>
      <trkpt lat="46.96296" lon="5.89134">
        <ele>660.5629883</ele>
        <time>2011-02-12T13:00:09Z</time>
      </trkpt>
      <trkpt lat="46.96294" lon="5.89128">
        <ele>665.3696289</ele>
        <time>2011-02-12T13:00:13Z</time>
      </trkpt>
      <trkpt lat="46.96295" lon="5.89124">
        <ele>665.8503418</ele>
        <time>2011-02-12T13:00:16Z</time>
      </trkpt>
      <trkpt lat="46.96298" lon="5.89112">
        <ele>670.1762695</ele>
        <time>2011-02-12T13:00:23Z</time>
      </trkpt>
      <trkpt lat="46.96299" lon="5.8911">
        <ele>671.1376953</ele>
        <time>2011-02-12T13:00:26Z</time>
      </trkpt>
      <trkpt lat="46.963" lon="5.89102">
        <ele>673.0603027</ele>
        <time>2011-02-12T13:00:33Z</time>
      </trkpt>
      <trkpt lat="46.96301" lon="5.89095">
        <ele>673.5410156</ele>
        <time>2011-02-12T13:00:41Z</time>
      </trkpt>
      <trkpt lat="46.96303" lon="5.89088">
        <ele>674.9829102</ele>
        <time>2011-02-12T13:00:47Z</time>
      </trkpt>
      <trkpt lat="46.96306" lon="5.89081">
        <ele>676.9055176</ele>
        <time>2011-02-12T13:00:53Z</time>
      </trkpt>
      <trkpt lat="46.96309" lon="5.89076">
        <ele>675.4633789</ele>
        <time>2011-02-12T13:00:58Z</time>
      </trkpt>
      <trkpt lat="46.96311" lon="5.89068">
        <ele>678.828125</ele>
        <time>2011-02-12T13:01:06Z</time>
      </trkpt>
      <trkpt lat="46.96312" lon="5.89062">
        <ele>681.2314453</ele>
        <time>2011-02-12T13:01:11Z</time>
      </trkpt>
      <trkpt lat="46.96316" lon="5.89053">
        <ele>683.1538086</ele>
        <time>2011-02-12T13:01:19Z</time>
      </trkpt>
      <trkpt lat="46.96316" lon="5.89046">
        <ele>686.0380859</ele>
        <time>2011-02-12T13:01:25Z</time>
      </trkpt>
      <trkpt lat="46.96318" lon="5.89041">
        <ele>687.9606934</ele>
        <time>2011-02-12T13:01:30Z</time>
      </trkpt>
      <trkpt lat="46.96319" lon="5.89035">
        <ele>688.9221191</ele>
        <time>2011-02-12T13:01:36Z</time>
      </trkpt>
      <trkpt lat="46.96322" lon="5.89027">
        <ele>687.4799805</ele>
        <time>2011-02-12T13:01:43Z</time>
      </trkpt>
      <trkpt lat="46.96324" lon="5.89019">
        <ele>688.9221191</ele>
        <time>2011-02-12T13:01:49Z</time>
      </trkpt>
      <trkpt lat="46.96327" lon="5.89011">
        <ele>688.9221191</ele>
        <time>2011-02-12T13:01:54Z</time>
      </trkpt>
      <trkpt lat="46.9633" lon="5.88999">
        <ele>688.4414063</ele>
        <time>2011-02-12T13:01:59Z</time>
      </trkpt>
      <trkpt lat="46.96333" lon="5.88981">
        <ele>691.3251953</ele>
        <time>2011-02-12T13:02:05Z</time>
      </trkpt>
      <trkpt lat="46.96337" lon="5.88967">
        <ele>692.2866211</ele>
        <time>2011-02-12T13:02:10Z</time>
      </trkpt>
      <trkpt lat="46.96347" lon="5.88948">
        <ele>695.1704102</ele>
        <time>2011-02-12T13:02:16Z</time>
      </trkpt>
      <trkpt lat="46.96352" lon="5.88941">
        <ele>699.4963379</ele>
        <time>2011-02-12T13:02:21Z</time>
      </trkpt>
      <trkpt lat="46.96358" lon="5.88937">
        <ele>702.861084</ele>
        <time>2011-02-12T13:02:25Z</time>
      </trkpt>
      <trkpt lat="46.96366" lon="5.88936">
        <ele>705.7451172</ele>
        <time>2011-02-12T13:02:29Z</time>
      </trkpt>
      <trkpt lat="46.96367" lon="5.88938">
        <ele>703.8225098</ele>
        <time>2011-02-12T13:02:31Z</time>
      </trkpt>
      <trkpt lat="46.96361" lon="5.8894">
        <ele>699.4963379</ele>
        <time>2011-02-12T13:02:37Z</time>
      </trkpt>
      <trkpt lat="46.96359" lon="5.88939">
        <ele>697.0930176</ele>
        <time>2011-02-12T13:02:42Z</time>
      </trkpt>
      <trkpt lat="46.96363" lon="5.8894">
        <ele>696.1318359</ele>
        <time>2011-02-12T13:02:45Z</time>
      </trkpt>
      <trkpt lat="46.9637" lon="5.88938">
        <ele>697.5737305</ele>
        <time>2011-02-12T13:02:50Z</time>
      </trkpt>
      <trkpt lat="46.96377" lon="5.88938">
        <ele>699.9770508</ele>
        <time>2011-02-12T13:02:54Z</time>
      </trkpt>
      <trkpt lat="46.96392" lon="5.88933">
        <ele>705.7451172</ele>
        <time>2011-02-12T13:03:02Z</time>
      </trkpt>
      <trkpt lat="46.96397" lon="5.88931">
        <ele>708.1484375</ele>
        <time>2011-02-12T13:03:04Z</time>
      </trkpt>
      <trkpt lat="46.96409" lon="5.88925">
        <ele>712.954834</ele>
        <time>2011-02-12T13:03:10Z</time>
      </trkpt>
      <trkpt lat="46.96419" lon="5.88915">
        <ele>715.3581543</ele>
        <time>2011-02-12T13:03:16Z</time>
      </trkpt>
      <trkpt lat="46.96428" lon="5.88906">
        <ele>715.8388672</ele>
        <time>2011-02-12T13:03:22Z</time>
      </trkpt>
      <trkpt lat="46.96436" lon="5.88896">
        <ele>714.8774414</ele>
        <time>2011-02-12T13:03:27Z</time>
      </trkpt>
      <trkpt lat="46.96439" lon="5.88891">
        <ele>711.0322266</ele>
        <time>2011-02-12T13:03:31Z</time>
      </trkpt>
      <trkpt lat="46.96446" lon="5.88879">
        <ele>708.1484375</ele>
        <time>2011-02-12T13:03:39Z</time>
      </trkpt>
      <trkpt lat="46.9645" lon="5.88871">
        <ele>706.7062988</ele>
        <time>2011-02-12T13:03:43Z</time>
      </trkpt>
      <trkpt lat="46.96456" lon="5.88859">
        <ele>702.3803711</ele>
        <time>2011-02-12T13:03:50Z</time>
      </trkpt>
      <trkpt lat="46.96458" lon="5.88852">
        <ele>703.3417969</ele>
        <time>2011-02-12T13:03:53Z</time>
      </trkpt>
      <trkpt lat="46.96464" lon="5.88837">
        <ele>705.2644043</ele>
        <time>2011-02-12T13:04:00Z</time>
      </trkpt>
      <trkpt lat="46.96468" lon="5.88829">
        <ele>706.7062988</ele>
        <time>2011-02-12T13:04:05Z</time>
      </trkpt>
      <trkpt lat="46.9647" lon="5.88824">
        <ele>708.1484375</ele>
        <time>2011-02-12T13:04:07Z</time>
      </trkpt>
      <trkpt lat="46.96472" lon="5.88814">
        <ele>709.590332</ele>
        <time>2011-02-12T13:04:12Z</time>
      </trkpt>
      <trkpt lat="46.96473" lon="5.88812">
        <ele>709.590332</ele>
        <time>2011-02-12T13:04:14Z</time>
      </trkpt>
      <trkpt lat="46.96474" lon="5.88804">
        <ele>710.5515137</ele>
        <time>2011-02-12T13:04:18Z</time>
      </trkpt>
      <trkpt lat="46.96475" lon="5.88797">
        <ele>713.4355469</ele>
        <time>2011-02-12T13:04:23Z</time>
      </trkpt>
      <trkpt lat="46.96478" lon="5.88782">
        <ele>716.3195801</ele>
        <time>2011-02-12T13:04:31Z</time>
      </trkpt>
      <trkpt lat="46.9648" lon="5.88778">
        <ele>716.3195801</ele>
        <time>2011-02-12T13:04:33Z</time>
      </trkpt>
      <trkpt lat="46.96483" lon="5.88764">
        <ele>717.7614746</ele>
        <time>2011-02-12T13:04:40Z</time>
      </trkpt>
      <trkpt lat="46.96486" lon="5.88755">
        <ele>719.6843262</ele>
        <time>2011-02-12T13:04:45Z</time>
      </trkpt>
      <trkpt lat="46.96488" lon="5.88748">
        <ele>721.1262207</ele>
        <time>2011-02-12T13:04:51Z</time>
      </trkpt>
      <trkpt lat="46.96493" lon="5.88734">
        <ele>731.2199707</ele>
        <time>2011-02-12T13:04:59Z</time>
      </trkpt>
      <trkpt lat="46.965" lon="5.88725">
        <ele>733.1425781</ele>
        <time>2011-02-12T13:05:05Z</time>
      </trkpt>
      <trkpt lat="46.96504" lon="5.88716">
        <ele>731.7004395</ele>
        <time>2011-02-12T13:05:11Z</time>
      </trkpt>
      <trkpt lat="46.96505" lon="5.88714">
        <ele>731.2199707</ele>
        <time>2011-02-12T13:05:12Z</time>
      </trkpt>
      <trkpt lat="46.96506" lon="5.88699">
        <ele>730.2585449</ele>
        <time>2011-02-12T13:05:20Z</time>
      </trkpt>
      <trkpt lat="46.96505" lon="5.8869">
        <ele>730.2585449</ele>
        <time>2011-02-12T13:05:24Z</time>
      </trkpt>
      <trkpt lat="46.96503" lon="5.88683">
        <ele>729.777832</ele>
        <time>2011-02-12T13:05:30Z</time>
      </trkpt>
      <trkpt lat="46.96496" lon="5.88675">
        <ele>730.2585449</ele>
        <time>2011-02-12T13:05:37Z</time>
      </trkpt>
      <trkpt lat="46.96495" lon="5.88673">
        <ele>730.2585449</ele>
        <time>2011-02-12T13:05:39Z</time>
      </trkpt>
      <trkpt lat="46.96491" lon="5.88667">
        <ele>732.1813965</ele>
        <time>2011-02-12T13:05:44Z</time>
      </trkpt>
      <trkpt lat="46.96492" lon="5.88661">
        <ele>734.1040039</ele>
        <time>2011-02-12T13:05:48Z</time>
      </trkpt>
      <trkpt lat="46.9649" lon="5.88652">
        <ele>736.0266113</ele>
        <time>2011-02-12T13:05:55Z</time>
      </trkpt>
      <trkpt lat="46.96482" lon="5.88643">
        <ele>739.8718262</ele>
        <time>2011-02-12T13:06:03Z</time>
      </trkpt>
      <trkpt lat="46.96482" lon="5.88642">
        <ele>740.3525391</ele>
        <time>2011-02-12T13:06:04Z</time>
      </trkpt>
      <trkpt lat="46.96484" lon="5.88641">
        <ele>741.3137207</ele>
        <time>2011-02-12T13:06:09Z</time>
      </trkpt>
      <trkpt lat="46.96488" lon="5.88645">
        <ele>739.8718262</ele>
        <time>2011-02-12T13:06:14Z</time>
      </trkpt>
      <trkpt lat="46.96486" lon="5.88648">
        <ele>738.4299316</ele>
        <time>2011-02-12T13:06:19Z</time>
      </trkpt>
      <trkpt lat="46.96482" lon="5.88643">
        <ele>737.4685059</ele>
        <time>2011-02-12T13:06:25Z</time>
      </trkpt>
      <trkpt lat="46.9648" lon="5.8864">
        <ele>737.9492188</ele>
        <time>2011-02-12T13:06:27Z</time>
      </trkpt>
      <trkpt lat="46.96479" lon="5.88639">
        <ele>736.987793</ele>
        <time>2011-02-12T13:06:28Z</time>
      </trkpt>
      <trkpt lat="46.96471" lon="5.88632">
        <ele>738.4299316</ele>
        <time>2011-02-12T13:06:37Z</time>
      </trkpt>
      <trkpt lat="46.96464" lon="5.88626">
        <ele>741.3137207</ele>
        <time>2011-02-12T13:06:45Z</time>
      </trkpt>
      <trkpt lat="46.96457" lon="5.88616">
        <ele>745.1589355</ele>
        <time>2011-02-12T13:06:52Z</time>
      </trkpt>
      <trkpt lat="46.96454" lon="5.88609">
        <ele>746.1203613</ele>
        <time>2011-02-12T13:06:57Z</time>
      </trkpt>
      <trkpt lat="46.96456" lon="5.88594">
        <ele>745.6396484</ele>
        <time>2011-02-12T13:07:06Z</time>
      </trkpt>
      <trkpt lat="46.96457" lon="5.88591">
        <ele>746.1203613</ele>
        <time>2011-02-12T13:07:08Z</time>
      </trkpt>
      <trkpt lat="46.96463" lon="5.88581">
        <ele>746.6010742</ele>
        <time>2011-02-12T13:07:17Z</time>
      </trkpt>
      <trkpt lat="46.96471" lon="5.88575">
        <ele>749.0043945</ele>
        <time>2011-02-12T13:07:25Z</time>
      </trkpt>
      <trkpt lat="46.96479" lon="5.88571">
        <ele>749.9658203</ele>
        <time>2011-02-12T13:07:31Z</time>
      </trkpt>
      <trkpt lat="46.96486" lon="5.88572">
        <ele>750.927002</ele>
        <time>2011-02-12T13:07:35Z</time>
      </trkpt>
      <trkpt lat="46.965" lon="5.88573">
        <ele>749.9658203</ele>
        <time>2011-02-12T13:07:43Z</time>
      </trkpt>
      <trkpt lat="46.96512" lon="5.88575">
        <ele>749.4851074</ele>
        <time>2011-02-12T13:07:50Z</time>
      </trkpt>
      <trkpt lat="46.96523" lon="5.88577">
        <ele>751.8884277</ele>
        <time>2011-02-12T13:07:56Z</time>
      </trkpt>
      <trkpt lat="46.96538" lon="5.88581">
        <ele>755.7336426</ele>
        <time>2011-02-12T13:08:05Z</time>
      </trkpt>
      <trkpt lat="46.96548" lon="5.88586">
        <ele>758.1369629</ele>
        <time>2011-02-12T13:08:11Z</time>
      </trkpt>
      <trkpt lat="46.96557" lon="5.88593">
        <ele>759.5788574</ele>
        <time>2011-02-12T13:08:17Z</time>
      </trkpt>
      <trkpt lat="46.96565" lon="5.88596">
        <ele>763.904541</ele>
        <time>2011-02-12T13:08:22Z</time>
      </trkpt>
      <trkpt lat="46.96574" lon="5.88602">
        <ele>767.75</ele>
        <time>2011-02-12T13:08:28Z</time>
      </trkpt>
      <trkpt lat="46.96583" lon="5.88607">
        <ele>775.4404297</ele>
        <time>2011-02-12T13:08:34Z</time>
      </trkpt>
      <trkpt lat="46.96593" lon="5.88612">
        <ele>781.2087402</ele>
        <time>2011-02-12T13:08:41Z</time>
      </trkpt>
      <trkpt lat="46.96602" lon="5.88622">
        <ele>775.4404297</ele>
        <time>2011-02-12T13:08:47Z</time>
      </trkpt>
      <trkpt lat="46.96613" lon="5.88634">
        <ele>771.5952148</ele>
        <time>2011-02-12T13:08:55Z</time>
      </trkpt>
      <trkpt lat="46.96618" lon="5.88641">
        <ele>771.1147461</ele>
        <time>2011-02-12T13:08:59Z</time>
      </trkpt>
      <trkpt lat="46.96624" lon="5.88649">
        <ele>771.5952148</ele>
        <time>2011-02-12T13:09:04Z</time>
      </trkpt>
      <trkpt lat="46.96631" lon="5.88659">
        <ele>773.9985352</ele>
        <time>2011-02-12T13:09:11Z</time>
      </trkpt>
      <trkpt lat="46.96638" lon="5.88668">
        <ele>776.4018555</ele>
        <time>2011-02-12T13:09:18Z</time>
      </trkpt>
      <trkpt lat="46.96646" lon="5.88673">
        <ele>785.5344238</ele>
        <time>2011-02-12T13:09:25Z</time>
      </trkpt>
      <trkpt lat="46.96652" lon="5.88677">
        <ele>791.3022461</ele>
        <time>2011-02-12T13:09:30Z</time>
      </trkpt>
      <trkpt lat="46.96659" lon="5.8868">
        <ele>796.5898438</ele>
        <time>2011-02-12T13:09:35Z</time>
      </trkpt>
      <trkpt lat="46.96668" lon="5.88686">
        <ele>802.8381348</ele>
        <time>2011-02-12T13:09:42Z</time>
      </trkpt>
      <trkpt lat="46.96675" lon="5.88693">
        <ele>804.7607422</ele>
        <time>2011-02-12T13:09:47Z</time>
      </trkpt>
      <trkpt lat="46.96682" lon="5.887">
        <ele>806.6833496</ele>
        <time>2011-02-12T13:09:53Z</time>
      </trkpt>
      <trkpt lat="46.96692" lon="5.88709">
        <ele>807.6447754</ele>
        <time>2011-02-12T13:10:00Z</time>
      </trkpt>
      <trkpt lat="46.96698" lon="5.88715">
        <ele>806.6833496</ele>
        <time>2011-02-12T13:10:05Z</time>
      </trkpt>
      <trkpt lat="46.96705" lon="5.88724">
        <ele>804.2802734</ele>
        <time>2011-02-12T13:10:11Z</time>
      </trkpt>
      <trkpt lat="46.96714" lon="5.88732">
        <ele>799.4736328</ele>
        <time>2011-02-12T13:10:17Z</time>
      </trkpt>
      <trkpt lat="46.96725" lon="5.88742">
        <ele>798.9929199</ele>
        <time>2011-02-12T13:10:24Z</time>
      </trkpt>
      <trkpt lat="46.96736" lon="5.88754">
        <ele>797.5510254</ele>
        <time>2011-02-12T13:10:31Z</time>
      </trkpt>
      <trkpt lat="46.96744" lon="5.88762">
        <ele>797.0703125</ele>
        <time>2011-02-12T13:10:37Z</time>
      </trkpt>
      <trkpt lat="46.96754" lon="5.88768">
        <ele>798.0317383</ele>
        <time>2011-02-12T13:10:43Z</time>
      </trkpt>
      <trkpt lat="46.96761" lon="5.88777">
        <ele>798.512207</ele>
        <time>2011-02-12T13:10:49Z</time>
      </trkpt>
      <trkpt lat="46.96769" lon="5.88787">
        <ele>798.9929199</ele>
        <time>2011-02-12T13:10:55Z</time>
      </trkpt>
      <trkpt lat="46.9678" lon="5.88797">
        <ele>800.9155273</ele>
        <time>2011-02-12T13:11:01Z</time>
      </trkpt>
      <trkpt lat="46.96792" lon="5.88806">
        <ele>804.2802734</ele>
        <time>2011-02-12T13:11:08Z</time>
      </trkpt>
      <trkpt lat="46.96799" lon="5.88812">
        <ele>805.2414551</ele>
        <time>2011-02-12T13:11:12Z</time>
      </trkpt>
      <trkpt lat="46.96803" lon="5.88818">
        <ele>805.2414551</ele>
        <time>2011-02-12T13:11:16Z</time>
      </trkpt>
      <trkpt lat="46.96812" lon="5.8883">
        <ele>808.605957</ele>
        <time>2011-02-12T13:11:23Z</time>
      </trkpt>
      <trkpt lat="46.96825" lon="5.88842">
        <ele>811.0092773</ele>
        <time>2011-02-12T13:11:30Z</time>
      </trkpt>
      <trkpt lat="46.96835" lon="5.88848">
        <ele>811.0092773</ele>
        <time>2011-02-12T13:11:35Z</time>
      </trkpt>
      <trkpt lat="46.96842" lon="5.88852">
        <ele>812.9321289</ele>
        <time>2011-02-12T13:11:38Z</time>
      </trkpt>
      <trkpt lat="46.96852" lon="5.88865">
        <ele>814.3740234</ele>
        <time>2011-02-12T13:11:44Z</time>
      </trkpt>
      <trkpt lat="46.96863" lon="5.88872">
        <ele>816.7773438</ele>
        <time>2011-02-12T13:11:49Z</time>
      </trkpt>
      <trkpt lat="46.96871" lon="5.88888">
        <ele>815.8161621</ele>
        <time>2011-02-12T13:11:55Z</time>
      </trkpt>
      <trkpt lat="46.96874" lon="5.88892">
        <ele>815.3354492</ele>
        <time>2011-02-12T13:11:57Z</time>
      </trkpt>
      <trkpt lat="46.9687" lon="5.88892">
        <ele>815.8161621</ele>
        <time>2011-02-12T13:12:01Z</time>
      </trkpt>
      <trkpt lat="46.96869" lon="5.8889">
        <ele>815.3354492</ele>
        <time>2011-02-12T13:12:02Z</time>
      </trkpt>
      <trkpt lat="46.96864" lon="5.88882">
        <ele>814.3740234</ele>
        <time>2011-02-12T13:12:07Z</time>
      </trkpt>
      <trkpt lat="46.96868" lon="5.88882">
        <ele>812.9321289</ele>
        <time>2011-02-12T13:12:11Z</time>
      </trkpt>
      <trkpt lat="46.96876" lon="5.8889">
        <ele>813.8933105</ele>
        <time>2011-02-12T13:12:16Z</time>
      </trkpt>
      <trkpt lat="46.96878" lon="5.8889">
        <ele>813.4128418</ele>
        <time>2011-02-12T13:12:17Z</time>
      </trkpt>
      <trkpt lat="46.96891" lon="5.88887">
        <ele>813.8933105</ele>
        <time>2011-02-12T13:12:24Z</time>
      </trkpt>
      <trkpt lat="46.96898" lon="5.88882">
        <ele>814.8547363</ele>
        <time>2011-02-12T13:12:28Z</time>
      </trkpt>
      <trkpt lat="46.96909" lon="5.88868">
        <ele>817.2580566</ele>
        <time>2011-02-12T13:12:34Z</time>
      </trkpt>
      <trkpt lat="46.96919" lon="5.88857">
        <ele>818.2192383</ele>
        <time>2011-02-12T13:12:40Z</time>
      </trkpt>
      <trkpt lat="46.96929" lon="5.88848">
        <ele>819.661377</ele>
        <time>2011-02-12T13:12:46Z</time>
      </trkpt>
      <trkpt lat="46.96932" lon="5.88845">
        <ele>820.6225586</ele>
        <time>2011-02-12T13:12:48Z</time>
      </trkpt>
      <trkpt lat="46.96939" lon="5.88847">
        <ele>822.545166</ele>
        <time>2011-02-12T13:12:52Z</time>
      </trkpt>
      <trkpt lat="46.9695" lon="5.88849">
        <ele>821.5837402</ele>
        <time>2011-02-12T13:12:58Z</time>
      </trkpt>
      <trkpt lat="46.96953" lon="5.88851">
        <ele>821.1032715</ele>
        <time>2011-02-12T13:12:59Z</time>
      </trkpt>
      <trkpt lat="46.96964" lon="5.8886">
        <ele>823.9870605</ele>
        <time>2011-02-12T13:13:06Z</time>
      </trkpt>
      <trkpt lat="46.96972" lon="5.88868">
        <ele>824.4677734</ele>
        <time>2011-02-12T13:13:11Z</time>
      </trkpt>
      <trkpt lat="46.96979" lon="5.88874">
        <ele>824.4677734</ele>
        <time>2011-02-12T13:13:15Z</time>
      </trkpt>
      <trkpt lat="46.96991" lon="5.88882">
        <ele>826.3903809</ele>
        <time>2011-02-12T13:13:21Z</time>
      </trkpt>
      <trkpt lat="46.97" lon="5.88884">
        <ele>826.8710938</ele>
        <time>2011-02-12T13:13:26Z</time>
      </trkpt>
      <trkpt lat="46.97002" lon="5.88884">
        <ele>826.8710938</ele>
        <time>2011-02-12T13:13:27Z</time>
      </trkpt>
      <trkpt lat="46.97016" lon="5.88892">
        <ele>826.3903809</ele>
        <time>2011-02-12T13:13:33Z</time>
      </trkpt>
      <trkpt lat="46.97024" lon="5.88897">
        <ele>827.3518066</ele>
        <time>2011-02-12T13:13:37Z</time>
      </trkpt>
      <trkpt lat="46.97035" lon="5.88903">
        <ele>829.2744141</ele>
        <time>2011-02-12T13:13:42Z</time>
      </trkpt>
      <trkpt lat="46.97043" lon="5.88907">
        <ele>829.2744141</ele>
        <time>2011-02-12T13:13:46Z</time>
      </trkpt>
      <trkpt lat="46.97052" lon="5.88912">
        <ele>828.3132324</ele>
        <time>2011-02-12T13:13:50Z</time>
      </trkpt>
      <trkpt lat="46.97069" lon="5.88917">
        <ele>827.8322754</ele>
        <time>2011-02-12T13:13:56Z</time>
      </trkpt>
      <trkpt lat="46.97083" lon="5.88915">
        <ele>832.1584473</ele>
        <time>2011-02-12T13:14:01Z</time>
      </trkpt>
      <trkpt lat="46.97093" lon="5.88906">
        <ele>834.5617676</ele>
        <time>2011-02-12T13:14:05Z</time>
      </trkpt>
      <trkpt lat="46.971" lon="5.88889">
        <ele>836.9648438</ele>
        <time>2011-02-12T13:14:10Z</time>
      </trkpt>
      <trkpt lat="46.97109" lon="5.88876">
        <ele>837.4455566</ele>
        <time>2011-02-12T13:14:15Z</time>
      </trkpt>
      <trkpt lat="46.97123" lon="5.88858">
        <ele>836.484375</ele>
        <time>2011-02-12T13:14:22Z</time>
      </trkpt>
      <trkpt lat="46.97136" lon="5.88843">
        <ele>834.5617676</ele>
        <time>2011-02-12T13:14:28Z</time>
      </trkpt>
      <trkpt lat="46.97147" lon="5.88828">
        <ele>833.6003418</ele>
        <time>2011-02-12T13:14:34Z</time>
      </trkpt>
      <trkpt lat="46.97157" lon="5.88815">
        <ele>833.1196289</ele>
        <time>2011-02-12T13:14:39Z</time>
      </trkpt>
      <trkpt lat="46.97169" lon="5.88801">
        <ele>833.6003418</ele>
        <time>2011-02-12T13:14:45Z</time>
      </trkpt>
      <trkpt lat="46.97181" lon="5.88781">
        <ele>834.5617676</ele>
        <time>2011-02-12T13:14:52Z</time>
      </trkpt>
      <trkpt lat="46.9719" lon="5.88767">
        <ele>836.484375</ele>
        <time>2011-02-12T13:14:57Z</time>
      </trkpt>
      <trkpt lat="46.97203" lon="5.8876">
        <ele>837.9262695</ele>
        <time>2011-02-12T13:15:02Z</time>
      </trkpt>
      <trkpt lat="46.97214" lon="5.88761">
        <ele>840.3295898</ele>
        <time>2011-02-12T13:15:06Z</time>
      </trkpt>
      <trkpt lat="46.97227" lon="5.88764">
        <ele>841.7714844</ele>
        <time>2011-02-12T13:15:11Z</time>
      </trkpt>
      <trkpt lat="46.97231" lon="5.88769">
        <ele>842.2521973</ele>
        <time>2011-02-12T13:15:14Z</time>
      </trkpt>
      <trkpt lat="46.97244" lon="5.88777">
        <ele>843.2133789</ele>
        <time>2011-02-12T13:15:20Z</time>
      </trkpt>
      <trkpt lat="46.97256" lon="5.88784">
        <ele>846.0976563</ele>
        <time>2011-02-12T13:15:25Z</time>
      </trkpt>
      <trkpt lat="46.97266" lon="5.88788">
        <ele>849.4621582</ele>
        <time>2011-02-12T13:15:29Z</time>
      </trkpt>
      <trkpt lat="46.97277" lon="5.88792">
        <ele>855.7106934</ele>
        <time>2011-02-12T13:15:33Z</time>
      </trkpt>
      <trkpt lat="46.97289" lon="5.88794">
        <ele>859.5559082</ele>
        <time>2011-02-12T13:15:38Z</time>
      </trkpt>
      <trkpt lat="46.97299" lon="5.88788">
        <ele>857.6333008</ele>
        <time>2011-02-12T13:15:42Z</time>
      </trkpt>
      <trkpt lat="46.97315" lon="5.88777">
        <ele>853.307373</ele>
        <time>2011-02-12T13:15:49Z</time>
      </trkpt>
      <trkpt lat="46.97324" lon="5.88775">
        <ele>849.4621582</ele>
        <time>2011-02-12T13:15:53Z</time>
      </trkpt>
      <trkpt lat="46.97336" lon="5.88779">
        <ele>842.7329102</ele>
        <time>2011-02-12T13:15:58Z</time>
      </trkpt>
      <trkpt lat="46.97347" lon="5.88787">
        <ele>836.484375</ele>
        <time>2011-02-12T13:16:03Z</time>
      </trkpt>
      <trkpt lat="46.97358" lon="5.88794">
        <ele>833.1196289</ele>
        <time>2011-02-12T13:16:09Z</time>
      </trkpt>
      <trkpt lat="46.97367" lon="5.88803">
        <ele>831.1972656</ele>
        <time>2011-02-12T13:16:14Z</time>
      </trkpt>
      <trkpt lat="46.97376" lon="5.88811">
        <ele>829.2744141</ele>
        <time>2011-02-12T13:16:19Z</time>
      </trkpt>
      <trkpt lat="46.9739" lon="5.88819">
        <ele>827.3518066</ele>
        <time>2011-02-12T13:16:26Z</time>
      </trkpt>
      <trkpt lat="46.97392" lon="5.88818">
        <ele>826.8710938</ele>
        <time>2011-02-12T13:16:27Z</time>
      </trkpt>
      <trkpt lat="46.97401" lon="5.88821">
        <ele>823.9870605</ele>
        <time>2011-02-12T13:16:32Z</time>
      </trkpt>
      <trkpt lat="46.97414" lon="5.88826">
        <ele>817.2580566</ele>
        <time>2011-02-12T13:16:38Z</time>
      </trkpt>
      <trkpt lat="46.97425" lon="5.88837">
        <ele>809.5673828</ele>
        <time>2011-02-12T13:16:44Z</time>
      </trkpt>
      <trkpt lat="46.97426" lon="5.88839">
        <ele>809.0866699</ele>
        <time>2011-02-12T13:16:45Z</time>
      </trkpt>
      <trkpt lat="46.9743" lon="5.8886">
        <ele>807.6447754</ele>
        <time>2011-02-12T13:16:51Z</time>
      </trkpt>
      <trkpt lat="46.97431" lon="5.88865">
        <ele>806.6833496</ele>
        <time>2011-02-12T13:16:53Z</time>
      </trkpt>
      <trkpt lat="46.97434" lon="5.88887">
        <ele>807.1640625</ele>
        <time>2011-02-12T13:17:00Z</time>
      </trkpt>
      <trkpt lat="46.97436" lon="5.88898">
        <ele>807.1640625</ele>
        <time>2011-02-12T13:17:03Z</time>
      </trkpt>
      <trkpt lat="46.97436" lon="5.88909">
        <ele>807.6447754</ele>
        <time>2011-02-12T13:17:07Z</time>
      </trkpt>
      <trkpt lat="46.97436" lon="5.88915">
        <ele>808.605957</ele>
        <time>2011-02-12T13:17:09Z</time>
      </trkpt>
      <trkpt lat="46.97442" lon="5.88932">
        <ele>810.0478516</ele>
        <time>2011-02-12T13:17:15Z</time>
      </trkpt>
      <trkpt lat="46.97444" lon="5.88951">
        <ele>809.5673828</ele>
        <time>2011-02-12T13:17:21Z</time>
      </trkpt>
      <trkpt lat="46.97443" lon="5.88962">
        <ele>811.0092773</ele>
        <time>2011-02-12T13:17:25Z</time>
      </trkpt>
      <trkpt lat="46.97446" lon="5.88975">
        <ele>811.9707031</ele>
        <time>2011-02-12T13:17:31Z</time>
      </trkpt>
      <trkpt lat="46.97451" lon="5.88982">
        <ele>812.451416</ele>
        <time>2011-02-12T13:17:35Z</time>
      </trkpt>
      <trkpt lat="46.97453" lon="5.88983">
        <ele>812.9321289</ele>
        <time>2011-02-12T13:17:36Z</time>
      </trkpt>
      <trkpt lat="46.97456" lon="5.88984">
        <ele>812.9321289</ele>
        <time>2011-02-12T13:17:38Z</time>
      </trkpt>
      <trkpt lat="46.97465" lon="5.88983">
        <ele>813.4128418</ele>
        <time>2011-02-12T13:17:44Z</time>
      </trkpt>
      <trkpt lat="46.97469" lon="5.88983">
        <ele>812.451416</ele>
        <time>2011-02-12T13:17:46Z</time>
      </trkpt>
      <trkpt lat="46.9748" lon="5.88982">
        <ele>813.4128418</ele>
        <time>2011-02-12T13:17:53Z</time>
      </trkpt>
      <trkpt lat="46.9749" lon="5.88984">
        <ele>815.8161621</ele>
        <time>2011-02-12T13:17:58Z</time>
      </trkpt>
      <trkpt lat="46.97499" lon="5.88986">
        <ele>816.7773438</ele>
        <time>2011-02-12T13:18:04Z</time>
      </trkpt>
      <trkpt lat="46.97507" lon="5.88991">
        <ele>817.2580566</ele>
        <time>2011-02-12T13:18:09Z</time>
      </trkpt>
      <trkpt lat="46.97511" lon="5.88994">
        <ele>817.7385254</ele>
        <time>2011-02-12T13:18:12Z</time>
      </trkpt>
      <trkpt lat="46.97519" lon="5.88999">
        <ele>817.7385254</ele>
        <time>2011-02-12T13:18:17Z</time>
      </trkpt>
      <trkpt lat="46.97524" lon="5.89008">
        <ele>815.8161621</ele>
        <time>2011-02-12T13:18:21Z</time>
      </trkpt>
      <trkpt lat="46.97525" lon="5.89011">
        <ele>815.3354492</ele>
        <time>2011-02-12T13:18:22Z</time>
      </trkpt>
      <trkpt lat="46.97534" lon="5.89028">
        <ele>814.8547363</ele>
        <time>2011-02-12T13:18:28Z</time>
      </trkpt>
      <trkpt lat="46.97539" lon="5.89038">
        <ele>812.451416</ele>
        <time>2011-02-12T13:18:32Z</time>
      </trkpt>
      <trkpt lat="46.97546" lon="5.89047">
        <ele>809.5673828</ele>
        <time>2011-02-12T13:18:36Z</time>
      </trkpt>
      <trkpt lat="46.9755" lon="5.89051">
        <ele>808.1254883</ele>
        <time>2011-02-12T13:18:38Z</time>
      </trkpt>
      <trkpt lat="46.9756" lon="5.89061">
        <ele>805.722168</ele>
        <time>2011-02-12T13:18:43Z</time>
      </trkpt>
      <trkpt lat="46.97568" lon="5.8907">
        <ele>804.2802734</ele>
        <time>2011-02-12T13:18:47Z</time>
      </trkpt>
      <trkpt lat="46.97577" lon="5.89079">
        <ele>803.7995605</ele>
        <time>2011-02-12T13:18:51Z</time>
      </trkpt>
      <trkpt lat="46.97584" lon="5.8909">
        <ele>803.3188477</ele>
        <time>2011-02-12T13:18:54Z</time>
      </trkpt>
      <trkpt lat="46.97597" lon="5.89103">
        <ele>804.2802734</ele>
        <time>2011-02-12T13:18:59Z</time>
      </trkpt>
      <trkpt lat="46.97608" lon="5.89117">
        <ele>804.7607422</ele>
        <time>2011-02-12T13:19:04Z</time>
      </trkpt>
      <trkpt lat="46.97616" lon="5.89124">
        <ele>803.7995605</ele>
        <time>2011-02-12T13:19:08Z</time>
      </trkpt>
      <trkpt lat="46.97627" lon="5.8913">
        <ele>803.7995605</ele>
        <time>2011-02-12T13:19:13Z</time>
      </trkpt>
      <trkpt lat="46.97638" lon="5.89138">
        <ele>802.8381348</ele>
        <time>2011-02-12T13:19:18Z</time>
      </trkpt>
      <trkpt lat="46.97641" lon="5.89142">
        <ele>802.3574219</ele>
        <time>2011-02-12T13:19:20Z</time>
      </trkpt>
      <trkpt lat="46.97655" lon="5.89152">
        <ele>801.8769531</ele>
        <time>2011-02-12T13:19:25Z</time>
      </trkpt>
      <trkpt lat="46.97668" lon="5.89165">
        <ele>799.4736328</ele>
        <time>2011-02-12T13:19:30Z</time>
      </trkpt>
      <trkpt lat="46.97672" lon="5.89168">
        <ele>798.0317383</ele>
        <time>2011-02-12T13:19:32Z</time>
      </trkpt>
      <trkpt lat="46.97687" lon="5.89182">
        <ele>793.7055664</ele>
        <time>2011-02-12T13:19:39Z</time>
      </trkpt>
      <trkpt lat="46.97696" lon="5.89193">
        <ele>793.2248535</ele>
        <time>2011-02-12T13:19:44Z</time>
      </trkpt>
      <trkpt lat="46.97705" lon="5.89204">
        <ele>793.2248535</ele>
        <time>2011-02-12T13:19:49Z</time>
      </trkpt>
      <trkpt lat="46.97712" lon="5.89213">
        <ele>792.7443848</ele>
        <time>2011-02-12T13:19:52Z</time>
      </trkpt>
      <trkpt lat="46.9772" lon="5.89225">
        <ele>792.7443848</ele>
        <time>2011-02-12T13:19:57Z</time>
      </trkpt>
      <trkpt lat="46.97731" lon="5.89238">
        <ele>792.2636719</ele>
        <time>2011-02-12T13:20:02Z</time>
      </trkpt>
      <trkpt lat="46.9774" lon="5.89251">
        <ele>792.2636719</ele>
        <time>2011-02-12T13:20:06Z</time>
      </trkpt>
      <trkpt lat="46.9775" lon="5.89267">
        <ele>792.2636719</ele>
        <time>2011-02-12T13:20:11Z</time>
      </trkpt>
      <trkpt lat="46.97758" lon="5.89277">
        <ele>794.666748</ele>
        <time>2011-02-12T13:20:15Z</time>
      </trkpt>
      <trkpt lat="46.97764" lon="5.89285">
        <ele>793.2248535</ele>
        <time>2011-02-12T13:20:19Z</time>
      </trkpt>
      <trkpt lat="46.9777" lon="5.89294">
        <ele>792.2636719</ele>
        <time>2011-02-12T13:20:23Z</time>
      </trkpt>
      <trkpt lat="46.97786" lon="5.89315">
        <ele>792.7443848</ele>
        <time>2011-02-12T13:20:30Z</time>
      </trkpt>
      <trkpt lat="46.97794" lon="5.89327">
        <ele>790.3410645</ele>
        <time>2011-02-12T13:20:34Z</time>
      </trkpt>
      <trkpt lat="46.97804" lon="5.89343">
        <ele>786.4958496</ele>
        <time>2011-02-12T13:20:40Z</time>
      </trkpt>
      <trkpt lat="46.9781" lon="5.89352">
        <ele>786.0151367</ele>
        <time>2011-02-12T13:20:43Z</time>
      </trkpt>
      <trkpt lat="46.97817" lon="5.89368">
        <ele>783.6118164</ele>
        <time>2011-02-12T13:20:48Z</time>
      </trkpt>
      <trkpt lat="46.97828" lon="5.89384">
        <ele>783.6118164</ele>
        <time>2011-02-12T13:20:54Z</time>
      </trkpt>
      <trkpt lat="46.97838" lon="5.89401">
        <ele>781.2087402</ele>
        <time>2011-02-12T13:21:00Z</time>
      </trkpt>
      <trkpt lat="46.97841" lon="5.8942">
        <ele>778.8051758</ele>
        <time>2011-02-12T13:21:05Z</time>
      </trkpt>
      <trkpt lat="46.97846" lon="5.89434">
        <ele>777.84375</ele>
        <time>2011-02-12T13:21:09Z</time>
      </trkpt>
      <trkpt lat="46.97845" lon="5.89451">
        <ele>774.9599609</ele>
        <time>2011-02-12T13:21:14Z</time>
      </trkpt>
      <trkpt lat="46.97849" lon="5.89465">
        <ele>773.0373535</ele>
        <time>2011-02-12T13:21:19Z</time>
      </trkpt>
      <trkpt lat="46.97853" lon="5.89477">
        <ele>771.5952148</ele>
        <time>2011-02-12T13:21:23Z</time>
      </trkpt>
      <trkpt lat="46.97854" lon="5.89479">
        <ele>771.1147461</ele>
        <time>2011-02-12T13:21:24Z</time>
      </trkpt>
      <trkpt lat="46.97866" lon="5.89502">
        <ele>765.8276367</ele>
        <time>2011-02-12T13:21:31Z</time>
      </trkpt>
      <trkpt lat="46.97867" lon="5.89505">
        <ele>764.8662109</ele>
        <time>2011-02-12T13:21:32Z</time>
      </trkpt>
      <trkpt lat="46.97867" lon="5.89525">
        <ele>760.5400391</ele>
        <time>2011-02-12T13:21:38Z</time>
      </trkpt>
      <trkpt lat="46.97868" lon="5.89533">
        <ele>759.0981445</ele>
        <time>2011-02-12T13:21:41Z</time>
      </trkpt>
      <trkpt lat="46.97871" lon="5.89543">
        <ele>756.6948242</ele>
        <time>2011-02-12T13:21:44Z</time>
      </trkpt>
      <trkpt lat="46.97879" lon="5.89559">
        <ele>753.8110352</ele>
        <time>2011-02-12T13:21:49Z</time>
      </trkpt>
      <trkpt lat="46.97888" lon="5.8957">
        <ele>749.9658203</ele>
        <time>2011-02-12T13:21:55Z</time>
      </trkpt>
      <trkpt lat="46.9789" lon="5.89575">
        <ele>748.5236816</ele>
        <time>2011-02-12T13:21:59Z</time>
      </trkpt>
      <trkpt lat="46.97888" lon="5.89574">
        <ele>749.9658203</ele>
        <time>2011-02-12T13:22:03Z</time>
      </trkpt>
      <trkpt lat="46.97884" lon="5.89576">
        <ele>753.3303223</ele>
        <time>2011-02-12T13:22:10Z</time>
      </trkpt>
      <trkpt lat="46.97887" lon="5.89576">
        <ele>750.927002</ele>
        <time>2011-02-12T13:22:14Z</time>
      </trkpt>
      <trkpt lat="46.97898" lon="5.89577">
        <ele>748.5236816</ele>
        <time>2011-02-12T13:22:20Z</time>
      </trkpt>
      <trkpt lat="46.97908" lon="5.89575">
        <ele>743.717041</ele>
        <time>2011-02-12T13:22:25Z</time>
      </trkpt>
      <trkpt lat="46.97917" lon="5.89576">
        <ele>740.8330078</ele>
        <time>2011-02-12T13:22:29Z</time>
      </trkpt>
      <trkpt lat="46.9793" lon="5.89575">
        <ele>737.9492188</ele>
        <time>2011-02-12T13:22:33Z</time>
      </trkpt>
      <trkpt lat="46.97942" lon="5.89572">
        <ele>738.4299316</ele>
        <time>2011-02-12T13:22:37Z</time>
      </trkpt>
      <trkpt lat="46.97944" lon="5.89571">
        <ele>737.9492188</ele>
        <time>2011-02-12T13:22:38Z</time>
      </trkpt>
      <trkpt lat="46.97951" lon="5.89569">
        <ele>735.0654297</ele>
        <time>2011-02-12T13:22:42Z</time>
      </trkpt>
      <trkpt lat="46.97968" lon="5.89563">
        <ele>730.7392578</ele>
        <time>2011-02-12T13:22:49Z</time>
      </trkpt>
      <trkpt lat="46.9798" lon="5.89561">
        <ele>730.2585449</ele>
        <time>2011-02-12T13:22:54Z</time>
      </trkpt>
      <trkpt lat="46.97994" lon="5.89559">
        <ele>726.894043</ele>
        <time>2011-02-12T13:23:01Z</time>
      </trkpt>
      <trkpt lat="46.97996" lon="5.89558">
        <ele>726.4133301</ele>
        <time>2011-02-12T13:23:02Z</time>
      </trkpt>
      <trkpt lat="46.98008" lon="5.89557">
        <ele>723.529541</ele>
        <time>2011-02-12T13:23:07Z</time>
      </trkpt>
      <trkpt lat="46.98016" lon="5.89555">
        <ele>721.6066895</ele>
        <time>2011-02-12T13:23:10Z</time>
      </trkpt>
      <trkpt lat="46.98032" lon="5.89554">
        <ele>719.2036133</ele>
        <time>2011-02-12T13:23:15Z</time>
      </trkpt>
      <trkpt lat="46.98048" lon="5.89552">
        <ele>715.8388672</ele>
        <time>2011-02-12T13:23:20Z</time>
      </trkpt>
      <trkpt lat="46.98055" lon="5.89547">
        <ele>713.9160156</ele>
        <time>2011-02-12T13:23:22Z</time>
      </trkpt>
      <trkpt lat="46.98068" lon="5.89542">
        <ele>711.0322266</ele>
        <time>2011-02-12T13:23:26Z</time>
      </trkpt>
      <trkpt lat="46.98077" lon="5.89542">
        <ele>707.1870117</ele>
        <time>2011-02-12T13:23:30Z</time>
      </trkpt>
      <trkpt lat="46.98086" lon="5.89547">
        <ele>705.2644043</ele>
        <time>2011-02-12T13:23:33Z</time>
      </trkpt>
      <trkpt lat="46.98097" lon="5.89559">
        <ele>705.2644043</ele>
        <time>2011-02-12T13:23:37Z</time>
      </trkpt>
      <trkpt lat="46.98114" lon="5.89576">
        <ele>704.3032227</ele>
        <time>2011-02-12T13:23:43Z</time>
      </trkpt>
      <trkpt lat="46.98123" lon="5.89584">
        <ele>705.7451172</ele>
        <time>2011-02-12T13:23:46Z</time>
      </trkpt>
      <trkpt lat="46.98132" lon="5.89603">
        <ele>706.7062988</ele>
        <time>2011-02-12T13:23:51Z</time>
      </trkpt>
      <trkpt lat="46.98135" lon="5.89623">
        <ele>706.2255859</ele>
        <time>2011-02-12T13:23:56Z</time>
      </trkpt>
      <trkpt lat="46.9813" lon="5.89644">
        <ele>703.8225098</ele>
        <time>2011-02-12T13:24:01Z</time>
      </trkpt>
      <trkpt lat="46.98126" lon="5.89665">
        <ele>703.8225098</ele>
        <time>2011-02-12T13:24:05Z</time>
      </trkpt>
      <trkpt lat="46.98123" lon="5.89689">
        <ele>702.861084</ele>
        <time>2011-02-12T13:24:11Z</time>
      </trkpt>
      <trkpt lat="46.98124" lon="5.89712">
        <ele>703.8225098</ele>
        <time>2011-02-12T13:24:16Z</time>
      </trkpt>
      <trkpt lat="46.98126" lon="5.89738">
        <ele>702.861084</ele>
        <time>2011-02-12T13:24:21Z</time>
      </trkpt>
      <trkpt lat="46.98131" lon="5.89759">
        <ele>700.9384766</ele>
        <time>2011-02-12T13:24:25Z</time>
      </trkpt>
      <trkpt lat="46.98132" lon="5.89764">
        <ele>700.4580078</ele>
        <time>2011-02-12T13:24:26Z</time>
      </trkpt>
      <trkpt lat="46.98141" lon="5.89789">
        <ele>695.651123</ele>
        <time>2011-02-12T13:24:33Z</time>
      </trkpt>
      <trkpt lat="46.98143" lon="5.89798">
        <ele>694.6896973</ele>
        <time>2011-02-12T13:24:38Z</time>
      </trkpt>
      <trkpt lat="46.9814" lon="5.89803">
        <ele>698.0544434</ele>
        <time>2011-02-12T13:24:53Z</time>
      </trkpt>
      <trkpt lat="46.9814" lon="5.89805">
        <ele>700.4580078</ele>
        <time>2011-02-12T13:25:07Z</time>
      </trkpt>
      <trkpt lat="46.98139" lon="5.89806">
        <ele>701.8999023</ele>
        <time>2011-02-12T13:25:16Z</time>
      </trkpt>
      <trkpt lat="46.98138" lon="5.89811">
        <ele>702.861084</ele>
        <time>2011-02-12T13:25:20Z</time>
      </trkpt>
      <trkpt lat="46.98141" lon="5.8982">
        <ele>698.5349121</ele>
        <time>2011-02-12T13:25:26Z</time>
      </trkpt>
      <trkpt lat="46.98141" lon="5.89831">
        <ele>695.651123</ele>
        <time>2011-02-12T13:25:30Z</time>
      </trkpt>
      <trkpt lat="46.98135" lon="5.89857">
        <ele>691.3251953</ele>
        <time>2011-02-12T13:25:37Z</time>
      </trkpt>
      <trkpt lat="46.98132" lon="5.89879">
        <ele>690.8444824</ele>
        <time>2011-02-12T13:25:42Z</time>
      </trkpt>
      <trkpt lat="46.98132" lon="5.89888">
        <ele>689.4025879</ele>
        <time>2011-02-12T13:25:45Z</time>
      </trkpt>
      <trkpt lat="46.98127" lon="5.89912">
        <ele>686.0380859</ele>
        <time>2011-02-12T13:25:50Z</time>
      </trkpt>
      <trkpt lat="46.98124" lon="5.89934">
        <ele>683.6345215</ele>
        <time>2011-02-12T13:25:54Z</time>
      </trkpt>
      <trkpt lat="46.98117" lon="5.89964">
        <ele>682.192627</ele>
        <time>2011-02-12T13:26:00Z</time>
      </trkpt>
      <trkpt lat="46.9811" lon="5.89989">
        <ele>681.2314453</ele>
        <time>2011-02-12T13:26:06Z</time>
      </trkpt>
      <trkpt lat="46.98105" lon="5.90008">
        <ele>680.7507324</ele>
        <time>2011-02-12T13:26:10Z</time>
      </trkpt>
      <trkpt lat="46.98099" lon="5.90028">
        <ele>679.7893066</ele>
        <time>2011-02-12T13:26:15Z</time>
      </trkpt>
      <trkpt lat="46.98095" lon="5.90046">
        <ele>676.9055176</ele>
        <time>2011-02-12T13:26:20Z</time>
      </trkpt>
      <trkpt lat="46.9809" lon="5.90065">
        <ele>674.9829102</ele>
        <time>2011-02-12T13:26:25Z</time>
      </trkpt>
      <trkpt lat="46.98085" lon="5.90085">
        <ele>670.1762695</ele>
        <time>2011-02-12T13:26:30Z</time>
      </trkpt>
      <trkpt lat="46.98083" lon="5.90096">
        <ele>670.1762695</ele>
        <time>2011-02-12T13:26:33Z</time>
      </trkpt>
      <trkpt lat="46.9808" lon="5.90117">
        <ele>667.2922363</ele>
        <time>2011-02-12T13:26:38Z</time>
      </trkpt>
      <trkpt lat="46.98079" lon="5.90121">
        <ele>666.8115234</ele>
        <time>2011-02-12T13:26:39Z</time>
      </trkpt>
      <trkpt lat="46.98072" lon="5.90141">
        <ele>665.8503418</ele>
        <time>2011-02-12T13:26:44Z</time>
      </trkpt>
      <trkpt lat="46.98071" lon="5.90145">
        <ele>665.8503418</ele>
        <time>2011-02-12T13:26:45Z</time>
      </trkpt>
      <trkpt lat="46.98061" lon="5.90152">
        <ele>665.3696289</ele>
        <time>2011-02-12T13:26:50Z</time>
      </trkpt>
      <trkpt lat="46.98052" lon="5.90147">
        <ele>666.8115234</ele>
        <time>2011-02-12T13:26:55Z</time>
      </trkpt>
      <trkpt lat="46.98049" lon="5.90143">
        <ele>665.8503418</ele>
        <time>2011-02-12T13:26:57Z</time>
      </trkpt>
      <trkpt lat="46.98043" lon="5.90133">
        <ele>664.4082031</ele>
        <time>2011-02-12T13:27:03Z</time>
      </trkpt>
      <trkpt lat="46.98039" lon="5.90125">
        <ele>663.9274902</ele>
        <time>2011-02-12T13:27:08Z</time>
      </trkpt>
      <trkpt lat="46.98035" lon="5.90118">
        <ele>663.4470215</ele>
        <time>2011-02-12T13:27:13Z</time>
      </trkpt>
      <trkpt lat="46.98027" lon="5.90113">
        <ele>667.7727051</ele>
        <time>2011-02-12T13:27:19Z</time>
      </trkpt>
      <trkpt lat="46.98025" lon="5.90112">
        <ele>668.2536621</ele>
        <time>2011-02-12T13:27:20Z</time>
      </trkpt>
      <trkpt lat="46.98014" lon="5.90104">
        <ele>670.1762695</ele>
        <time>2011-02-12T13:27:28Z</time>
      </trkpt>
      <trkpt lat="46.98012" lon="5.90104">
        <ele>670.1762695</ele>
        <time>2011-02-12T13:27:29Z</time>
      </trkpt>
      <trkpt lat="46.98006" lon="5.90095">
        <ele>669.2150879</ele>
        <time>2011-02-12T13:27:34Z</time>
      </trkpt>
      <trkpt lat="46.98004" lon="5.90092">
        <ele>668.2536621</ele>
        <time>2011-02-12T13:27:36Z</time>
      </trkpt>
      <trkpt lat="46.97994" lon="5.90083">
        <ele>669.6958008</ele>
        <time>2011-02-12T13:27:41Z</time>
      </trkpt>
      <trkpt lat="46.97992" lon="5.90081">
        <ele>670.1762695</ele>
        <time>2011-02-12T13:27:42Z</time>
      </trkpt>
      <trkpt lat="46.97984" lon="5.9007">
        <ele>669.6958008</ele>
        <time>2011-02-12T13:27:47Z</time>
      </trkpt>
      <trkpt lat="46.97976" lon="5.90061">
        <ele>669.6958008</ele>
        <time>2011-02-12T13:27:52Z</time>
      </trkpt>
      <trkpt lat="46.97974" lon="5.90059">
        <ele>669.6958008</ele>
        <time>2011-02-12T13:27:53Z</time>
      </trkpt>
      <trkpt lat="46.97967" lon="5.9005">
        <ele>668.734375</ele>
        <time>2011-02-12T13:27:57Z</time>
      </trkpt>
      <trkpt lat="46.97959" lon="5.9004">
        <ele>666.3308105</ele>
        <time>2011-02-12T13:28:02Z</time>
      </trkpt>
      <trkpt lat="46.97953" lon="5.90029">
        <ele>664.4082031</ele>
        <time>2011-02-12T13:28:08Z</time>
      </trkpt>
      <trkpt lat="46.97952" lon="5.9003">
        <ele>667.2922363</ele>
        <time>2011-02-12T13:28:13Z</time>
      </trkpt>
      <trkpt lat="46.97948" lon="5.90026">
        <ele>665.8503418</ele>
        <time>2011-02-12T13:28:18Z</time>
      </trkpt>
      <trkpt lat="46.97944" lon="5.90022">
        <ele>664.4082031</ele>
        <time>2011-02-12T13:28:22Z</time>
      </trkpt>
      <trkpt lat="46.97941" lon="5.90018">
        <ele>665.8503418</ele>
        <time>2011-02-12T13:28:25Z</time>
      </trkpt>
      <trkpt lat="46.97937" lon="5.90008">
        <ele>664.888916</ele>
        <time>2011-02-12T13:28:31Z</time>
      </trkpt>
      <trkpt lat="46.97934" lon="5.90006">
        <ele>664.4082031</ele>
        <time>2011-02-12T13:28:33Z</time>
      </trkpt>
      <trkpt lat="46.9793" lon="5.90003">
        <ele>663.9274902</ele>
        <time>2011-02-12T13:28:37Z</time>
      </trkpt>
      <trkpt lat="46.97925" lon="5.9">
        <ele>664.888916</ele>
        <time>2011-02-12T13:28:44Z</time>
      </trkpt>
      <trkpt lat="46.97925" lon="5.89999">
        <ele>667.2922363</ele>
        <time>2011-02-12T13:28:50Z</time>
      </trkpt>
      <trkpt lat="46.97924" lon="5.89998">
        <ele>667.2922363</ele>
        <time>2011-02-12T13:28:55Z</time>
      </trkpt>
      <trkpt lat="46.97923" lon="5.90001">
        <ele>666.8115234</ele>
        <time>2011-02-12T13:29:12Z</time>
      </trkpt>
      <trkpt lat="46.97924" lon="5.90004">
        <ele>667.2922363</ele>
        <time>2011-02-12T13:29:16Z</time>
      </trkpt>
      <trkpt lat="46.97925" lon="5.9001">
        <ele>667.7727051</ele>
        <time>2011-02-12T13:29:21Z</time>
      </trkpt>
      <trkpt lat="46.97926" lon="5.90018">
        <ele>665.8503418</ele>
        <time>2011-02-12T13:29:26Z</time>
      </trkpt>
      <trkpt lat="46.97926" lon="5.9002">
        <ele>665.3696289</ele>
        <time>2011-02-12T13:29:28Z</time>
      </trkpt>
      <trkpt lat="46.97927" lon="5.90024">
        <ele>664.4082031</ele>
        <time>2011-02-12T13:29:30Z</time>
      </trkpt>
      <trkpt lat="46.97925" lon="5.90035">
        <ele>664.4082031</ele>
        <time>2011-02-12T13:29:36Z</time>
      </trkpt>
      <trkpt lat="46.97925" lon="5.90039">
        <ele>664.888916</ele>
        <time>2011-02-12T13:29:38Z</time>
      </trkpt>
      <trkpt lat="46.97926" lon="5.90046">
        <ele>666.3308105</ele>
        <time>2011-02-12T13:29:41Z</time>
      </trkpt>
      <trkpt lat="46.97926" lon="5.9005">
        <ele>666.3308105</ele>
        <time>2011-02-12T13:29:43Z</time>
      </trkpt>
      <trkpt lat="46.97928" lon="5.9006">
        <ele>667.2922363</ele>
        <time>2011-02-12T13:29:48Z</time>
      </trkpt>
      <trkpt lat="46.97928" lon="5.9008">
        <ele>667.7727051</ele>
        <time>2011-02-12T13:29:55Z</time>
      </trkpt>
      <trkpt lat="46.97927" lon="5.90093">
        <ele>666.8115234</ele>
        <time>2011-02-12T13:30:00Z</time>
      </trkpt>
      <trkpt lat="46.97929" lon="5.90107">
        <ele>665.8503418</ele>
        <time>2011-02-12T13:30:05Z</time>
      </trkpt>
      <trkpt lat="46.97928" lon="5.90118">
        <ele>664.888916</ele>
        <time>2011-02-12T13:30:10Z</time>
      </trkpt>
      <trkpt lat="46.97932" lon="5.90134">
        <ele>661.5244141</ele>
        <time>2011-02-12T13:30:17Z</time>
      </trkpt>
      <trkpt lat="46.97932" lon="5.90141">
        <ele>660.5629883</ele>
        <time>2011-02-12T13:30:21Z</time>
      </trkpt>
      <trkpt lat="46.97932" lon="5.90152">
        <ele>660.5629883</ele>
        <time>2011-02-12T13:30:27Z</time>
      </trkpt>
      <trkpt lat="46.97932" lon="5.90155">
        <ele>658.6403809</ele>
        <time>2011-02-12T13:30:32Z</time>
      </trkpt>
      <trkpt lat="46.97931" lon="5.90155">
        <ele>658.1599121</ele>
        <time>2011-02-12T13:30:33Z</time>
      </trkpt>
      <trkpt lat="46.97931" lon="5.90158">
        <ele>658.6403809</ele>
        <time>2011-02-12T13:30:38Z</time>
      </trkpt>
      <trkpt lat="46.97932" lon="5.90165">
        <ele>658.1599121</ele>
        <time>2011-02-12T13:30:43Z</time>
      </trkpt>
      <trkpt lat="46.97932" lon="5.90167">
        <ele>658.6403809</ele>
        <time>2011-02-12T13:30:44Z</time>
      </trkpt>
      <trkpt lat="46.97932" lon="5.90175">
        <ele>656.7177734</ele>
        <time>2011-02-12T13:30:50Z</time>
      </trkpt>
      <trkpt lat="46.97932" lon="5.90176">
        <ele>657.1984863</ele>
        <time>2011-02-12T13:30:51Z</time>
      </trkpt>
      <trkpt lat="46.97931" lon="5.90181">
        <ele>655.7565918</ele>
        <time>2011-02-12T13:30:54Z</time>
      </trkpt>
      <trkpt lat="46.9793" lon="5.90195">
        <ele>652.8725586</ele>
        <time>2011-02-12T13:31:00Z</time>
      </trkpt>
      <trkpt lat="46.97932" lon="5.90207">
        <ele>648.5463867</ele>
        <time>2011-02-12T13:31:06Z</time>
      </trkpt>
      <trkpt lat="46.97934" lon="5.90217">
        <ele>646.6240234</ele>
        <time>2011-02-12T13:31:10Z</time>
      </trkpt>
      <trkpt lat="46.97933" lon="5.90229">
        <ele>644.2207031</ele>
        <time>2011-02-12T13:31:15Z</time>
      </trkpt>
      <trkpt lat="46.97933" lon="5.90237">
        <ele>641.3366699</ele>
        <time>2011-02-12T13:31:19Z</time>
      </trkpt>
      <trkpt lat="46.97932" lon="5.90244">
        <ele>640.3754883</ele>
        <time>2011-02-12T13:31:22Z</time>
      </trkpt>
      <trkpt lat="46.97932" lon="5.90263">
        <ele>635.0881348</ele>
        <time>2011-02-12T13:31:29Z</time>
      </trkpt>
      <trkpt lat="46.97933" lon="5.90268">
        <ele>633.1652832</ele>
        <time>2011-02-12T13:31:31Z</time>
      </trkpt>
      <trkpt lat="46.97934" lon="5.90271">
        <ele>631.2429199</ele>
        <time>2011-02-12T13:31:33Z</time>
      </trkpt>
      <trkpt lat="46.97933" lon="5.90282">
        <ele>627.3977051</ele>
        <time>2011-02-12T13:31:37Z</time>
      </trkpt>
      <trkpt lat="46.97926" lon="5.90284">
        <ele>624.9943848</ele>
        <time>2011-02-12T13:31:42Z</time>
      </trkpt>
      <trkpt lat="46.97922" lon="5.90281">
        <ele>623.5524902</ele>
        <time>2011-02-12T13:31:45Z</time>
      </trkpt>
      <trkpt lat="46.97909" lon="5.90279">
        <ele>620.668457</ele>
        <time>2011-02-12T13:31:51Z</time>
      </trkpt>
      <trkpt lat="46.97895" lon="5.90272">
        <ele>616.3422852</ele>
        <time>2011-02-12T13:31:57Z</time>
      </trkpt>
      <trkpt lat="46.97893" lon="5.90271">
        <ele>615.3811035</ele>
        <time>2011-02-12T13:31:58Z</time>
      </trkpt>
      <trkpt lat="46.97879" lon="5.90272">
        <ele>614.9003906</ele>
        <time>2011-02-12T13:32:03Z</time>
      </trkpt>
      <trkpt lat="46.97877" lon="5.90271">
        <ele>615.3811035</ele>
        <time>2011-02-12T13:32:04Z</time>
      </trkpt>
      <trkpt lat="46.97864" lon="5.90268">
        <ele>612.0166016</ele>
        <time>2011-02-12T13:32:09Z</time>
      </trkpt>
      <trkpt lat="46.97851" lon="5.90255">
        <ele>611.5358887</ele>
        <time>2011-02-12T13:32:15Z</time>
      </trkpt>
      <trkpt lat="46.97837" lon="5.90247">
        <ele>608.1713867</ele>
        <time>2011-02-12T13:32:21Z</time>
      </trkpt>
      <trkpt lat="46.97832" lon="5.90245">
        <ele>606.729248</ele>
        <time>2011-02-12T13:32:23Z</time>
      </trkpt>
      <trkpt lat="46.97819" lon="5.90245">
        <ele>603.8452148</ele>
        <time>2011-02-12T13:32:28Z</time>
      </trkpt>
      <trkpt lat="46.97804" lon="5.90243">
        <ele>604.3261719</ele>
        <time>2011-02-12T13:32:33Z</time>
      </trkpt>
      <trkpt lat="46.9779" lon="5.90243">
        <ele>602.8837891</ele>
        <time>2011-02-12T13:32:38Z</time>
      </trkpt>
      <trkpt lat="46.97778" lon="5.90239">
        <ele>600.4807129</ele>
        <time>2011-02-12T13:32:43Z</time>
      </trkpt>
      <trkpt lat="46.97768" lon="5.90239">
        <ele>598.0773926</ele>
        <time>2011-02-12T13:32:47Z</time>
      </trkpt>
      <trkpt lat="46.97757" lon="5.90235">
        <ele>596.1547852</ele>
        <time>2011-02-12T13:32:51Z</time>
      </trkpt>
      <trkpt lat="46.97749" lon="5.90228">
        <ele>595.1933594</ele>
        <time>2011-02-12T13:32:54Z</time>
      </trkpt>
      <trkpt lat="46.97741" lon="5.90223">
        <ele>592.3095703</ele>
        <time>2011-02-12T13:32:59Z</time>
      </trkpt>
      <trkpt lat="46.97739" lon="5.90224">
        <ele>594.7126465</ele>
        <time>2011-02-12T13:33:02Z</time>
      </trkpt>
      <trkpt lat="46.9773" lon="5.90226">
        <ele>600.9611816</ele>
        <time>2011-02-12T13:33:07Z</time>
      </trkpt>
      <trkpt lat="46.97724" lon="5.90221">
        <ele>600.9611816</ele>
        <time>2011-02-12T13:33:12Z</time>
      </trkpt>
      <trkpt lat="46.97715" lon="5.90212">
        <ele>598.5578613</ele>
        <time>2011-02-12T13:33:20Z</time>
      </trkpt>
      <trkpt lat="46.9771" lon="5.90211">
        <ele>597.5966797</ele>
        <time>2011-02-12T13:33:24Z</time>
      </trkpt>
      <trkpt lat="46.97703" lon="5.90206">
        <ele>596.1547852</ele>
        <time>2011-02-12T13:33:30Z</time>
      </trkpt>
      <trkpt lat="46.97697" lon="5.90192">
        <ele>591.8288574</ele>
        <time>2011-02-12T13:33:39Z</time>
      </trkpt>
      <trkpt lat="46.97696" lon="5.90191">
        <ele>591.8288574</ele>
        <time>2011-02-12T13:33:40Z</time>
      </trkpt>
      <trkpt lat="46.97689" lon="5.90186">
        <ele>591.8288574</ele>
        <time>2011-02-12T13:33:47Z</time>
      </trkpt>
      <trkpt lat="46.9768" lon="5.90184">
        <ele>592.3095703</ele>
        <time>2011-02-12T13:33:52Z</time>
      </trkpt>
      <trkpt lat="46.97679" lon="5.90184">
        <ele>592.3095703</ele>
        <time>2011-02-12T13:33:53Z</time>
      </trkpt>
      <trkpt lat="46.97671" lon="5.9018">
        <ele>591.3481445</ele>
        <time>2011-02-12T13:33:59Z</time>
      </trkpt>
      <trkpt lat="46.9767" lon="5.90179">
        <ele>591.3481445</ele>
        <time>2011-02-12T13:34:00Z</time>
      </trkpt>
      <trkpt lat="46.97666" lon="5.90175">
        <ele>589.90625</ele>
        <time>2011-02-12T13:34:04Z</time>
      </trkpt>
      <trkpt lat="46.97655" lon="5.90168">
        <ele>591.3481445</ele>
        <time>2011-02-12T13:34:11Z</time>
      </trkpt>
      <trkpt lat="46.97648" lon="5.90159">
        <ele>590.8674316</ele>
        <time>2011-02-12T13:34:16Z</time>
      </trkpt>
      <trkpt lat="46.9764" lon="5.90151">
        <ele>589.90625</ele>
        <time>2011-02-12T13:34:23Z</time>
      </trkpt>
      <trkpt lat="46.97633" lon="5.90142">
        <ele>590.8674316</ele>
        <time>2011-02-12T13:34:30Z</time>
      </trkpt>
      <trkpt lat="46.97624" lon="5.90134">
        <ele>590.8674316</ele>
        <time>2011-02-12T13:34:36Z</time>
      </trkpt>
      <trkpt lat="46.97621" lon="5.9013">
        <ele>590.8674316</ele>
        <time>2011-02-12T13:34:39Z</time>
      </trkpt>
      <trkpt lat="46.9762" lon="5.90129">
        <ele>590.3869629</ele>
        <time>2011-02-12T13:34:41Z</time>
      </trkpt>
      <trkpt lat="46.97616" lon="5.90125">
        <ele>588.4643555</ele>
        <time>2011-02-12T13:34:45Z</time>
      </trkpt>
      <trkpt lat="46.97615" lon="5.90121">
        <ele>587.5026855</ele>
        <time>2011-02-12T13:34:47Z</time>
      </trkpt>
      <trkpt lat="46.97613" lon="5.9012">
        <ele>587.5026855</ele>
        <time>2011-02-12T13:34:49Z</time>
      </trkpt>
      <trkpt lat="46.97608" lon="5.90117">
        <ele>587.5026855</ele>
        <time>2011-02-12T13:34:56Z</time>
      </trkpt>
      <trkpt lat="46.97605" lon="5.90115">
        <ele>586.060791</ele>
        <time>2011-02-12T13:34:59Z</time>
      </trkpt>
      <trkpt lat="46.976" lon="5.90111">
        <ele>584.6188965</ele>
        <time>2011-02-12T13:35:02Z</time>
      </trkpt>
      <trkpt lat="46.97597" lon="5.90101">
        <ele>583.1767578</ele>
        <time>2011-02-12T13:35:07Z</time>
      </trkpt>
      <trkpt lat="46.97592" lon="5.90093">
        <ele>585.0996094</ele>
        <time>2011-02-12T13:35:12Z</time>
      </trkpt>
      <trkpt lat="46.97589" lon="5.90084">
        <ele>589.90625</ele>
        <time>2011-02-12T13:35:17Z</time>
      </trkpt>
      <trkpt lat="46.97587" lon="5.90078">
        <ele>592.3095703</ele>
        <time>2011-02-12T13:35:21Z</time>
      </trkpt>
      <trkpt lat="46.97586" lon="5.90076">
        <ele>591.3481445</ele>
        <time>2011-02-12T13:35:23Z</time>
      </trkpt>
      <trkpt lat="46.97586" lon="5.90073">
        <ele>589.90625</ele>
        <time>2011-02-12T13:35:25Z</time>
      </trkpt>
      <trkpt lat="46.97582" lon="5.90071">
        <ele>592.3095703</ele>
        <time>2011-02-12T13:35:29Z</time>
      </trkpt>
      <trkpt lat="46.97581" lon="5.9006">
        <ele>589.4255371</ele>
        <time>2011-02-12T13:35:37Z</time>
      </trkpt>
      <trkpt lat="46.97577" lon="5.9005">
        <ele>583.6574707</ele>
        <time>2011-02-12T13:35:44Z</time>
      </trkpt>
      <trkpt lat="46.97576" lon="5.90045">
        <ele>582.6962891</ele>
        <time>2011-02-12T13:35:47Z</time>
      </trkpt>
      <trkpt lat="46.97575" lon="5.90037">
        <ele>585.5800781</ele>
        <time>2011-02-12T13:35:53Z</time>
      </trkpt>
      <trkpt lat="46.97566" lon="5.9003">
        <ele>587.9833984</ele>
        <time>2011-02-12T13:36:00Z</time>
      </trkpt>
      <trkpt lat="46.97563" lon="5.90029">
        <ele>588.4643555</ele>
        <time>2011-02-12T13:36:02Z</time>
      </trkpt>
      <trkpt lat="46.97559" lon="5.90032">
        <ele>588.9450684</ele>
        <time>2011-02-12T13:36:05Z</time>
      </trkpt>
      <trkpt lat="46.97557" lon="5.9004">
        <ele>587.9833984</ele>
        <time>2011-02-12T13:36:11Z</time>
      </trkpt>
      <trkpt lat="46.9755" lon="5.90057">
        <ele>588.4643555</ele>
        <time>2011-02-12T13:36:17Z</time>
      </trkpt>
      <trkpt lat="46.97549" lon="5.90067">
        <ele>586.060791</ele>
        <time>2011-02-12T13:36:21Z</time>
      </trkpt>
      <trkpt lat="46.9755" lon="5.90088">
        <ele>584.1381836</ele>
        <time>2011-02-12T13:36:28Z</time>
      </trkpt>
      <trkpt lat="46.97552" lon="5.90103">
        <ele>581.2543945</ele>
        <time>2011-02-12T13:36:33Z</time>
      </trkpt>
      <trkpt lat="46.97552" lon="5.90114">
        <ele>578.8510742</ele>
        <time>2011-02-12T13:36:37Z</time>
      </trkpt>
      <trkpt lat="46.97548" lon="5.90134">
        <ele>577.4091797</ele>
        <time>2011-02-12T13:36:43Z</time>
      </trkpt>
      <trkpt lat="46.97542" lon="5.90151">
        <ele>577.4091797</ele>
        <time>2011-02-12T13:36:48Z</time>
      </trkpt>
      <trkpt lat="46.97541" lon="5.90165">
        <ele>577.4091797</ele>
        <time>2011-02-12T13:36:53Z</time>
      </trkpt>
      <trkpt lat="46.97542" lon="5.90175">
        <ele>578.3703613</ele>
        <time>2011-02-12T13:36:57Z</time>
      </trkpt>
      <trkpt lat="46.97542" lon="5.90191">
        <ele>577.4091797</ele>
        <time>2011-02-12T13:37:03Z</time>
      </trkpt>
      <trkpt lat="46.97542" lon="5.90202">
        <ele>576.4477539</ele>
        <time>2011-02-12T13:37:07Z</time>
      </trkpt>
      <trkpt lat="46.97541" lon="5.90213">
        <ele>574.0444336</ele>
        <time>2011-02-12T13:37:11Z</time>
      </trkpt>
      <trkpt lat="46.97539" lon="5.90234">
        <ele>573.083252</ele>
        <time>2011-02-12T13:37:18Z</time>
      </trkpt>
      <trkpt lat="46.97537" lon="5.90239">
        <ele>573.083252</ele>
        <time>2011-02-12T13:37:21Z</time>
      </trkpt>
      <trkpt lat="46.97535" lon="5.90247">
        <ele>573.5639648</ele>
        <time>2011-02-12T13:37:26Z</time>
      </trkpt>
      <trkpt lat="46.97536" lon="5.90254">
        <ele>572.1218262</ele>
        <time>2011-02-12T13:37:29Z</time>
      </trkpt>
      <trkpt lat="46.97538" lon="5.90272">
        <ele>568.2763672</ele>
        <time>2011-02-12T13:37:35Z</time>
      </trkpt>
      <trkpt lat="46.97539" lon="5.90286">
        <ele>564.4311523</ele>
        <time>2011-02-12T13:37:40Z</time>
      </trkpt>
      <trkpt lat="46.97539" lon="5.90295">
        <ele>561.5473633</ele>
        <time>2011-02-12T13:37:45Z</time>
      </trkpt>
      <trkpt lat="46.97538" lon="5.90303">
        <ele>560.1052246</ele>
        <time>2011-02-12T13:37:51Z</time>
      </trkpt>
      <trkpt lat="46.97538" lon="5.90305">
        <ele>559.144043</ele>
        <time>2011-02-12T13:37:56Z</time>
      </trkpt>
      <trkpt lat="46.97538" lon="5.90307">
        <ele>557.7021484</ele>
        <time>2011-02-12T13:38:02Z</time>
      </trkpt>
      <trkpt lat="46.97543" lon="5.90314">
        <ele>554.8178711</ele>
        <time>2011-02-12T13:38:08Z</time>
      </trkpt>
      <trkpt lat="46.9755" lon="5.90321">
        <ele>551.934082</ele>
        <time>2011-02-12T13:38:13Z</time>
      </trkpt>
      <trkpt lat="46.97552" lon="5.90324">
        <ele>550.9726563</ele>
        <time>2011-02-12T13:38:16Z</time>
      </trkpt>
      <trkpt lat="46.97559" lon="5.90332">
        <ele>548.5693359</ele>
        <time>2011-02-12T13:38:21Z</time>
      </trkpt>
      <trkpt lat="46.97564" lon="5.90339">
        <ele>547.1274414</ele>
        <time>2011-02-12T13:38:24Z</time>
      </trkpt>
      <trkpt lat="46.9756" lon="5.90351">
        <ele>546.6468506</ele>
        <time>2011-02-12T13:38:29Z</time>
      </trkpt>
      <trkpt lat="46.97557" lon="5.9036">
        <ele>545.204834</ele>
        <time>2011-02-12T13:38:33Z</time>
      </trkpt>
      <trkpt lat="46.97557" lon="5.90363">
        <ele>544.2436523</ele>
        <time>2011-02-12T13:38:36Z</time>
      </trkpt>
      <trkpt lat="46.97555" lon="5.90372">
        <ele>543.2821045</ele>
        <time>2011-02-12T13:38:40Z</time>
      </trkpt>
      <trkpt lat="46.97551" lon="5.90386">
        <ele>539.9176025</ele>
        <time>2011-02-12T13:38:46Z</time>
      </trkpt>
      <trkpt lat="46.97548" lon="5.90399">
        <ele>537.5142822</ele>
        <time>2011-02-12T13:38:51Z</time>
      </trkpt>
      <trkpt lat="46.97548" lon="5.90414">
        <ele>533.6689453</ele>
        <time>2011-02-12T13:38:56Z</time>
      </trkpt>
      <trkpt lat="46.97545" lon="5.90426">
        <ele>532.7077637</ele>
        <time>2011-02-12T13:39:00Z</time>
      </trkpt>
      <trkpt lat="46.97542" lon="5.90429">
        <ele>532.7077637</ele>
        <time>2011-02-12T13:39:02Z</time>
      </trkpt>
      <trkpt lat="46.97537" lon="5.90428">
        <ele>533.1883545</ele>
        <time>2011-02-12T13:39:08Z</time>
      </trkpt>
      <trkpt lat="46.97539" lon="5.9043">
        <ele>532.7077637</ele>
        <time>2011-02-12T13:39:12Z</time>
      </trkpt>
      <trkpt lat="46.97539" lon="5.90432">
        <ele>531.7463379</ele>
        <time>2011-02-12T13:39:17Z</time>
      </trkpt>
      <trkpt lat="46.97535" lon="5.90424">
        <ele>532.7077637</ele>
        <time>2011-02-12T13:39:23Z</time>
      </trkpt>
      <trkpt lat="46.97534" lon="5.90423">
        <ele>533.1883545</ele>
        <time>2011-02-12T13:39:24Z</time>
      </trkpt>
      <trkpt lat="46.97529" lon="5.90418">
        <ele>534.1496582</ele>
        <time>2011-02-12T13:39:28Z</time>
      </trkpt>
      <trkpt lat="46.97525" lon="5.90417">
        <ele>535.1109619</ele>
        <time>2011-02-12T13:39:30Z</time>
      </trkpt>
      <trkpt lat="46.9752" lon="5.90412">
        <ele>535.5915527</ele>
        <time>2011-02-12T13:39:34Z</time>
      </trkpt>
      <trkpt lat="46.97516" lon="5.90405">
        <ele>536.5531006</ele>
        <time>2011-02-12T13:39:39Z</time>
      </trkpt>
      <trkpt lat="46.97511" lon="5.904">
        <ele>537.0336914</ele>
        <time>2011-02-12T13:39:43Z</time>
      </trkpt>
      <trkpt lat="46.97506" lon="5.90388">
        <ele>537.9949951</ele>
        <time>2011-02-12T13:39:49Z</time>
      </trkpt>
      <trkpt lat="46.97503" lon="5.90384">
        <ele>538.475708</ele>
        <time>2011-02-12T13:39:53Z</time>
      </trkpt>
      <trkpt lat="46.97498" lon="5.90377">
        <ele>537.5142822</ele>
        <time>2011-02-12T13:40:02Z</time>
      </trkpt>
      <trkpt lat="46.97494" lon="5.90371">
        <ele>539.9176025</ele>
        <time>2011-02-12T13:40:09Z</time>
      </trkpt>
      <trkpt lat="46.97492" lon="5.90367">
        <ele>541.84021</ele>
        <time>2011-02-12T13:40:15Z</time>
      </trkpt>
      <trkpt lat="46.9749" lon="5.90364">
        <ele>541.84021</ele>
        <time>2011-02-12T13:40:21Z</time>
      </trkpt>
      <trkpt lat="46.97486" lon="5.90363">
        <ele>543.2821045</ele>
        <time>2011-02-12T13:40:27Z</time>
      </trkpt>
      <trkpt lat="46.97483" lon="5.90363">
        <ele>544.7242432</ele>
        <time>2011-02-12T13:40:32Z</time>
      </trkpt>
      <trkpt lat="46.97478" lon="5.90364">
        <ele>546.6468506</ele>
        <time>2011-02-12T13:40:37Z</time>
      </trkpt>
      <trkpt lat="46.97471" lon="5.90366">
        <ele>548.0888672</ele>
        <time>2011-02-12T13:40:43Z</time>
      </trkpt>
      <trkpt lat="46.97461" lon="5.90369">
        <ele>549.5307617</ele>
        <time>2011-02-12T13:40:50Z</time>
      </trkpt>
      <trkpt lat="46.97452" lon="5.9037">
        <ele>550.9726563</ele>
        <time>2011-02-12T13:40:56Z</time>
      </trkpt>
      <trkpt lat="46.97446" lon="5.90372">
        <ele>550.9726563</ele>
        <time>2011-02-12T13:41:02Z</time>
      </trkpt>
      <trkpt lat="46.97444" lon="5.90373">
        <ele>550.9726563</ele>
        <time>2011-02-12T13:41:04Z</time>
      </trkpt>
      <trkpt lat="46.97442" lon="5.90375">
        <ele>550.9726563</ele>
        <time>2011-02-12T13:41:06Z</time>
      </trkpt>
      <trkpt lat="46.97436" lon="5.90385">
        <ele>551.4533691</ele>
        <time>2011-02-12T13:41:14Z</time>
      </trkpt>
      <trkpt lat="46.97431" lon="5.90393">
        <ele>550.4921875</ele>
        <time>2011-02-12T13:41:21Z</time>
      </trkpt>
      <trkpt lat="46.97428" lon="5.90397">
        <ele>549.5307617</ele>
        <time>2011-02-12T13:41:25Z</time>
      </trkpt>
      <trkpt lat="46.97424" lon="5.90401">
        <ele>548.5693359</ele>
        <time>2011-02-12T13:41:29Z</time>
      </trkpt>
      <trkpt lat="46.97419" lon="5.90407">
        <ele>547.6081543</ele>
        <time>2011-02-12T13:41:34Z</time>
      </trkpt>
      <trkpt lat="46.97413" lon="5.90411">
        <ele>545.6855469</ele>
        <time>2011-02-12T13:41:40Z</time>
      </trkpt>
      <trkpt lat="46.97406" lon="5.90417">
        <ele>542.3209229</ele>
        <time>2011-02-12T13:41:47Z</time>
      </trkpt>
      <trkpt lat="46.97399" lon="5.90423">
        <ele>540.8789063</ele>
        <time>2011-02-12T13:41:53Z</time>
      </trkpt>
      <trkpt lat="46.9739" lon="5.9043">
        <ele>541.84021</ele>
        <time>2011-02-12T13:42:00Z</time>
      </trkpt>
      <trkpt lat="46.97377" lon="5.90442">
        <ele>542.8015137</ele>
        <time>2011-02-12T13:42:05Z</time>
      </trkpt>
      <trkpt lat="46.97362" lon="5.90452">
        <ele>544.7242432</ele>
        <time>2011-02-12T13:42:10Z</time>
      </trkpt>
      <trkpt lat="46.9735" lon="5.90457">
        <ele>547.6081543</ele>
        <time>2011-02-12T13:42:14Z</time>
      </trkpt>
      <trkpt lat="46.97339" lon="5.90461">
        <ele>548.5693359</ele>
        <time>2011-02-12T13:42:18Z</time>
      </trkpt>
      <trkpt lat="46.97322" lon="5.90463">
        <ele>551.4533691</ele>
        <time>2011-02-12T13:42:23Z</time>
      </trkpt>
      <trkpt lat="46.97306" lon="5.90461">
        <ele>554.8178711</ele>
        <time>2011-02-12T13:42:28Z</time>
      </trkpt>
      <trkpt lat="46.97298" lon="5.90457">
        <ele>552.4145508</ele>
        <time>2011-02-12T13:42:32Z</time>
      </trkpt>
      <trkpt lat="46.97288" lon="5.90455">
        <ele>552.8952637</ele>
        <time>2011-02-12T13:42:35Z</time>
      </trkpt>
      <trkpt lat="46.97277" lon="5.90449">
        <ele>550.9726563</ele>
        <time>2011-02-12T13:42:40Z</time>
      </trkpt>
      <trkpt lat="46.97266" lon="5.90448">
        <ele>551.934082</ele>
        <time>2011-02-12T13:42:44Z</time>
      </trkpt>
      <trkpt lat="46.97263" lon="5.90446">
        <ele>550.4921875</ele>
        <time>2011-02-12T13:42:46Z</time>
      </trkpt>
      <trkpt lat="46.97252" lon="5.90448">
        <ele>550.0114746</ele>
        <time>2011-02-12T13:42:52Z</time>
      </trkpt>
      <trkpt lat="46.97249" lon="5.90449">
        <ele>550.0114746</ele>
        <time>2011-02-12T13:42:53Z</time>
      </trkpt>
      <trkpt lat="46.97238" lon="5.90452">
        <ele>546.6468506</ele>
        <time>2011-02-12T13:42:59Z</time>
      </trkpt>
      <trkpt lat="46.97223" lon="5.90453">
        <ele>546.1662598</ele>
        <time>2011-02-12T13:43:04Z</time>
      </trkpt>
      <trkpt lat="46.97212" lon="5.90448">
        <ele>541.84021</ele>
        <time>2011-02-12T13:43:09Z</time>
      </trkpt>
      <trkpt lat="46.97203" lon="5.90446">
        <ele>538.9562988</ele>
        <time>2011-02-12T13:43:13Z</time>
      </trkpt>
      <trkpt lat="46.97201" lon="5.90445">
        <ele>538.475708</ele>
        <time>2011-02-12T13:43:14Z</time>
      </trkpt>
      <trkpt lat="46.97186" lon="5.90449">
        <ele>537.5142822</ele>
        <time>2011-02-12T13:43:20Z</time>
      </trkpt>
      <trkpt lat="46.97166" lon="5.90459">
        <ele>542.8015137</ele>
        <time>2011-02-12T13:43:25Z</time>
      </trkpt>
      <trkpt lat="46.97156" lon="5.90462">
        <ele>541.3594971</ele>
        <time>2011-02-12T13:43:29Z</time>
      </trkpt>
      <trkpt lat="46.97149" lon="5.90465">
        <ele>537.9949951</ele>
        <time>2011-02-12T13:43:33Z</time>
      </trkpt>
      <trkpt lat="46.97136" lon="5.90464">
        <ele>534.1496582</ele>
        <time>2011-02-12T13:43:39Z</time>
      </trkpt>
      <trkpt lat="46.97122" lon="5.90468">
        <ele>533.1883545</ele>
        <time>2011-02-12T13:43:44Z</time>
      </trkpt>
      <trkpt lat="46.97108" lon="5.90472">
        <ele>530.3044434</ele>
        <time>2011-02-12T13:43:49Z</time>
      </trkpt>
      <trkpt lat="46.97102" lon="5.90473">
        <ele>530.3044434</ele>
        <time>2011-02-12T13:43:51Z</time>
      </trkpt>
      <trkpt lat="46.97091" lon="5.90473">
        <ele>527.901001</ele>
        <time>2011-02-12T13:43:57Z</time>
      </trkpt>
      <trkpt lat="46.97079" lon="5.90477">
        <ele>528.3818359</ele>
        <time>2011-02-12T13:44:01Z</time>
      </trkpt>
      <trkpt lat="46.97057" lon="5.9048">
        <ele>529.3431396</ele>
        <time>2011-02-12T13:44:07Z</time>
      </trkpt>
      <trkpt lat="46.97039" lon="5.90477">
        <ele>529.3431396</ele>
        <time>2011-02-12T13:44:12Z</time>
      </trkpt>
      <trkpt lat="46.97029" lon="5.90473">
        <ele>527.901001</ele>
        <time>2011-02-12T13:44:16Z</time>
      </trkpt>
      <trkpt lat="46.97019" lon="5.90465">
        <ele>525.9783936</ele>
        <time>2011-02-12T13:44:20Z</time>
      </trkpt>
      <trkpt lat="46.97008" lon="5.90454">
        <ele>521.6525879</ele>
        <time>2011-02-12T13:44:25Z</time>
      </trkpt>
      <trkpt lat="46.96996" lon="5.90446">
        <ele>517.807251</ele>
        <time>2011-02-12T13:44:30Z</time>
      </trkpt>
      <trkpt lat="46.96986" lon="5.90437">
        <ele>513.9620361</ele>
        <time>2011-02-12T13:44:34Z</time>
      </trkpt>
      <trkpt lat="46.96975" lon="5.90427">
        <ele>509.1553955</ele>
        <time>2011-02-12T13:44:38Z</time>
      </trkpt>
      <trkpt lat="46.96959" lon="5.90422">
        <ele>509.1553955</ele>
        <time>2011-02-12T13:44:43Z</time>
      </trkpt>
      <trkpt lat="46.96947" lon="5.90417">
        <ele>508.1940918</ele>
        <time>2011-02-12T13:44:47Z</time>
      </trkpt>
      <trkpt lat="46.96937" lon="5.9041">
        <ele>501.9455566</ele>
        <time>2011-02-12T13:44:51Z</time>
      </trkpt>
      <trkpt lat="46.96928" lon="5.90405">
        <ele>500.50354</ele>
        <time>2011-02-12T13:44:55Z</time>
      </trkpt>
      <trkpt lat="46.9692" lon="5.904">
        <ele>498.1003418</ele>
        <time>2011-02-12T13:44:59Z</time>
      </trkpt>
      <trkpt lat="46.96907" lon="5.90399">
        <ele>497.6196289</ele>
        <time>2011-02-12T13:45:04Z</time>
      </trkpt>
      <trkpt lat="46.96897" lon="5.90398">
        <ele>497.138916</ele>
        <time>2011-02-12T13:45:07Z</time>
      </trkpt>
      <trkpt lat="46.96885" lon="5.90395">
        <ele>495.6968994</ele>
        <time>2011-02-12T13:45:12Z</time>
      </trkpt>
      <trkpt lat="46.96873" lon="5.90397">
        <ele>497.138916</ele>
        <time>2011-02-12T13:45:16Z</time>
      </trkpt>
      <trkpt lat="46.9686" lon="5.90396">
        <ele>500.0229492</ele>
        <time>2011-02-12T13:45:21Z</time>
      </trkpt>
      <trkpt lat="46.9685" lon="5.90399">
        <ele>499.5422363</ele>
        <time>2011-02-12T13:45:25Z</time>
      </trkpt>
      <trkpt lat="46.96833" lon="5.90412">
        <ele>505.3101807</ele>
        <time>2011-02-12T13:45:30Z</time>
      </trkpt>
      <trkpt lat="46.96823" lon="5.90423">
        <ele>510.1166992</ele>
        <time>2011-02-12T13:45:35Z</time>
      </trkpt>
      <trkpt lat="46.96824" lon="5.90425">
        <ele>509.1553955</ele>
        <time>2011-02-12T13:45:37Z</time>
      </trkpt>
      <trkpt lat="46.96816" lon="5.90434">
        <ele>507.713501</ele>
        <time>2011-02-12T13:45:43Z</time>
      </trkpt>
      <trkpt lat="46.96799" lon="5.90449">
        <ele>516.8459473</ele>
        <time>2011-02-12T13:45:51Z</time>
      </trkpt>
      <trkpt lat="46.9679" lon="5.9046">
        <ele>517.3266602</ele>
        <time>2011-02-12T13:45:56Z</time>
      </trkpt>
      <trkpt lat="46.96789" lon="5.90465">
        <ele>516.8459473</ele>
        <time>2011-02-12T13:45:58Z</time>
      </trkpt>
      <trkpt lat="46.96781" lon="5.9048">
        <ele>515.4040527</ele>
        <time>2011-02-12T13:46:04Z</time>
      </trkpt>
      <trkpt lat="46.96779" lon="5.90483">
        <ele>514.9233398</ele>
        <time>2011-02-12T13:46:05Z</time>
      </trkpt>
      <trkpt lat="46.96774" lon="5.90495">
        <ele>512.5200195</ele>
        <time>2011-02-12T13:46:09Z</time>
      </trkpt>
      <trkpt lat="46.96764" lon="5.90512">
        <ele>510.1166992</ele>
        <time>2011-02-12T13:46:15Z</time>
      </trkpt>
      <trkpt lat="46.96753" lon="5.90534">
        <ele>508.1940918</ele>
        <time>2011-02-12T13:46:22Z</time>
      </trkpt>
      <trkpt lat="46.96746" lon="5.9055">
        <ele>506.7520752</ele>
        <time>2011-02-12T13:46:27Z</time>
      </trkpt>
      <trkpt lat="46.9674" lon="5.90562">
        <ele>506.7520752</ele>
        <time>2011-02-12T13:46:31Z</time>
      </trkpt>
      <trkpt lat="46.96735" lon="5.90582">
        <ele>505.3101807</ele>
        <time>2011-02-12T13:46:36Z</time>
      </trkpt>
      <trkpt lat="46.9673" lon="5.90594">
        <ele>506.2714844</ele>
        <time>2011-02-12T13:46:40Z</time>
      </trkpt>
      <trkpt lat="46.96722" lon="5.90613">
        <ele>506.7520752</ele>
        <time>2011-02-12T13:46:46Z</time>
      </trkpt>
      <trkpt lat="46.96716" lon="5.90625">
        <ele>506.2714844</ele>
        <time>2011-02-12T13:46:50Z</time>
      </trkpt>
      <trkpt lat="46.9671" lon="5.90635">
        <ele>506.7520752</ele>
        <time>2011-02-12T13:46:54Z</time>
      </trkpt>
      <trkpt lat="46.967" lon="5.90649">
        <ele>508.1940918</ele>
        <time>2011-02-12T13:46:59Z</time>
      </trkpt>
      <trkpt lat="46.96688" lon="5.90663">
        <ele>508.1940918</ele>
        <time>2011-02-12T13:47:05Z</time>
      </trkpt>
      <trkpt lat="46.96676" lon="5.90674">
        <ele>507.2327881</ele>
        <time>2011-02-12T13:47:11Z</time>
      </trkpt>
      <trkpt lat="46.96668" lon="5.90681">
        <ele>507.2327881</ele>
        <time>2011-02-12T13:47:15Z</time>
      </trkpt>
      <trkpt lat="46.96653" lon="5.90691">
        <ele>507.2327881</ele>
        <time>2011-02-12T13:47:21Z</time>
      </trkpt>
      <trkpt lat="46.96641" lon="5.90695">
        <ele>506.7520752</ele>
        <time>2011-02-12T13:47:26Z</time>
      </trkpt>
      <trkpt lat="46.96629" lon="5.90693">
        <ele>503.3874512</ele>
        <time>2011-02-12T13:47:31Z</time>
      </trkpt>
      <trkpt lat="46.9662" lon="5.90685">
        <ele>498.5809326</ele>
        <time>2011-02-12T13:47:36Z</time>
      </trkpt>
      <trkpt lat="46.96604" lon="5.90677">
        <ele>499.0615234</ele>
        <time>2011-02-12T13:47:42Z</time>
      </trkpt>
      <trkpt lat="46.96589" lon="5.90671">
        <ele>499.5422363</ele>
        <time>2011-02-12T13:47:48Z</time>
      </trkpt>
      <trkpt lat="46.96578" lon="5.90665">
        <ele>500.0229492</ele>
        <time>2011-02-12T13:47:53Z</time>
      </trkpt>
      <trkpt lat="46.96563" lon="5.90657">
        <ele>498.5809326</ele>
        <time>2011-02-12T13:48:00Z</time>
      </trkpt>
      <trkpt lat="46.96549" lon="5.90648">
        <ele>496.6583252</ele>
        <time>2011-02-12T13:48:07Z</time>
      </trkpt>
      <trkpt lat="46.96537" lon="5.90642">
        <ele>495.2161865</ele>
        <time>2011-02-12T13:48:13Z</time>
      </trkpt>
      <trkpt lat="46.96523" lon="5.90636">
        <ele>495.2161865</ele>
        <time>2011-02-12T13:48:19Z</time>
      </trkpt>
      <trkpt lat="46.96507" lon="5.90629">
        <ele>496.1777344</ele>
        <time>2011-02-12T13:48:26Z</time>
      </trkpt>
      <trkpt lat="46.9649" lon="5.90625">
        <ele>499.5422363</ele>
        <time>2011-02-12T13:48:32Z</time>
      </trkpt>
      <trkpt lat="46.96476" lon="5.9062">
        <ele>500.50354</ele>
        <time>2011-02-12T13:48:38Z</time>
      </trkpt>
      <trkpt lat="46.96462" lon="5.90614">
        <ele>501.4648438</ele>
        <time>2011-02-12T13:48:44Z</time>
      </trkpt>
      <trkpt lat="46.96449" lon="5.90609">
        <ele>501.9455566</ele>
        <time>2011-02-12T13:48:50Z</time>
      </trkpt>
      <trkpt lat="46.96438" lon="5.90604">
        <ele>502.4261475</ele>
        <time>2011-02-12T13:48:55Z</time>
      </trkpt>
      <trkpt lat="46.9643" lon="5.906">
        <ele>501.9455566</ele>
        <time>2011-02-12T13:48:59Z</time>
      </trkpt>
      <trkpt lat="46.96422" lon="5.90594">
        <ele>500.9841309</ele>
        <time>2011-02-12T13:49:04Z</time>
      </trkpt>
      <trkpt lat="46.96411" lon="5.90589">
        <ele>501.4648438</ele>
        <time>2011-02-12T13:49:09Z</time>
      </trkpt>
      <trkpt lat="46.96394" lon="5.90582">
        <ele>502.4261475</ele>
        <time>2011-02-12T13:49:16Z</time>
      </trkpt>
      <trkpt lat="46.96384" lon="5.90575">
        <ele>502.9067383</ele>
        <time>2011-02-12T13:49:21Z</time>
      </trkpt>
      <trkpt lat="46.96382" lon="5.90574">
        <ele>502.9067383</ele>
        <time>2011-02-12T13:49:22Z</time>
      </trkpt>
      <trkpt lat="46.9637" lon="5.90568">
        <ele>504.348877</ele>
        <time>2011-02-12T13:49:28Z</time>
      </trkpt>
      <trkpt lat="46.96362" lon="5.90557">
        <ele>504.348877</ele>
        <time>2011-02-12T13:49:33Z</time>
      </trkpt>
      <trkpt lat="46.96359" lon="5.90552">
        <ele>504.8294678</ele>
        <time>2011-02-12T13:49:35Z</time>
      </trkpt>
      <trkpt lat="46.96347" lon="5.9053">
        <ele>505.7908936</ele>
        <time>2011-02-12T13:49:43Z</time>
      </trkpt>
      <trkpt lat="46.96339" lon="5.90513">
        <ele>505.7908936</ele>
        <time>2011-02-12T13:49:49Z</time>
      </trkpt>
      <trkpt lat="46.96334" lon="5.90499">
        <ele>504.348877</ele>
        <time>2011-02-12T13:49:54Z</time>
      </trkpt>
      <trkpt lat="46.96331" lon="5.90494">
        <ele>503.8681641</ele>
        <time>2011-02-12T13:49:56Z</time>
      </trkpt>
      <trkpt lat="46.96325" lon="5.90485">
        <ele>505.3101807</ele>
        <time>2011-02-12T13:50:00Z</time>
      </trkpt>
      <trkpt lat="46.96314" lon="5.90468">
        <ele>507.2327881</ele>
        <time>2011-02-12T13:50:07Z</time>
      </trkpt>
      <trkpt lat="46.96303" lon="5.9045">
        <ele>510.1166992</ele>
        <time>2011-02-12T13:50:14Z</time>
      </trkpt>
      <trkpt lat="46.96295" lon="5.90434">
        <ele>510.1166992</ele>
        <time>2011-02-12T13:50:20Z</time>
      </trkpt>
      <trkpt lat="46.96288" lon="5.9042">
        <ele>509.6361084</ele>
        <time>2011-02-12T13:50:25Z</time>
      </trkpt>
      <trkpt lat="46.96281" lon="5.90406">
        <ele>507.713501</ele>
        <time>2011-02-12T13:50:30Z</time>
      </trkpt>
      <trkpt lat="46.96273" lon="5.90397">
        <ele>506.7520752</ele>
        <time>2011-02-12T13:50:34Z</time>
      </trkpt>
      <trkpt lat="46.96265" lon="5.90389">
        <ele>505.3101807</ele>
        <time>2011-02-12T13:50:38Z</time>
      </trkpt>
      <trkpt lat="46.96256" lon="5.90381">
        <ele>503.8681641</ele>
        <time>2011-02-12T13:50:43Z</time>
      </trkpt>
      <trkpt lat="46.96244" lon="5.90368">
        <ele>501.9455566</ele>
        <time>2011-02-12T13:50:49Z</time>
      </trkpt>
      <trkpt lat="46.96233" lon="5.90358">
        <ele>502.4261475</ele>
        <time>2011-02-12T13:50:54Z</time>
      </trkpt>
      <trkpt lat="46.9622" lon="5.90346">
        <ele>501.9455566</ele>
        <time>2011-02-12T13:51:00Z</time>
      </trkpt>
      <trkpt lat="46.96218" lon="5.90344">
        <ele>501.4648438</ele>
        <time>2011-02-12T13:51:01Z</time>
      </trkpt>
      <trkpt lat="46.96206" lon="5.90333">
        <ele>498.1003418</ele>
        <time>2011-02-12T13:51:07Z</time>
      </trkpt>
      <trkpt lat="46.96198" lon="5.90325">
        <ele>495.6968994</ele>
        <time>2011-02-12T13:51:11Z</time>
      </trkpt>
      <trkpt lat="46.96188" lon="5.90314">
        <ele>493.774292</ele>
        <time>2011-02-12T13:51:16Z</time>
      </trkpt>
      <trkpt lat="46.96178" lon="5.90301">
        <ele>491.8516846</ele>
        <time>2011-02-12T13:51:21Z</time>
      </trkpt>
      <trkpt lat="46.96172" lon="5.90294">
        <ele>491.3709717</ele>
        <time>2011-02-12T13:51:24Z</time>
      </trkpt>
      <trkpt lat="46.9616" lon="5.9027">
        <ele>491.3709717</ele>
        <time>2011-02-12T13:51:32Z</time>
      </trkpt>
      <trkpt lat="46.96152" lon="5.90253">
        <ele>490.8903809</ele>
        <time>2011-02-12T13:51:37Z</time>
      </trkpt>
      <trkpt lat="46.96143" lon="5.9023">
        <ele>490.40979</ele>
        <time>2011-02-12T13:51:44Z</time>
      </trkpt>
      <trkpt lat="46.96132" lon="5.90227">
        <ele>490.8903809</ele>
        <time>2011-02-12T13:51:49Z</time>
      </trkpt>
      <trkpt lat="46.96124" lon="5.90232">
        <ele>492.8129883</ele>
        <time>2011-02-12T13:51:53Z</time>
      </trkpt>
      <trkpt lat="46.96121" lon="5.90238">
        <ele>493.2935791</ele>
        <time>2011-02-12T13:51:55Z</time>
      </trkpt>
      <trkpt lat="46.96113" lon="5.90253">
        <ele>493.774292</ele>
        <time>2011-02-12T13:52:00Z</time>
      </trkpt>
      <trkpt lat="46.96107" lon="5.90272">
        <ele>494.7355957</ele>
        <time>2011-02-12T13:52:06Z</time>
      </trkpt>
      <trkpt lat="46.96103" lon="5.90286">
        <ele>495.6968994</ele>
        <time>2011-02-12T13:52:10Z</time>
      </trkpt>
      <trkpt lat="46.96099" lon="5.90308">
        <ele>500.0229492</ele>
        <time>2011-02-12T13:52:17Z</time>
      </trkpt>
      <trkpt lat="46.96098" lon="5.90312">
        <ele>500.9841309</ele>
        <time>2011-02-12T13:52:18Z</time>
      </trkpt>
      <trkpt lat="46.96095" lon="5.90327">
        <ele>503.3874512</ele>
        <time>2011-02-12T13:52:22Z</time>
      </trkpt>
      <trkpt lat="46.96095" lon="5.90331">
        <ele>503.8681641</ele>
        <time>2011-02-12T13:52:23Z</time>
      </trkpt>
      <trkpt lat="46.96093" lon="5.90352">
        <ele>506.2714844</ele>
        <time>2011-02-12T13:52:29Z</time>
      </trkpt>
      <trkpt lat="46.96093" lon="5.90368">
        <ele>507.713501</ele>
        <time>2011-02-12T13:52:34Z</time>
      </trkpt>
      <trkpt lat="46.96091" lon="5.90385">
        <ele>508.6746826</ele>
        <time>2011-02-12T13:52:39Z</time>
      </trkpt>
      <trkpt lat="46.96085" lon="5.90396">
        <ele>508.6746826</ele>
        <time>2011-02-12T13:52:43Z</time>
      </trkpt>
      <trkpt lat="46.9608" lon="5.90401">
        <ele>508.6746826</ele>
        <time>2011-02-12T13:52:46Z</time>
      </trkpt>
      <trkpt lat="46.96073" lon="5.90402">
        <ele>508.1940918</ele>
        <time>2011-02-12T13:52:50Z</time>
      </trkpt>
      <trkpt lat="46.9606" lon="5.90401">
        <ele>507.713501</ele>
        <time>2011-02-12T13:52:56Z</time>
      </trkpt>
      <trkpt lat="46.96048" lon="5.90399">
        <ele>508.6746826</ele>
        <time>2011-02-12T13:53:01Z</time>
      </trkpt>
      <trkpt lat="46.96037" lon="5.90397">
        <ele>510.1166992</ele>
        <time>2011-02-12T13:53:06Z</time>
      </trkpt>
      <trkpt lat="46.96029" lon="5.90394">
        <ele>512.5200195</ele>
        <time>2011-02-12T13:53:10Z</time>
      </trkpt>
      <trkpt lat="46.96021" lon="5.90393">
        <ele>513.0007324</ele>
        <time>2011-02-12T13:53:14Z</time>
      </trkpt>
      <trkpt lat="46.96008" lon="5.90389">
        <ele>512.5200195</ele>
        <time>2011-02-12T13:53:20Z</time>
      </trkpt>
      <trkpt lat="46.96" lon="5.90385">
        <ele>513.0007324</ele>
        <time>2011-02-12T13:53:24Z</time>
      </trkpt>
      <trkpt lat="46.95991" lon="5.90381">
        <ele>510.1166992</ele>
        <time>2011-02-12T13:53:29Z</time>
      </trkpt>
      <trkpt lat="46.95982" lon="5.90378">
        <ele>509.6361084</ele>
        <time>2011-02-12T13:53:33Z</time>
      </trkpt>
      <trkpt lat="46.95968" lon="5.90375">
        <ele>509.6361084</ele>
        <time>2011-02-12T13:53:39Z</time>
      </trkpt>
      <trkpt lat="46.9596" lon="5.9038">
        <ele>510.1166992</ele>
        <time>2011-02-12T13:53:43Z</time>
      </trkpt>
      <trkpt lat="46.9595" lon="5.90387">
        <ele>510.1166992</ele>
        <time>2011-02-12T13:53:48Z</time>
      </trkpt>
      <trkpt lat="46.9594" lon="5.90394">
        <ele>509.6361084</ele>
        <time>2011-02-12T13:53:53Z</time>
      </trkpt>
      <trkpt lat="46.95934" lon="5.90402">
        <ele>509.1553955</ele>
        <time>2011-02-12T13:53:57Z</time>
      </trkpt>
      <trkpt lat="46.95925" lon="5.90411">
        <ele>507.713501</ele>
        <time>2011-02-12T13:54:02Z</time>
      </trkpt>
      <trkpt lat="46.95917" lon="5.90418">
        <ele>508.1940918</ele>
        <time>2011-02-12T13:54:07Z</time>
      </trkpt>
      <trkpt lat="46.95905" lon="5.90425">
        <ele>510.59729</ele>
        <time>2011-02-12T13:54:12Z</time>
      </trkpt>
      <trkpt lat="46.95892" lon="5.90434">
        <ele>513.0007324</ele>
        <time>2011-02-12T13:54:19Z</time>
      </trkpt>
      <trkpt lat="46.95884" lon="5.9044">
        <ele>514.9233398</ele>
        <time>2011-02-12T13:54:24Z</time>
      </trkpt>
      <trkpt lat="46.95873" lon="5.90447">
        <ele>517.3266602</ele>
        <time>2011-02-12T13:54:30Z</time>
      </trkpt>
      <trkpt lat="46.95862" lon="5.90453">
        <ele>519.2492676</ele>
        <time>2011-02-12T13:54:36Z</time>
      </trkpt>
      <trkpt lat="46.95853" lon="5.90458">
        <ele>520.6912842</ele>
        <time>2011-02-12T13:54:41Z</time>
      </trkpt>
      <trkpt lat="46.95842" lon="5.90462">
        <ele>523.0946045</ele>
        <time>2011-02-12T13:54:47Z</time>
      </trkpt>
      <trkpt lat="46.95832" lon="5.90465">
        <ele>524.0557861</ele>
        <time>2011-02-12T13:54:52Z</time>
      </trkpt>
      <trkpt lat="46.9582" lon="5.90471">
        <ele>525.0172119</ele>
        <time>2011-02-12T13:54:58Z</time>
      </trkpt>
      <trkpt lat="46.95812" lon="5.90475">
        <ele>526.4591064</ele>
        <time>2011-02-12T13:55:02Z</time>
      </trkpt>
      <trkpt lat="46.95798" lon="5.90484">
        <ele>527.901001</ele>
        <time>2011-02-12T13:55:09Z</time>
      </trkpt>
      <trkpt lat="46.95787" lon="5.90492">
        <ele>530.3044434</ele>
        <time>2011-02-12T13:55:15Z</time>
      </trkpt>
      <trkpt lat="46.95775" lon="5.90497">
        <ele>532.2270508</ele>
        <time>2011-02-12T13:55:21Z</time>
      </trkpt>
      <trkpt lat="46.95767" lon="5.90495">
        <ele>531.7463379</ele>
        <time>2011-02-12T13:55:25Z</time>
      </trkpt>
      <trkpt lat="46.95759" lon="5.90493">
        <ele>530.7851563</ele>
        <time>2011-02-12T13:55:29Z</time>
      </trkpt>
      <trkpt lat="46.95755" lon="5.90492">
        <ele>530.7851563</ele>
        <time>2011-02-12T13:55:31Z</time>
      </trkpt>
      <trkpt lat="46.95744" lon="5.90495">
        <ele>530.3044434</ele>
        <time>2011-02-12T13:55:38Z</time>
      </trkpt>
      <trkpt lat="46.95736" lon="5.905">
        <ele>530.7851563</ele>
        <time>2011-02-12T13:55:43Z</time>
      </trkpt>
      <trkpt lat="46.95726" lon="5.90507">
        <ele>529.8237305</ele>
        <time>2011-02-12T13:55:50Z</time>
      </trkpt>
      <trkpt lat="46.95725" lon="5.90507">
        <ele>530.3044434</ele>
        <time>2011-02-12T13:55:51Z</time>
      </trkpt>
      <trkpt lat="46.95721" lon="5.90515">
        <ele>530.3044434</ele>
        <time>2011-02-12T13:55:55Z</time>
      </trkpt>
      <trkpt lat="46.95719" lon="5.90518">
        <ele>530.7851563</ele>
        <time>2011-02-12T13:55:58Z</time>
      </trkpt>
      <trkpt lat="46.95709" lon="5.90526">
        <ele>531.7463379</ele>
        <time>2011-02-12T13:56:04Z</time>
      </trkpt>
      <trkpt lat="46.957" lon="5.90531">
        <ele>533.1883545</ele>
        <time>2011-02-12T13:56:09Z</time>
      </trkpt>
      <trkpt lat="46.95691" lon="5.90533">
        <ele>535.1109619</ele>
        <time>2011-02-12T13:56:14Z</time>
      </trkpt>
      <trkpt lat="46.95685" lon="5.90533">
        <ele>536.5531006</ele>
        <time>2011-02-12T13:56:19Z</time>
      </trkpt>
      <trkpt lat="46.95678" lon="5.90533">
        <ele>537.5142822</ele>
        <time>2011-02-12T13:56:24Z</time>
      </trkpt>
      <trkpt lat="46.95669" lon="5.90532">
        <ele>537.9949951</ele>
        <time>2011-02-12T13:56:31Z</time>
      </trkpt>
      <trkpt lat="46.95664" lon="5.9053">
        <ele>538.9562988</ele>
        <time>2011-02-12T13:56:35Z</time>
      </trkpt>
      <trkpt lat="46.95657" lon="5.90528">
        <ele>541.3594971</ele>
        <time>2011-02-12T13:56:40Z</time>
      </trkpt>
      <trkpt lat="46.95653" lon="5.90526">
        <ele>541.3594971</ele>
        <time>2011-02-12T13:56:43Z</time>
      </trkpt>
      <trkpt lat="46.95646" lon="5.90524">
        <ele>542.8015137</ele>
        <time>2011-02-12T13:56:50Z</time>
      </trkpt>
      <trkpt lat="46.95636" lon="5.90522">
        <ele>548.0888672</ele>
        <time>2011-02-12T13:56:57Z</time>
      </trkpt>
      <trkpt lat="46.95633" lon="5.90522">
        <ele>548.5693359</ele>
        <time>2011-02-12T13:56:59Z</time>
      </trkpt>
      <trkpt lat="46.95628" lon="5.90519">
        <ele>551.4533691</ele>
        <time>2011-02-12T13:57:05Z</time>
      </trkpt>
      <trkpt lat="46.95627" lon="5.90519">
        <ele>551.934082</ele>
        <time>2011-02-12T13:57:06Z</time>
      </trkpt>
      <trkpt lat="46.9562" lon="5.90519">
        <ele>560.1052246</ele>
        <time>2011-02-12T13:57:14Z</time>
      </trkpt>
      <trkpt lat="46.95617" lon="5.90521">
        <ele>562.5085449</ele>
        <time>2011-02-12T13:57:17Z</time>
      </trkpt>
      <trkpt lat="46.95612" lon="5.9053">
        <ele>566.8344727</ele>
        <time>2011-02-12T13:57:24Z</time>
      </trkpt>
      <trkpt lat="46.95613" lon="5.90533">
        <ele>567.3151855</ele>
        <time>2011-02-12T13:57:27Z</time>
      </trkpt>
      <trkpt lat="46.95613" lon="5.90536">
        <ele>568.2763672</ele>
        <time>2011-02-12T13:57:29Z</time>
      </trkpt>
      <trkpt lat="46.95614" lon="5.90545">
        <ele>572.6025391</ele>
        <time>2011-02-12T13:57:37Z</time>
      </trkpt>
      <trkpt lat="46.95612" lon="5.90549">
        <ele>574.0444336</ele>
        <time>2011-02-12T13:57:40Z</time>
      </trkpt>
      <trkpt lat="46.9561" lon="5.9056">
        <ele>575.967041</ele>
        <time>2011-02-12T13:57:46Z</time>
      </trkpt>
      <trkpt lat="46.95608" lon="5.90572">
        <ele>579.331543</ele>
        <time>2011-02-12T13:57:50Z</time>
      </trkpt>
      <trkpt lat="46.95604" lon="5.90579">
        <ele>581.7348633</ele>
        <time>2011-02-12T13:57:52Z</time>
      </trkpt>
      <trkpt lat="46.95596" lon="5.90588">
        <ele>584.1381836</ele>
        <time>2011-02-12T13:57:57Z</time>
      </trkpt>
      <trkpt lat="46.95587" lon="5.90588">
        <ele>585.5800781</ele>
        <time>2011-02-12T13:58:01Z</time>
      </trkpt>
      <trkpt lat="46.95574" lon="5.90584">
        <ele>589.4255371</ele>
        <time>2011-02-12T13:58:07Z</time>
      </trkpt>
      <trkpt lat="46.95563" lon="5.90583">
        <ele>587.5026855</ele>
        <time>2011-02-12T13:58:12Z</time>
      </trkpt>
      <trkpt lat="46.95552" lon="5.90583">
        <ele>589.4255371</ele>
        <time>2011-02-12T13:58:17Z</time>
      </trkpt>
      <trkpt lat="46.95546" lon="5.90585">
        <ele>593.270752</ele>
        <time>2011-02-12T13:58:21Z</time>
      </trkpt>
      <trkpt lat="46.95536" lon="5.9059">
        <ele>598.0773926</ele>
        <time>2011-02-12T13:58:26Z</time>
      </trkpt>
      <trkpt lat="46.95534" lon="5.90595">
        <ele>599.5192871</ele>
        <time>2011-02-12T13:58:31Z</time>
      </trkpt>
      <trkpt lat="46.9553" lon="5.90599">
        <ele>602.4030762</ele>
        <time>2011-02-12T13:58:35Z</time>
      </trkpt>
      <trkpt lat="46.95527" lon="5.90602">
        <ele>607.6906738</ele>
        <time>2011-02-12T13:58:39Z</time>
      </trkpt>
      <trkpt lat="46.95523" lon="5.90612">
        <ele>606.729248</ele>
        <time>2011-02-12T13:58:46Z</time>
      </trkpt>
      <trkpt lat="46.95525" lon="5.90622">
        <ele>605.7680664</ele>
        <time>2011-02-12T13:58:51Z</time>
      </trkpt>
      <trkpt lat="46.95525" lon="5.90624">
        <ele>605.2873535</ele>
        <time>2011-02-12T13:58:52Z</time>
      </trkpt>
      <trkpt lat="46.95523" lon="5.90632">
        <ele>605.7680664</ele>
        <time>2011-02-12T13:58:57Z</time>
      </trkpt>
      <trkpt lat="46.95524" lon="5.90636">
        <ele>606.2485352</ele>
        <time>2011-02-12T13:58:59Z</time>
      </trkpt>
      <trkpt lat="46.9552" lon="5.90645">
        <ele>606.2485352</ele>
        <time>2011-02-12T13:59:04Z</time>
      </trkpt>
      <trkpt lat="46.95521" lon="5.90654">
        <ele>605.7680664</ele>
        <time>2011-02-12T13:59:09Z</time>
      </trkpt>
      <trkpt lat="46.95522" lon="5.9066">
        <ele>604.8066406</ele>
        <time>2011-02-12T13:59:13Z</time>
      </trkpt>
      <trkpt lat="46.9552" lon="5.90656">
        <ele>600.4807129</ele>
        <time>2011-02-12T13:59:17Z</time>
      </trkpt>
      <trkpt lat="46.95519" lon="5.90649">
        <ele>598.0773926</ele>
        <time>2011-02-12T13:59:21Z</time>
      </trkpt>
      <trkpt lat="46.95518" lon="5.90646">
        <ele>595.6740723</ele>
        <time>2011-02-12T13:59:23Z</time>
      </trkpt>
      <trkpt lat="46.95517" lon="5.90636">
        <ele>596.1547852</ele>
        <time>2011-02-12T13:59:29Z</time>
      </trkpt>
      <trkpt lat="46.95518" lon="5.90636">
        <ele>596.635498</ele>
        <time>2011-02-12T13:59:33Z</time>
      </trkpt>
      <trkpt lat="46.95515" lon="5.90645">
        <ele>595.6740723</ele>
        <time>2011-02-12T13:59:40Z</time>
      </trkpt>
      <trkpt lat="46.95517" lon="5.90651">
        <ele>600.4807129</ele>
        <time>2011-02-12T13:59:45Z</time>
      </trkpt>
      <trkpt lat="46.95519" lon="5.90654">
        <ele>600.9611816</ele>
        <time>2011-02-12T13:59:47Z</time>
      </trkpt>
      <trkpt lat="46.95516" lon="5.90665">
        <ele>604.8066406</ele>
        <time>2011-02-12T13:59:53Z</time>
      </trkpt>
      <trkpt lat="46.95518" lon="5.90669">
        <ele>605.2873535</ele>
        <time>2011-02-12T13:59:57Z</time>
      </trkpt>
      <trkpt lat="46.95523" lon="5.90681">
        <ele>605.7680664</ele>
        <time>2011-02-12T14:00:09Z</time>
      </trkpt>
      <trkpt lat="46.95527" lon="5.9069">
        <ele>604.3261719</ele>
        <time>2011-02-12T14:00:13Z</time>
      </trkpt>
      <trkpt lat="46.95527" lon="5.90706">
        <ele>604.3261719</ele>
        <time>2011-02-12T14:00:19Z</time>
      </trkpt>
      <trkpt lat="46.95529" lon="5.90721">
        <ele>608.6518555</ele>
        <time>2011-02-12T14:00:24Z</time>
      </trkpt>
      <trkpt lat="46.95529" lon="5.90731">
        <ele>615.3811035</ele>
        <time>2011-02-12T14:00:27Z</time>
      </trkpt>
      <trkpt lat="46.95531" lon="5.90749">
        <ele>624.5136719</ele>
        <time>2011-02-12T14:00:34Z</time>
      </trkpt>
      <trkpt lat="46.95531" lon="5.90755">
        <ele>626.9169922</ele>
        <time>2011-02-12T14:00:38Z</time>
      </trkpt>
      <trkpt lat="46.95532" lon="5.90758">
        <ele>625.4748535</ele>
        <time>2011-02-12T14:00:41Z</time>
      </trkpt>
      <trkpt lat="46.95514" lon="5.90761">
        <ele>635.0881348</ele>
        <time>2011-02-12T14:00:47Z</time>
      </trkpt>
      <trkpt lat="46.95506" lon="5.90763">
        <ele>637.0107422</ele>
        <time>2011-02-12T14:00:51Z</time>
      </trkpt>
      <trkpt lat="46.95496" lon="5.90764">
        <ele>636.5302734</ele>
        <time>2011-02-12T14:00:56Z</time>
      </trkpt>
      <trkpt lat="46.95488" lon="5.90763">
        <ele>635.5686035</ele>
        <time>2011-02-12T14:01:01Z</time>
      </trkpt>
      <trkpt lat="46.95481" lon="5.9076">
        <ele>632.2041016</ele>
        <time>2011-02-12T14:01:07Z</time>
      </trkpt>
      <trkpt lat="46.95475" lon="5.90759">
        <ele>629.3200684</ele>
        <time>2011-02-12T14:01:10Z</time>
      </trkpt>
      <trkpt lat="46.9547" lon="5.90753">
        <ele>626.4362793</ele>
        <time>2011-02-12T14:01:14Z</time>
      </trkpt>
      <trkpt lat="46.9546" lon="5.90744">
        <ele>624.9943848</ele>
        <time>2011-02-12T14:01:20Z</time>
      </trkpt>
      <trkpt lat="46.95456" lon="5.90737">
        <ele>624.032959</ele>
        <time>2011-02-12T14:01:24Z</time>
      </trkpt>
      <trkpt lat="46.95447" lon="5.90726">
        <ele>622.5910645</ele>
        <time>2011-02-12T14:01:31Z</time>
      </trkpt>
      <trkpt lat="46.95444" lon="5.90723">
        <ele>621.6296387</ele>
        <time>2011-02-12T14:01:33Z</time>
      </trkpt>
      <trkpt lat="46.95436" lon="5.90713">
        <ele>621.6296387</ele>
        <time>2011-02-12T14:01:40Z</time>
      </trkpt>
      <trkpt lat="46.95428" lon="5.90701">
        <ele>620.668457</ele>
        <time>2011-02-12T14:01:46Z</time>
      </trkpt>
      <trkpt lat="46.95421" lon="5.9069">
        <ele>623.0717773</ele>
        <time>2011-02-12T14:01:52Z</time>
      </trkpt>
      <trkpt lat="46.95415" lon="5.90682">
        <ele>625.4748535</ele>
        <time>2011-02-12T14:01:56Z</time>
      </trkpt>
      <trkpt lat="46.95407" lon="5.90676">
        <ele>627.8781738</ele>
        <time>2011-02-12T14:02:00Z</time>
      </trkpt>
      <trkpt lat="46.95404" lon="5.90673">
        <ele>628.3588867</ele>
        <time>2011-02-12T14:02:02Z</time>
      </trkpt>
      <trkpt lat="46.95395" lon="5.90659">
        <ele>628.8395996</ele>
        <time>2011-02-12T14:02:09Z</time>
      </trkpt>
      <trkpt lat="46.95389" lon="5.90648">
        <ele>628.3588867</ele>
        <time>2011-02-12T14:02:14Z</time>
      </trkpt>
      <trkpt lat="46.95383" lon="5.90643">
        <ele>628.3588867</ele>
        <time>2011-02-12T14:02:18Z</time>
      </trkpt>
      <trkpt lat="46.95374" lon="5.90634">
        <ele>629.8007813</ele>
        <time>2011-02-12T14:02:24Z</time>
      </trkpt>
      <trkpt lat="46.95371" lon="5.90629">
        <ele>630.2814941</ele>
        <time>2011-02-12T14:02:27Z</time>
      </trkpt>
      <trkpt lat="46.95361" lon="5.90629">
        <ele>631.7233887</ele>
        <time>2011-02-12T14:02:32Z</time>
      </trkpt>
      <trkpt lat="46.95349" lon="5.90633">
        <ele>632.6848145</ele>
        <time>2011-02-12T14:02:39Z</time>
      </trkpt>
      <trkpt lat="46.95338" lon="5.90638">
        <ele>634.126709</ele>
        <time>2011-02-12T14:02:45Z</time>
      </trkpt>
      <trkpt lat="46.95328" lon="5.90643">
        <ele>635.5686035</ele>
        <time>2011-02-12T14:02:50Z</time>
      </trkpt>
      <trkpt lat="46.95318" lon="5.9065">
        <ele>640.855957</ele>
        <time>2011-02-12T14:02:55Z</time>
      </trkpt>
      <trkpt lat="46.95315" lon="5.90653">
        <ele>641.3366699</ele>
        <time>2011-02-12T14:02:59Z</time>
      </trkpt>
      <trkpt lat="46.95312" lon="5.90666">
        <ele>641.3366699</ele>
        <time>2011-02-12T14:03:06Z</time>
      </trkpt>
      <trkpt lat="46.95317" lon="5.90678">
        <ele>640.3754883</ele>
        <time>2011-02-12T14:03:12Z</time>
      </trkpt>
      <trkpt lat="46.9532" lon="5.90686">
        <ele>638.9335938</ele>
        <time>2011-02-12T14:03:16Z</time>
      </trkpt>
      <trkpt lat="46.95324" lon="5.90695">
        <ele>637.972168</ele>
        <time>2011-02-12T14:03:21Z</time>
      </trkpt>
      <trkpt lat="46.95315" lon="5.90708">
        <ele>639.8947754</ele>
        <time>2011-02-12T14:03:28Z</time>
      </trkpt>
      <trkpt lat="46.9531" lon="5.90711">
        <ele>641.3366699</ele>
        <time>2011-02-12T14:03:30Z</time>
      </trkpt>
      <trkpt lat="46.95295" lon="5.9072">
        <ele>644.7011719</ele>
        <time>2011-02-12T14:03:37Z</time>
      </trkpt>
      <trkpt lat="46.95292" lon="5.90721">
        <ele>644.7011719</ele>
        <time>2011-02-12T14:03:38Z</time>
      </trkpt>
      <trkpt lat="46.95292" lon="5.90719">
        <ele>645.1818848</ele>
        <time>2011-02-12T14:03:42Z</time>
      </trkpt>
      <trkpt lat="46.95299" lon="5.90716">
        <ele>642.7788086</ele>
        <time>2011-02-12T14:03:49Z</time>
      </trkpt>
      <trkpt lat="46.95306" lon="5.9071">
        <ele>638.4528809</ele>
        <time>2011-02-12T14:03:55Z</time>
      </trkpt>
      <trkpt lat="46.95309" lon="5.90707">
        <ele>638.9335938</ele>
        <time>2011-02-12T14:04:00Z</time>
      </trkpt>
      <trkpt lat="46.9531" lon="5.90707">
        <ele>638.9335938</ele>
        <time>2011-02-12T14:04:01Z</time>
      </trkpt>
      <trkpt lat="46.9531" lon="5.90711">
        <ele>640.3754883</ele>
        <time>2011-02-12T14:04:05Z</time>
      </trkpt>
      <trkpt lat="46.95304" lon="5.90712">
        <ele>641.3366699</ele>
        <time>2011-02-12T14:04:10Z</time>
      </trkpt>
      <trkpt lat="46.95303" lon="5.90714">
        <ele>642.2980957</ele>
        <time>2011-02-12T14:04:12Z</time>
      </trkpt>
      <trkpt lat="46.95296" lon="5.90718">
        <ele>643.2592773</ele>
        <time>2011-02-12T14:04:19Z</time>
      </trkpt>
      <trkpt lat="46.95285" lon="5.90722">
        <ele>643.7399902</ele>
        <time>2011-02-12T14:04:28Z</time>
      </trkpt>
      <trkpt lat="46.95275" lon="5.90727">
        <ele>644.7011719</ele>
        <time>2011-02-12T14:04:35Z</time>
      </trkpt>
      <trkpt lat="46.95268" lon="5.90734">
        <ele>644.7011719</ele>
        <time>2011-02-12T14:04:40Z</time>
      </trkpt>
      <trkpt lat="46.95259" lon="5.90752">
        <ele>645.6625977</ele>
        <time>2011-02-12T14:04:46Z</time>
      </trkpt>
      <trkpt lat="46.95254" lon="5.90766">
        <ele>645.1818848</ele>
        <time>2011-02-12T14:04:50Z</time>
      </trkpt>
      <trkpt lat="46.95246" lon="5.90781">
        <ele>644.7011719</ele>
        <time>2011-02-12T14:04:55Z</time>
      </trkpt>
      <trkpt lat="46.95236" lon="5.90796">
        <ele>643.7399902</ele>
        <time>2011-02-12T14:05:01Z</time>
      </trkpt>
      <trkpt lat="46.9522" lon="5.90817">
        <ele>641.8173828</ele>
        <time>2011-02-12T14:05:10Z</time>
      </trkpt>
      <trkpt lat="46.95208" lon="5.90832">
        <ele>639.8947754</ele>
        <time>2011-02-12T14:05:17Z</time>
      </trkpt>
      <trkpt lat="46.95192" lon="5.90849">
        <ele>638.9335938</ele>
        <time>2011-02-12T14:05:24Z</time>
      </trkpt>
      <trkpt lat="46.95181" lon="5.90865">
        <ele>637.4914551</ele>
        <time>2011-02-12T14:05:30Z</time>
      </trkpt>
      <trkpt lat="46.95173" lon="5.90879">
        <ele>637.0107422</ele>
        <time>2011-02-12T14:05:35Z</time>
      </trkpt>
      <trkpt lat="46.95161" lon="5.90896">
        <ele>637.0107422</ele>
        <time>2011-02-12T14:05:41Z</time>
      </trkpt>
      <trkpt lat="46.95151" lon="5.90914">
        <ele>636.0495605</ele>
        <time>2011-02-12T14:05:47Z</time>
      </trkpt>
      <trkpt lat="46.95149" lon="5.90919">
        <ele>635.0881348</ele>
        <time>2011-02-12T14:05:49Z</time>
      </trkpt>
      <trkpt lat="46.9514" lon="5.90928">
        <ele>634.6074219</ele>
        <time>2011-02-12T14:05:54Z</time>
      </trkpt>
      <trkpt lat="46.95136" lon="5.9092">
        <ele>634.6074219</ele>
        <time>2011-02-12T14:05:57Z</time>
      </trkpt>
      <trkpt lat="46.95133" lon="5.90897">
        <ele>633.1652832</ele>
        <time>2011-02-12T14:06:03Z</time>
      </trkpt>
      <trkpt lat="46.95132" lon="5.90882">
        <ele>632.6848145</ele>
        <time>2011-02-12T14:06:07Z</time>
      </trkpt>
      <trkpt lat="46.9513" lon="5.90857">
        <ele>631.2429199</ele>
        <time>2011-02-12T14:06:14Z</time>
      </trkpt>
      <trkpt lat="46.95127" lon="5.90847">
        <ele>631.2429199</ele>
        <time>2011-02-12T14:06:17Z</time>
      </trkpt>
      <trkpt lat="46.9512" lon="5.90841">
        <ele>629.8007813</ele>
        <time>2011-02-12T14:06:22Z</time>
      </trkpt>
      <trkpt lat="46.95123" lon="5.9084">
        <ele>629.8007813</ele>
        <time>2011-02-12T14:06:27Z</time>
      </trkpt>
      <trkpt lat="46.95124" lon="5.90835">
        <ele>632.6848145</ele>
        <time>2011-02-12T14:06:32Z</time>
      </trkpt>
      <trkpt lat="46.95121" lon="5.9083">
        <ele>635.0881348</ele>
        <time>2011-02-12T14:06:35Z</time>
      </trkpt>
      <trkpt lat="46.95121" lon="5.90827">
        <ele>635.5686035</ele>
        <time>2011-02-12T14:06:42Z</time>
      </trkpt>
      <trkpt lat="46.95122" lon="5.90836">
        <ele>636.5302734</ele>
        <time>2011-02-12T14:06:48Z</time>
      </trkpt>
      <trkpt lat="46.95115" lon="5.90844">
        <ele>638.9335938</ele>
        <time>2011-02-12T14:06:53Z</time>
      </trkpt>
      <trkpt lat="46.95109" lon="5.9085">
        <ele>636.0495605</ele>
        <time>2011-02-12T14:07:00Z</time>
      </trkpt>
      <trkpt lat="46.95101" lon="5.90853">
        <ele>633.1652832</ele>
        <time>2011-02-12T14:07:07Z</time>
      </trkpt>
      <trkpt lat="46.95087" lon="5.90856">
        <ele>631.2429199</ele>
        <time>2011-02-12T14:07:13Z</time>
      </trkpt>
      <trkpt lat="46.95075" lon="5.90855">
        <ele>629.3200684</ele>
        <time>2011-02-12T14:07:18Z</time>
      </trkpt>
      <trkpt lat="46.95061" lon="5.9085">
        <ele>628.3588867</ele>
        <time>2011-02-12T14:07:24Z</time>
      </trkpt>
      <trkpt lat="46.95057" lon="5.90848">
        <ele>627.8781738</ele>
        <time>2011-02-12T14:07:26Z</time>
      </trkpt>
      <trkpt lat="46.95041" lon="5.90846">
        <ele>627.3977051</ele>
        <time>2011-02-12T14:07:33Z</time>
      </trkpt>
      <trkpt lat="46.95026" lon="5.9084">
        <ele>625.4748535</ele>
        <time>2011-02-12T14:07:39Z</time>
      </trkpt>
      <trkpt lat="46.95017" lon="5.90835">
        <ele>624.5136719</ele>
        <time>2011-02-12T14:07:43Z</time>
      </trkpt>
      <trkpt lat="46.95008" lon="5.90832">
        <ele>623.5524902</ele>
        <time>2011-02-12T14:07:48Z</time>
      </trkpt>
      <trkpt lat="46.95004" lon="5.90826">
        <ele>624.5136719</ele>
        <time>2011-02-12T14:07:54Z</time>
      </trkpt>
      <trkpt lat="46.95001" lon="5.90819">
        <ele>624.032959</ele>
        <time>2011-02-12T14:07:59Z</time>
      </trkpt>
      <trkpt lat="46.94999" lon="5.90805">
        <ele>624.5136719</ele>
        <time>2011-02-12T14:08:06Z</time>
      </trkpt>
      <trkpt lat="46.94996" lon="5.90795">
        <ele>626.4362793</ele>
        <time>2011-02-12T14:08:13Z</time>
      </trkpt>
      <trkpt lat="46.94996" lon="5.90793">
        <ele>627.3977051</ele>
        <time>2011-02-12T14:08:19Z</time>
      </trkpt>
      <trkpt lat="46.94994" lon="5.90791">
        <ele>627.8781738</ele>
        <time>2011-02-12T14:08:30Z</time>
      </trkpt>
      <trkpt lat="46.94991" lon="5.90794">
        <ele>629.3200684</ele>
        <time>2011-02-12T14:08:37Z</time>
      </trkpt>
      <trkpt lat="46.9499" lon="5.90795">
        <ele>629.3200684</ele>
        <time>2011-02-12T14:08:38Z</time>
      </trkpt>
      <trkpt lat="46.94981" lon="5.90806">
        <ele>626.9169922</ele>
        <time>2011-02-12T14:08:44Z</time>
      </trkpt>
      <trkpt lat="46.94969" lon="5.90816">
        <ele>623.5524902</ele>
        <time>2011-02-12T14:08:50Z</time>
      </trkpt>
      <trkpt lat="46.94959" lon="5.90823">
        <ele>623.0717773</ele>
        <time>2011-02-12T14:08:54Z</time>
      </trkpt>
      <trkpt lat="46.94948" lon="5.9083">
        <ele>622.1103516</ele>
        <time>2011-02-12T14:08:59Z</time>
      </trkpt>
      <trkpt lat="46.94937" lon="5.90839">
        <ele>620.1877441</ele>
        <time>2011-02-12T14:09:04Z</time>
      </trkpt>
      <trkpt lat="46.94933" lon="5.90841">
        <ele>619.2263184</ele>
        <time>2011-02-12T14:09:06Z</time>
      </trkpt>
      <trkpt lat="46.94922" lon="5.9083">
        <ele>617.3037109</ele>
        <time>2011-02-12T14:09:11Z</time>
      </trkpt>
      <trkpt lat="46.94912" lon="5.90816">
        <ele>615.8618164</ele>
        <time>2011-02-12T14:09:17Z</time>
      </trkpt>
      <trkpt lat="46.94905" lon="5.90801">
        <ele>615.3811035</ele>
        <time>2011-02-12T14:09:22Z</time>
      </trkpt>
      <trkpt lat="46.94899" lon="5.90785">
        <ele>613.9389648</ele>
        <time>2011-02-12T14:09:27Z</time>
      </trkpt>
      <trkpt lat="46.94886" lon="5.90766">
        <ele>613.9389648</ele>
        <time>2011-02-12T14:09:34Z</time>
      </trkpt>
      <trkpt lat="46.94873" lon="5.9075">
        <ele>612.4970703</ele>
        <time>2011-02-12T14:09:40Z</time>
      </trkpt>
      <trkpt lat="46.94863" lon="5.90732">
        <ele>612.4970703</ele>
        <time>2011-02-12T14:09:46Z</time>
      </trkpt>
      <trkpt lat="46.94856" lon="5.90718">
        <ele>612.0166016</ele>
        <time>2011-02-12T14:09:50Z</time>
      </trkpt>
      <trkpt lat="46.94849" lon="5.90702">
        <ele>611.0551758</ele>
        <time>2011-02-12T14:09:55Z</time>
      </trkpt>
      <trkpt lat="46.94841" lon="5.90684">
        <ele>610.5744629</ele>
        <time>2011-02-12T14:10:00Z</time>
      </trkpt>
      <trkpt lat="46.94832" lon="5.90664">
        <ele>610.5744629</ele>
        <time>2011-02-12T14:10:06Z</time>
      </trkpt>
      <trkpt lat="46.94824" lon="5.90648">
        <ele>610.5744629</ele>
        <time>2011-02-12T14:10:11Z</time>
      </trkpt>
      <trkpt lat="46.94814" lon="5.90629">
        <ele>610.09375</ele>
        <time>2011-02-12T14:10:17Z</time>
      </trkpt>
      <trkpt lat="46.94808" lon="5.90612">
        <ele>609.1325684</ele>
        <time>2011-02-12T14:10:22Z</time>
      </trkpt>
      <trkpt lat="46.94803" lon="5.90595">
        <ele>607.2099609</ele>
        <time>2011-02-12T14:10:27Z</time>
      </trkpt>
      <trkpt lat="46.94797" lon="5.90579">
        <ele>605.2873535</ele>
        <time>2011-02-12T14:10:32Z</time>
      </trkpt>
      <trkpt lat="46.94791" lon="5.90566">
        <ele>604.8066406</ele>
        <time>2011-02-12T14:10:36Z</time>
      </trkpt>
      <trkpt lat="46.94787" lon="5.90557">
        <ele>604.8066406</ele>
        <time>2011-02-12T14:10:39Z</time>
      </trkpt>
      <trkpt lat="46.94777" lon="5.9054">
        <ele>605.2873535</ele>
        <time>2011-02-12T14:10:44Z</time>
      </trkpt>
      <trkpt lat="46.94769" lon="5.90524">
        <ele>605.2873535</ele>
        <time>2011-02-12T14:10:49Z</time>
      </trkpt>
      <trkpt lat="46.94761" lon="5.90508">
        <ele>606.2485352</ele>
        <time>2011-02-12T14:10:54Z</time>
      </trkpt>
      <trkpt lat="46.94754" lon="5.90492">
        <ele>605.7680664</ele>
        <time>2011-02-12T14:10:59Z</time>
      </trkpt>
      <trkpt lat="46.94748" lon="5.90476">
        <ele>605.2873535</ele>
        <time>2011-02-12T14:11:04Z</time>
      </trkpt>
      <trkpt lat="46.94741" lon="5.9046">
        <ele>605.2873535</ele>
        <time>2011-02-12T14:11:09Z</time>
      </trkpt>
      <trkpt lat="46.94736" lon="5.90445">
        <ele>604.3261719</ele>
        <time>2011-02-12T14:11:14Z</time>
      </trkpt>
      <trkpt lat="46.94733" lon="5.90439">
        <ele>603.8452148</ele>
        <time>2011-02-12T14:11:16Z</time>
      </trkpt>
      <trkpt lat="46.94721" lon="5.90423">
        <ele>604.8066406</ele>
        <time>2011-02-12T14:11:22Z</time>
      </trkpt>
      <trkpt lat="46.94712" lon="5.90412">
        <ele>605.2873535</ele>
        <time>2011-02-12T14:11:26Z</time>
      </trkpt>
      <trkpt lat="46.9471" lon="5.9041">
        <ele>604.8066406</ele>
        <time>2011-02-12T14:11:27Z</time>
      </trkpt>
      <trkpt lat="46.94691" lon="5.90408">
        <ele>604.3261719</ele>
        <time>2011-02-12T14:11:34Z</time>
      </trkpt>
      <trkpt lat="46.94676" lon="5.90413">
        <ele>604.8066406</ele>
        <time>2011-02-12T14:11:39Z</time>
      </trkpt>
      <trkpt lat="46.94666" lon="5.90419">
        <ele>605.7680664</ele>
        <time>2011-02-12T14:11:43Z</time>
      </trkpt>
      <trkpt lat="46.94655" lon="5.90425">
        <ele>607.6906738</ele>
        <time>2011-02-12T14:11:47Z</time>
      </trkpt>
      <trkpt lat="46.94638" lon="5.90434">
        <ele>609.6132813</ele>
        <time>2011-02-12T14:11:53Z</time>
      </trkpt>
      <trkpt lat="46.94625" lon="5.90442">
        <ele>610.5744629</ele>
        <time>2011-02-12T14:11:58Z</time>
      </trkpt>
      <trkpt lat="46.94614" lon="5.90448">
        <ele>610.09375</ele>
        <time>2011-02-12T14:12:02Z</time>
      </trkpt>
      <trkpt lat="46.94597" lon="5.90456">
        <ele>607.6906738</ele>
        <time>2011-02-12T14:12:09Z</time>
      </trkpt>
      <trkpt lat="46.94584" lon="5.90461">
        <ele>606.2485352</ele>
        <time>2011-02-12T14:12:14Z</time>
      </trkpt>
      <trkpt lat="46.94572" lon="5.90468">
        <ele>604.8066406</ele>
        <time>2011-02-12T14:12:19Z</time>
      </trkpt>
      <trkpt lat="46.94559" lon="5.90479">
        <ele>604.8066406</ele>
        <time>2011-02-12T14:12:25Z</time>
      </trkpt>
      <trkpt lat="46.94548" lon="5.90493">
        <ele>604.3261719</ele>
        <time>2011-02-12T14:12:31Z</time>
      </trkpt>
      <trkpt lat="46.94542" lon="5.90507">
        <ele>603.364502</ele>
        <time>2011-02-12T14:12:36Z</time>
      </trkpt>
      <trkpt lat="46.94534" lon="5.90522">
        <ele>602.4030762</ele>
        <time>2011-02-12T14:12:41Z</time>
      </trkpt>
      <trkpt lat="46.94526" lon="5.90534">
        <ele>601.9226074</ele>
        <time>2011-02-12T14:12:46Z</time>
      </trkpt>
      <trkpt lat="46.94515" lon="5.90541">
        <ele>602.4030762</ele>
        <time>2011-02-12T14:12:51Z</time>
      </trkpt>
      <trkpt lat="46.94496" lon="5.9055">
        <ele>603.364502</ele>
        <time>2011-02-12T14:12:58Z</time>
      </trkpt>
      <trkpt lat="46.94482" lon="5.90554">
        <ele>604.8066406</ele>
        <time>2011-02-12T14:13:03Z</time>
      </trkpt>
      <trkpt lat="46.94466" lon="5.90559">
        <ele>605.2873535</ele>
        <time>2011-02-12T14:13:09Z</time>
      </trkpt>
      <trkpt lat="46.94451" lon="5.90558">
        <ele>608.6518555</ele>
        <time>2011-02-12T14:13:15Z</time>
      </trkpt>
      <trkpt lat="46.94439" lon="5.90556">
        <ele>611.0551758</ele>
        <time>2011-02-12T14:13:20Z</time>
      </trkpt>
      <trkpt lat="46.94429" lon="5.90547">
        <ele>610.09375</ele>
        <time>2011-02-12T14:13:25Z</time>
      </trkpt>
      <trkpt lat="46.94422" lon="5.90529">
        <ele>608.6518555</ele>
        <time>2011-02-12T14:13:31Z</time>
      </trkpt>
      <trkpt lat="46.94417" lon="5.90513">
        <ele>607.2099609</ele>
        <time>2011-02-12T14:13:36Z</time>
      </trkpt>
      <trkpt lat="46.94412" lon="5.90501">
        <ele>607.6906738</ele>
        <time>2011-02-12T14:13:40Z</time>
      </trkpt>
      <trkpt lat="46.94407" lon="5.90492">
        <ele>607.6906738</ele>
        <time>2011-02-12T14:13:43Z</time>
      </trkpt>
      <trkpt lat="46.94401" lon="5.90474">
        <ele>608.1713867</ele>
        <time>2011-02-12T14:13:49Z</time>
      </trkpt>
      <trkpt lat="46.94393" lon="5.90455">
        <ele>609.1325684</ele>
        <time>2011-02-12T14:13:55Z</time>
      </trkpt>
      <trkpt lat="46.94387" lon="5.90435">
        <ele>609.1325684</ele>
        <time>2011-02-12T14:14:01Z</time>
      </trkpt>
      <trkpt lat="46.94381" lon="5.9042">
        <ele>609.6132813</ele>
        <time>2011-02-12T14:14:06Z</time>
      </trkpt>
      <trkpt lat="46.94374" lon="5.90402">
        <ele>611.0551758</ele>
        <time>2011-02-12T14:14:12Z</time>
      </trkpt>
      <trkpt lat="46.94367" lon="5.90383">
        <ele>613.4584961</ele>
        <time>2011-02-12T14:14:18Z</time>
      </trkpt>
      <trkpt lat="46.94362" lon="5.90364">
        <ele>614.4196777</ele>
        <time>2011-02-12T14:14:24Z</time>
      </trkpt>
      <trkpt lat="46.94355" lon="5.90343">
        <ele>615.8618164</ele>
        <time>2011-02-12T14:14:31Z</time>
      </trkpt>
      <trkpt lat="46.94349" lon="5.90323">
        <ele>617.3037109</ele>
        <time>2011-02-12T14:14:37Z</time>
      </trkpt>
      <trkpt lat="46.94346" lon="5.90317">
        <ele>617.3037109</ele>
        <time>2011-02-12T14:14:39Z</time>
      </trkpt>
      <trkpt lat="46.94341" lon="5.90306">
        <ele>618.2648926</ele>
        <time>2011-02-12T14:14:43Z</time>
      </trkpt>
      <trkpt lat="46.94334" lon="5.90287">
        <ele>619.7070313</ele>
        <time>2011-02-12T14:14:49Z</time>
      </trkpt>
      <trkpt lat="46.94331" lon="5.90268">
        <ele>619.7070313</ele>
        <time>2011-02-12T14:14:55Z</time>
      </trkpt>
      <trkpt lat="46.94328" lon="5.90249">
        <ele>621.1491699</ele>
        <time>2011-02-12T14:15:01Z</time>
      </trkpt>
      <trkpt lat="46.94324" lon="5.90229">
        <ele>622.5910645</ele>
        <time>2011-02-12T14:15:07Z</time>
      </trkpt>
      <trkpt lat="46.94319" lon="5.90209">
        <ele>623.5524902</ele>
        <time>2011-02-12T14:15:13Z</time>
      </trkpt>
      <trkpt lat="46.94314" lon="5.90187">
        <ele>624.9943848</ele>
        <time>2011-02-12T14:15:20Z</time>
      </trkpt>
      <trkpt lat="46.9431" lon="5.90168">
        <ele>625.9555664</ele>
        <time>2011-02-12T14:15:26Z</time>
      </trkpt>
      <trkpt lat="46.94306" lon="5.90147">
        <ele>625.9555664</ele>
        <time>2011-02-12T14:15:32Z</time>
      </trkpt>
      <trkpt lat="46.94303" lon="5.9013">
        <ele>624.9943848</ele>
        <time>2011-02-12T14:15:37Z</time>
      </trkpt>
      <trkpt lat="46.94297" lon="5.90107">
        <ele>624.5136719</ele>
        <time>2011-02-12T14:15:44Z</time>
      </trkpt>
      <trkpt lat="46.94292" lon="5.90091">
        <ele>625.4748535</ele>
        <time>2011-02-12T14:15:49Z</time>
      </trkpt>
      <trkpt lat="46.94285" lon="5.90073">
        <ele>626.4362793</ele>
        <time>2011-02-12T14:15:55Z</time>
      </trkpt>
      <trkpt lat="46.9428" lon="5.90052">
        <ele>627.3977051</ele>
        <time>2011-02-12T14:16:01Z</time>
      </trkpt>
      <trkpt lat="46.94273" lon="5.90032">
        <ele>628.3588867</ele>
        <time>2011-02-12T14:16:07Z</time>
      </trkpt>
      <trkpt lat="46.94268" lon="5.90015">
        <ele>629.3200684</ele>
        <time>2011-02-12T14:16:12Z</time>
      </trkpt>
      <trkpt lat="46.94262" lon="5.89993">
        <ele>629.3200684</ele>
        <time>2011-02-12T14:16:18Z</time>
      </trkpt>
      <trkpt lat="46.94256" lon="5.89977">
        <ele>628.8395996</ele>
        <time>2011-02-12T14:16:23Z</time>
      </trkpt>
      <trkpt lat="46.94249" lon="5.89957">
        <ele>628.3588867</ele>
        <time>2011-02-12T14:16:29Z</time>
      </trkpt>
      <trkpt lat="46.94241" lon="5.89938">
        <ele>629.3200684</ele>
        <time>2011-02-12T14:16:35Z</time>
      </trkpt>
      <trkpt lat="46.94233" lon="5.89918">
        <ele>628.8395996</ele>
        <time>2011-02-12T14:16:41Z</time>
      </trkpt>
      <trkpt lat="46.94227" lon="5.89906">
        <ele>628.3588867</ele>
        <time>2011-02-12T14:16:45Z</time>
      </trkpt>
      <trkpt lat="46.94219" lon="5.89894">
        <ele>628.8395996</ele>
        <time>2011-02-12T14:16:50Z</time>
      </trkpt>
      <trkpt lat="46.94209" lon="5.89881">
        <ele>628.8395996</ele>
        <time>2011-02-12T14:16:56Z</time>
      </trkpt>
      <trkpt lat="46.942" lon="5.89865">
        <ele>629.8007813</ele>
        <time>2011-02-12T14:17:02Z</time>
      </trkpt>
      <trkpt lat="46.94194" lon="5.89846">
        <ele>630.762207</ele>
        <time>2011-02-12T14:17:08Z</time>
      </trkpt>
      <trkpt lat="46.94185" lon="5.89825">
        <ele>632.6848145</ele>
        <time>2011-02-12T14:17:15Z</time>
      </trkpt>
      <trkpt lat="46.94179" lon="5.89811">
        <ele>633.6459961</ele>
        <time>2011-02-12T14:17:20Z</time>
      </trkpt>
      <trkpt lat="46.94161" lon="5.89797">
        <ele>635.0881348</ele>
        <time>2011-02-12T14:17:28Z</time>
      </trkpt>
      <trkpt lat="46.94145" lon="5.89793">
        <ele>634.126709</ele>
        <time>2011-02-12T14:17:35Z</time>
      </trkpt>
      <trkpt lat="46.94133" lon="5.89793">
        <ele>634.126709</ele>
        <time>2011-02-12T14:17:40Z</time>
      </trkpt>
      <trkpt lat="46.94119" lon="5.89795">
        <ele>634.6074219</ele>
        <time>2011-02-12T14:17:46Z</time>
      </trkpt>
      <trkpt lat="46.94106" lon="5.898">
        <ele>635.0881348</ele>
        <time>2011-02-12T14:17:52Z</time>
      </trkpt>
      <trkpt lat="46.94094" lon="5.89805">
        <ele>634.126709</ele>
        <time>2011-02-12T14:17:57Z</time>
      </trkpt>
      <trkpt lat="46.94081" lon="5.89802">
        <ele>631.7233887</ele>
        <time>2011-02-12T14:18:02Z</time>
      </trkpt>
      <trkpt lat="46.94068" lon="5.89794">
        <ele>630.762207</ele>
        <time>2011-02-12T14:18:07Z</time>
      </trkpt>
      <trkpt lat="46.94059" lon="5.89784">
        <ele>629.8007813</ele>
        <time>2011-02-12T14:18:11Z</time>
      </trkpt>
      <trkpt lat="46.94046" lon="5.89766">
        <ele>630.2814941</ele>
        <time>2011-02-12T14:18:18Z</time>
      </trkpt>
      <trkpt lat="46.94038" lon="5.89753">
        <ele>631.7233887</ele>
        <time>2011-02-12T14:18:23Z</time>
      </trkpt>
      <trkpt lat="46.94029" lon="5.89739">
        <ele>633.1652832</ele>
        <time>2011-02-12T14:18:28Z</time>
      </trkpt>
      <trkpt lat="46.94018" lon="5.89725">
        <ele>634.6074219</ele>
        <time>2011-02-12T14:18:34Z</time>
      </trkpt>
      <trkpt lat="46.94008" lon="5.89712">
        <ele>633.6459961</ele>
        <time>2011-02-12T14:18:40Z</time>
      </trkpt>
      <trkpt lat="46.93997" lon="5.897">
        <ele>633.1652832</ele>
        <time>2011-02-12T14:18:45Z</time>
      </trkpt>
      <trkpt lat="46.93987" lon="5.89683">
        <ele>632.2041016</ele>
        <time>2011-02-12T14:18:51Z</time>
      </trkpt>
      <trkpt lat="46.9398" lon="5.89659">
        <ele>631.7233887</ele>
        <time>2011-02-12T14:18:58Z</time>
      </trkpt>
      <trkpt lat="46.93974" lon="5.89642">
        <ele>631.2429199</ele>
        <time>2011-02-12T14:19:03Z</time>
      </trkpt>
      <trkpt lat="46.93963" lon="5.89632">
        <ele>629.8007813</ele>
        <time>2011-02-12T14:19:08Z</time>
      </trkpt>
      <trkpt lat="46.93949" lon="5.89629">
        <ele>627.8781738</ele>
        <time>2011-02-12T14:19:14Z</time>
      </trkpt>
      <trkpt lat="46.93939" lon="5.89627">
        <ele>625.9555664</ele>
        <time>2011-02-12T14:19:19Z</time>
      </trkpt>
      <trkpt lat="46.93937" lon="5.89626">
        <ele>625.4748535</ele>
        <time>2011-02-12T14:19:20Z</time>
      </trkpt>
      <trkpt lat="46.93919" lon="5.89617">
        <ele>623.0717773</ele>
        <time>2011-02-12T14:19:27Z</time>
      </trkpt>
      <trkpt lat="46.93917" lon="5.89616">
        <ele>622.5910645</ele>
        <time>2011-02-12T14:19:28Z</time>
      </trkpt>
      <trkpt lat="46.93908" lon="5.89609">
        <ele>620.668457</ele>
        <time>2011-02-12T14:19:32Z</time>
      </trkpt>
      <trkpt lat="46.93898" lon="5.89592">
        <ele>618.7456055</ele>
        <time>2011-02-12T14:19:37Z</time>
      </trkpt>
      <trkpt lat="46.93895" lon="5.89583">
        <ele>617.3037109</ele>
        <time>2011-02-12T14:19:39Z</time>
      </trkpt>
      <trkpt lat="46.93883" lon="5.89559">
        <ele>613.4584961</ele>
        <time>2011-02-12T14:19:45Z</time>
      </trkpt>
      <trkpt lat="46.93876" lon="5.89543">
        <ele>612.0166016</ele>
        <time>2011-02-12T14:19:49Z</time>
      </trkpt>
      <trkpt lat="46.9387" lon="5.89529">
        <ele>610.09375</ele>
        <time>2011-02-12T14:19:53Z</time>
      </trkpt>
      <trkpt lat="46.93862" lon="5.89517">
        <ele>608.1713867</ele>
        <time>2011-02-12T14:19:57Z</time>
      </trkpt>
      <trkpt lat="46.93858" lon="5.89507">
        <ele>605.7680664</ele>
        <time>2011-02-12T14:20:01Z</time>
      </trkpt>
      <trkpt lat="46.93849" lon="5.89489">
        <ele>600.4807129</ele>
        <time>2011-02-12T14:20:07Z</time>
      </trkpt>
      <trkpt lat="46.93838" lon="5.8947">
        <ele>597.5966797</ele>
        <time>2011-02-12T14:20:11Z</time>
      </trkpt>
      <trkpt lat="46.9383" lon="5.89452">
        <ele>595.1933594</ele>
        <time>2011-02-12T14:20:15Z</time>
      </trkpt>
      <trkpt lat="46.93823" lon="5.89437">
        <ele>592.3095703</ele>
        <time>2011-02-12T14:20:19Z</time>
      </trkpt>
      <trkpt lat="46.93815" lon="5.89424">
        <ele>589.4255371</ele>
        <time>2011-02-12T14:20:24Z</time>
      </trkpt>
      <trkpt lat="46.93805" lon="5.89413">
        <ele>588.4643555</ele>
        <time>2011-02-12T14:20:28Z</time>
      </trkpt>
      <trkpt lat="46.93799" lon="5.89403">
        <ele>587.5026855</ele>
        <time>2011-02-12T14:20:31Z</time>
      </trkpt>
      <trkpt lat="46.93798" lon="5.894">
        <ele>587.0219727</ele>
        <time>2011-02-12T14:20:32Z</time>
      </trkpt>
      <trkpt lat="46.93794" lon="5.89394">
        <ele>586.060791</ele>
        <time>2011-02-12T14:20:34Z</time>
      </trkpt>
      <trkpt lat="46.93778" lon="5.89378">
        <ele>585.0996094</ele>
        <time>2011-02-12T14:20:40Z</time>
      </trkpt>
      <trkpt lat="46.93771" lon="5.89367">
        <ele>583.1767578</ele>
        <time>2011-02-12T14:20:44Z</time>
      </trkpt>
      <trkpt lat="46.93764" lon="5.89356">
        <ele>582.2155762</ele>
        <time>2011-02-12T14:20:48Z</time>
      </trkpt>
      <trkpt lat="46.9376" lon="5.89345">
        <ele>581.7348633</ele>
        <time>2011-02-12T14:20:52Z</time>
      </trkpt>
      <trkpt lat="46.93754" lon="5.8933">
        <ele>579.8122559</ele>
        <time>2011-02-12T14:20:57Z</time>
      </trkpt>
      <trkpt lat="46.9375" lon="5.89318">
        <ele>580.2929688</ele>
        <time>2011-02-12T14:21:01Z</time>
      </trkpt>
      <trkpt lat="46.9374" lon="5.89307">
        <ele>577.4091797</ele>
        <time>2011-02-12T14:21:06Z</time>
      </trkpt>
      <trkpt lat="46.93727" lon="5.89297">
        <ele>575.0058594</ele>
        <time>2011-02-12T14:21:12Z</time>
      </trkpt>
      <trkpt lat="46.93711" lon="5.89285">
        <ele>573.5639648</ele>
        <time>2011-02-12T14:21:18Z</time>
      </trkpt>
      <trkpt lat="46.93699" lon="5.89279">
        <ele>571.1604004</ele>
        <time>2011-02-12T14:21:23Z</time>
      </trkpt>
      <trkpt lat="46.93688" lon="5.89271">
        <ele>566.8344727</ele>
        <time>2011-02-12T14:21:28Z</time>
      </trkpt>
      <trkpt lat="46.93676" lon="5.89265">
        <ele>562.0280762</ele>
        <time>2011-02-12T14:21:33Z</time>
      </trkpt>
      <trkpt lat="46.93665" lon="5.89258">
        <ele>555.7792969</ele>
        <time>2011-02-12T14:21:38Z</time>
      </trkpt>
      <trkpt lat="46.93656" lon="5.89255">
        <ele>550.9726563</ele>
        <time>2011-02-12T14:21:42Z</time>
      </trkpt>
      <trkpt lat="46.93648" lon="5.89254">
        <ele>548.0888672</ele>
        <time>2011-02-12T14:21:47Z</time>
      </trkpt>
      <trkpt lat="46.93639" lon="5.89251">
        <ele>543.2821045</ele>
        <time>2011-02-12T14:21:52Z</time>
      </trkpt>
      <trkpt lat="46.9363" lon="5.89249">
        <ele>538.9562988</ele>
        <time>2011-02-12T14:21:56Z</time>
      </trkpt>
      <trkpt lat="46.93618" lon="5.89253">
        <ele>534.1496582</ele>
        <time>2011-02-12T14:22:01Z</time>
      </trkpt>
      <trkpt lat="46.93607" lon="5.89256">
        <ele>529.3431396</ele>
        <time>2011-02-12T14:22:06Z</time>
      </trkpt>
      <trkpt lat="46.93599" lon="5.89262">
        <ele>524.536499</ele>
        <time>2011-02-12T14:22:11Z</time>
      </trkpt>
      <trkpt lat="46.93591" lon="5.89268">
        <ele>520.6912842</ele>
        <time>2011-02-12T14:22:16Z</time>
      </trkpt>
      <trkpt lat="46.9358" lon="5.89277">
        <ele>518.2878418</ele>
        <time>2011-02-12T14:22:22Z</time>
      </trkpt>
      <trkpt lat="46.93576" lon="5.89278">
        <ele>517.807251</ele>
        <time>2011-02-12T14:22:24Z</time>
      </trkpt>
      <trkpt lat="46.93567" lon="5.89286">
        <ele>514.9233398</ele>
        <time>2011-02-12T14:22:30Z</time>
      </trkpt>
      <trkpt lat="46.93566" lon="5.89286">
        <ele>514.442627</ele>
        <time>2011-02-12T14:22:31Z</time>
      </trkpt>
      <trkpt lat="46.93561" lon="5.89294">
        <ele>512.0394287</ele>
        <time>2011-02-12T14:22:35Z</time>
      </trkpt>
      <trkpt lat="46.93553" lon="5.89298">
        <ele>509.6361084</ele>
        <time>2011-02-12T14:22:39Z</time>
      </trkpt>
      <trkpt lat="46.93545" lon="5.89307">
        <ele>505.7908936</ele>
        <time>2011-02-12T14:22:45Z</time>
      </trkpt>
      <trkpt lat="46.93542" lon="5.89311">
        <ele>505.3101807</ele>
        <time>2011-02-12T14:22:48Z</time>
      </trkpt>
      <trkpt lat="46.93539" lon="5.89315">
        <ele>507.713501</ele>
        <time>2011-02-12T14:22:55Z</time>
      </trkpt>
      <trkpt lat="46.93536" lon="5.89323">
        <ele>509.1553955</ele>
        <time>2011-02-12T14:23:00Z</time>
      </trkpt>
      <trkpt lat="46.93532" lon="5.89333">
        <ele>509.1553955</ele>
        <time>2011-02-12T14:23:07Z</time>
      </trkpt>
      <trkpt lat="46.93531" lon="5.89342">
        <ele>507.713501</ele>
        <time>2011-02-12T14:23:13Z</time>
      </trkpt>
      <trkpt lat="46.93528" lon="5.8936">
        <ele>505.3101807</ele>
        <time>2011-02-12T14:23:20Z</time>
      </trkpt>
      <trkpt lat="46.93524" lon="5.89381">
        <ele>502.4261475</ele>
        <time>2011-02-12T14:23:27Z</time>
      </trkpt>
      <trkpt lat="46.9352" lon="5.89397">
        <ele>500.0229492</ele>
        <time>2011-02-12T14:23:33Z</time>
      </trkpt>
      <trkpt lat="46.9352" lon="5.89402">
        <ele>498.5809326</ele>
        <time>2011-02-12T14:23:36Z</time>
      </trkpt>
      <trkpt lat="46.93514" lon="5.89407">
        <ele>497.6196289</ele>
        <time>2011-02-12T14:23:41Z</time>
      </trkpt>
      <trkpt lat="46.93504" lon="5.89419">
        <ele>494.7355957</ele>
        <time>2011-02-12T14:23:48Z</time>
      </trkpt>
      <trkpt lat="46.935" lon="5.89424">
        <ele>493.2935791</ele>
        <time>2011-02-12T14:23:51Z</time>
      </trkpt>
      <trkpt lat="46.93493" lon="5.89431">
        <ele>491.8516846</ele>
        <time>2011-02-12T14:23:56Z</time>
      </trkpt>
      <trkpt lat="46.9349" lon="5.89432">
        <ele>491.8516846</ele>
        <time>2011-02-12T14:23:58Z</time>
      </trkpt>
      <trkpt lat="46.93484" lon="5.89432">
        <ele>492.3323975</ele>
        <time>2011-02-12T14:24:02Z</time>
      </trkpt>
      <trkpt lat="46.93473" lon="5.89434">
        <ele>490.8903809</ele>
        <time>2011-02-12T14:24:08Z</time>
      </trkpt>
      <trkpt lat="46.93461" lon="5.8944">
        <ele>490.40979</ele>
        <time>2011-02-12T14:24:13Z</time>
      </trkpt>
      <trkpt lat="46.93457" lon="5.89446">
        <ele>489.9290771</ele>
        <time>2011-02-12T14:24:15Z</time>
      </trkpt>
      <trkpt lat="46.93458" lon="5.89463">
        <ele>488.9677734</ele>
        <time>2011-02-12T14:24:20Z</time>
      </trkpt>
      <trkpt lat="46.93455" lon="5.89473">
        <ele>488.0064697</ele>
        <time>2011-02-12T14:24:24Z</time>
      </trkpt>
      <trkpt lat="46.93445" lon="5.8947">
        <ele>487.5256348</ele>
        <time>2011-02-12T14:24:28Z</time>
      </trkpt>
      <trkpt lat="46.93432" lon="5.89465">
        <ele>487.5256348</ele>
        <time>2011-02-12T14:24:34Z</time>
      </trkpt>
      <trkpt lat="46.93432" lon="5.89465">
        <ele>488.0064697</ele>
        <time>2011-02-12T14:24:38Z</time>
      </trkpt>
      <trkpt lat="46.93436" lon="5.89469">
        <ele>488.0064697</ele>
        <time>2011-02-12T14:24:42Z</time>
      </trkpt>
      <trkpt lat="46.9344" lon="5.89477">
        <ele>488.0064697</ele>
        <time>2011-02-12T14:24:46Z</time>
      </trkpt>
      <trkpt lat="46.93438" lon="5.89492">
        <ele>486.0837402</ele>
        <time>2011-02-12T14:24:51Z</time>
      </trkpt>
      <trkpt lat="46.93437" lon="5.89495">
        <ele>485.6030273</ele>
        <time>2011-02-12T14:24:52Z</time>
      </trkpt>
      <trkpt lat="46.93425" lon="5.89508">
        <ele>482.2385254</ele>
        <time>2011-02-12T14:24:58Z</time>
      </trkpt>
      <trkpt lat="46.93417" lon="5.89522">
        <ele>479.3544922</ele>
        <time>2011-02-12T14:25:03Z</time>
      </trkpt>
      <trkpt lat="46.93408" lon="5.89534">
        <ele>477.4318848</ele>
        <time>2011-02-12T14:25:08Z</time>
      </trkpt>
      <trkpt lat="46.93403" lon="5.89545">
        <ele>475.9898682</ele>
        <time>2011-02-12T14:25:12Z</time>
      </trkpt>
      <trkpt lat="46.93386" lon="5.89558">
        <ele>473.5866699</ele>
        <time>2011-02-12T14:25:19Z</time>
      </trkpt>
      <trkpt lat="46.93373" lon="5.89558">
        <ele>472.6253662</ele>
        <time>2011-02-12T14:25:24Z</time>
      </trkpt>
      <trkpt lat="46.93357" lon="5.89549">
        <ele>473.1060791</ele>
        <time>2011-02-12T14:25:30Z</time>
      </trkpt>
      <trkpt lat="46.93341" lon="5.89527">
        <ele>473.1060791</ele>
        <time>2011-02-12T14:25:38Z</time>
      </trkpt>
      <trkpt lat="46.93335" lon="5.8951">
        <ele>473.1060791</ele>
        <time>2011-02-12T14:25:43Z</time>
      </trkpt>
      <trkpt lat="46.93328" lon="5.89488">
        <ele>472.6253662</ele>
        <time>2011-02-12T14:25:49Z</time>
      </trkpt>
      <trkpt lat="46.93321" lon="5.89467">
        <ele>472.1446533</ele>
        <time>2011-02-12T14:25:55Z</time>
      </trkpt>
      <trkpt lat="46.93314" lon="5.89455">
        <ele>471.1833496</ele>
        <time>2011-02-12T14:25:59Z</time>
      </trkpt>
      <trkpt lat="46.93303" lon="5.8944">
        <ele>470.2219238</ele>
        <time>2011-02-12T14:26:04Z</time>
      </trkpt>
      <trkpt lat="46.93296" lon="5.89428">
        <ele>468.7800293</ele>
        <time>2011-02-12T14:26:08Z</time>
      </trkpt>
      <trkpt lat="46.93288" lon="5.8941">
        <ele>466.8574219</ele>
        <time>2011-02-12T14:26:13Z</time>
      </trkpt>
      <trkpt lat="46.93276" lon="5.8939">
        <ele>465.4155273</ele>
        <time>2011-02-12T14:26:19Z</time>
      </trkpt>
      <trkpt lat="46.93266" lon="5.89373">
        <ele>464.4541016</ele>
        <time>2011-02-12T14:26:25Z</time>
      </trkpt>
      <trkpt lat="46.93258" lon="5.89357">
        <ele>463.012085</ele>
        <time>2011-02-12T14:26:30Z</time>
      </trkpt>
      <trkpt lat="46.93247" lon="5.89341">
        <ele>462.5313721</ele>
        <time>2011-02-12T14:26:35Z</time>
      </trkpt>
      <trkpt lat="46.93233" lon="5.89329">
        <ele>461.5701904</ele>
        <time>2011-02-12T14:26:41Z</time>
      </trkpt>
      <trkpt lat="46.93219" lon="5.89318">
        <ele>459.1668701</ele>
        <time>2011-02-12T14:26:46Z</time>
      </trkpt>
      <trkpt lat="46.93209" lon="5.89311">
        <ele>456.282959</ele>
        <time>2011-02-12T14:26:50Z</time>
      </trkpt>
      <trkpt lat="46.93202" lon="5.89305">
        <ele>453.3989258</ele>
        <time>2011-02-12T14:26:53Z</time>
      </trkpt>
      <trkpt lat="46.93191" lon="5.89298">
        <ele>454.3602295</ele>
        <time>2011-02-12T14:26:57Z</time>
      </trkpt>
      <trkpt lat="46.93176" lon="5.89287">
        <ele>453.8796387</ele>
        <time>2011-02-12T14:27:02Z</time>
      </trkpt>
      <trkpt lat="46.93164" lon="5.89274">
        <ele>455.3215332</ele>
        <time>2011-02-12T14:27:07Z</time>
      </trkpt>
      <trkpt lat="46.93155" lon="5.89261">
        <ele>455.3215332</ele>
        <time>2011-02-12T14:27:12Z</time>
      </trkpt>
      <trkpt lat="46.93151" lon="5.8924">
        <ele>451.4763184</ele>
        <time>2011-02-12T14:27:18Z</time>
      </trkpt>
      <trkpt lat="46.9315" lon="5.89222">
        <ele>448.5924072</ele>
        <time>2011-02-12T14:27:22Z</time>
      </trkpt>
      <trkpt lat="46.9315" lon="5.892">
        <ele>447.6309814</ele>
        <time>2011-02-12T14:27:27Z</time>
      </trkpt>
      <trkpt lat="46.93148" lon="5.89176">
        <ele>447.1502686</ele>
        <time>2011-02-12T14:27:32Z</time>
      </trkpt>
      <trkpt lat="46.93147" lon="5.89154">
        <ele>445.708374</ele>
        <time>2011-02-12T14:27:37Z</time>
      </trkpt>
      <trkpt lat="46.93146" lon="5.89137">
        <ele>444.2664795</ele>
        <time>2011-02-12T14:27:41Z</time>
      </trkpt>
      <trkpt lat="46.93146" lon="5.89131">
        <ele>443.7857666</ele>
        <time>2011-02-12T14:27:42Z</time>
      </trkpt>
      <trkpt lat="46.93156" lon="5.89114">
        <ele>442.3438721</ele>
        <time>2011-02-12T14:27:47Z</time>
      </trkpt>
      <trkpt lat="46.93162" lon="5.89112">
        <ele>442.3438721</ele>
        <time>2011-02-12T14:27:49Z</time>
      </trkpt>
      <trkpt lat="46.9318" lon="5.89109">
        <ele>441.8631592</ele>
        <time>2011-02-12T14:27:55Z</time>
      </trkpt>
      <trkpt lat="46.93185" lon="5.89108">
        <ele>441.8631592</ele>
        <time>2011-02-12T14:27:57Z</time>
      </trkpt>
      <trkpt lat="46.93202" lon="5.89099">
        <ele>440.9018555</ele>
        <time>2011-02-12T14:28:03Z</time>
      </trkpt>
      <trkpt lat="46.93207" lon="5.89095">
        <ele>440.4212646</ele>
        <time>2011-02-12T14:28:05Z</time>
      </trkpt>
      <trkpt lat="46.93212" lon="5.8909">
        <ele>439.9404297</ele>
        <time>2011-02-12T14:28:07Z</time>
      </trkpt>
      <trkpt lat="46.93219" lon="5.89076">
        <ele>438.4985352</ele>
        <time>2011-02-12T14:28:11Z</time>
      </trkpt>
      <trkpt lat="46.93226" lon="5.89055">
        <ele>436.5759277</ele>
        <time>2011-02-12T14:28:16Z</time>
      </trkpt>
      <trkpt lat="46.9323" lon="5.89033">
        <ele>436.0952148</ele>
        <time>2011-02-12T14:28:21Z</time>
      </trkpt>
      <trkpt lat="46.93233" lon="5.89025">
        <ele>436.0952148</ele>
        <time>2011-02-12T14:28:23Z</time>
      </trkpt>
      <trkpt lat="46.93234" lon="5.88998">
        <ele>435.1339111</ele>
        <time>2011-02-12T14:28:29Z</time>
      </trkpt>
      <trkpt lat="46.93227" lon="5.8897">
        <ele>433.6918945</ele>
        <time>2011-02-12T14:28:35Z</time>
      </trkpt>
      <trkpt lat="46.93222" lon="5.88948">
        <ele>431.2885742</ele>
        <time>2011-02-12T14:28:40Z</time>
      </trkpt>
      <trkpt lat="46.93225" lon="5.88922">
        <ele>428.4046631</ele>
        <time>2011-02-12T14:28:46Z</time>
      </trkpt>
      <trkpt lat="46.93229" lon="5.889">
        <ele>426.4820557</ele>
        <time>2011-02-12T14:28:51Z</time>
      </trkpt>
      <trkpt lat="46.93233" lon="5.88872">
        <ele>424.5594482</ele>
        <time>2011-02-12T14:28:57Z</time>
      </trkpt>
      <trkpt lat="46.93237" lon="5.88851">
        <ele>422.6367188</ele>
        <time>2011-02-12T14:29:02Z</time>
      </trkpt>
      <trkpt lat="46.93241" lon="5.88833">
        <ele>421.675415</ele>
        <time>2011-02-12T14:29:06Z</time>
      </trkpt>
      <trkpt lat="46.93242" lon="5.88829">
        <ele>421.675415</ele>
        <time>2011-02-12T14:29:07Z</time>
      </trkpt>
      <trkpt lat="46.93243" lon="5.88808">
        <ele>419.2722168</ele>
        <time>2011-02-12T14:29:12Z</time>
      </trkpt>
      <trkpt lat="46.93236" lon="5.8879">
        <ele>417.8302002</ele>
        <time>2011-02-12T14:29:16Z</time>
      </trkpt>
      <trkpt lat="46.93231" lon="5.8877">
        <ele>416.3881836</ele>
        <time>2011-02-12T14:29:21Z</time>
      </trkpt>
      <trkpt lat="46.93223" lon="5.8875">
        <ele>415.4268799</ele>
        <time>2011-02-12T14:29:26Z</time>
      </trkpt>
      <trkpt lat="46.93222" lon="5.88724">
        <ele>412.5428467</ele>
        <time>2011-02-12T14:29:32Z</time>
      </trkpt>
      <trkpt lat="46.93221" lon="5.88706">
        <ele>410.6202393</ele>
        <time>2011-02-12T14:29:36Z</time>
      </trkpt>
      <trkpt lat="46.9322" lon="5.88692">
        <ele>408.6976318</ele>
        <time>2011-02-12T14:29:39Z</time>
      </trkpt>
      <trkpt lat="46.93214" lon="5.88672">
        <ele>407.7363281</ele>
        <time>2011-02-12T14:29:44Z</time>
      </trkpt>
      <trkpt lat="46.93212" lon="5.88651">
        <ele>406.7749023</ele>
        <time>2011-02-12T14:29:49Z</time>
      </trkpt>
      <trkpt lat="46.93209" lon="5.8863">
        <ele>404.8522949</ele>
        <time>2011-02-12T14:29:53Z</time>
      </trkpt>
      <trkpt lat="46.93211" lon="5.88612">
        <ele>403.4104004</ele>
        <time>2011-02-12T14:29:57Z</time>
      </trkpt>
      <trkpt lat="46.93217" lon="5.88587">
        <ele>401.487793</ele>
        <time>2011-02-12T14:30:03Z</time>
      </trkpt>
      <trkpt lat="46.93219" lon="5.88574">
        <ele>400.5264893</ele>
        <time>2011-02-12T14:30:06Z</time>
      </trkpt>
      <trkpt lat="46.9322" lon="5.88548">
        <ele>397.6424561</ele>
        <time>2011-02-12T14:30:11Z</time>
      </trkpt>
      <trkpt lat="46.93218" lon="5.8853">
        <ele>395.7198486</ele>
        <time>2011-02-12T14:30:15Z</time>
      </trkpt>
      <trkpt lat="46.93217" lon="5.88522">
        <ele>394.7585449</ele>
        <time>2011-02-12T14:30:17Z</time>
      </trkpt>
      <trkpt lat="46.93219" lon="5.8849">
        <ele>392.3553467</ele>
        <time>2011-02-12T14:30:24Z</time>
      </trkpt>
      <trkpt lat="46.9322" lon="5.88472">
        <ele>391.3937988</ele>
        <time>2011-02-12T14:30:28Z</time>
      </trkpt>
      <trkpt lat="46.93227" lon="5.88446">
        <ele>391.3937988</ele>
        <time>2011-02-12T14:30:34Z</time>
      </trkpt>
      <trkpt lat="46.93234" lon="5.8843">
        <ele>390.4326172</ele>
        <time>2011-02-12T14:30:38Z</time>
      </trkpt>
      <trkpt lat="46.93238" lon="5.88413">
        <ele>389.4711914</ele>
        <time>2011-02-12T14:30:42Z</time>
      </trkpt>
      <trkpt lat="46.93244" lon="5.88387">
        <ele>387.548584</ele>
        <time>2011-02-12T14:30:48Z</time>
      </trkpt>
      <trkpt lat="46.93255" lon="5.8836">
        <ele>386.5874023</ele>
        <time>2011-02-12T14:30:55Z</time>
      </trkpt>
      <trkpt lat="46.93265" lon="5.88339">
        <ele>385.6259766</ele>
        <time>2011-02-12T14:31:01Z</time>
      </trkpt>
      <trkpt lat="46.93274" lon="5.88317">
        <ele>383.7032471</ele>
        <time>2011-02-12T14:31:07Z</time>
      </trkpt>
      <trkpt lat="46.93278" lon="5.883">
        <ele>382.2613525</ele>
        <time>2011-02-12T14:31:11Z</time>
      </trkpt>
      <trkpt lat="46.93282" lon="5.88276">
        <ele>380.819458</ele>
        <time>2011-02-12T14:31:17Z</time>
      </trkpt>
      <trkpt lat="46.93283" lon="5.88253">
        <ele>379.8580322</ele>
        <time>2011-02-12T14:31:23Z</time>
      </trkpt>
      <trkpt lat="46.93277" lon="5.88246">
        <ele>379.3774414</ele>
        <time>2011-02-12T14:31:26Z</time>
      </trkpt>
      <trkpt lat="46.93268" lon="5.88237">
        <ele>378.8968506</ele>
        <time>2011-02-12T14:31:30Z</time>
      </trkpt>
      <trkpt lat="46.93266" lon="5.8822">
        <ele>378.8968506</ele>
        <time>2011-02-12T14:31:35Z</time>
      </trkpt>
      <trkpt lat="46.9327" lon="5.88206">
        <ele>378.8968506</ele>
        <time>2011-02-12T14:31:40Z</time>
      </trkpt>
      <trkpt lat="46.93277" lon="5.88185">
        <ele>379.3774414</ele>
        <time>2011-02-12T14:31:48Z</time>
      </trkpt>
      <trkpt lat="46.93282" lon="5.88172">
        <ele>380.3387451</ele>
        <time>2011-02-12T14:31:53Z</time>
      </trkpt>
      <trkpt lat="46.93288" lon="5.88159">
        <ele>380.819458</ele>
        <time>2011-02-12T14:31:58Z</time>
      </trkpt>
      <trkpt lat="46.93296" lon="5.88146">
        <ele>383.2226563</ele>
        <time>2011-02-12T14:32:04Z</time>
      </trkpt>
      <trkpt lat="46.93305" lon="5.88137">
        <ele>384.184082</ele>
        <time>2011-02-12T14:32:09Z</time>
      </trkpt>
      <trkpt lat="46.93316" lon="5.88128">
        <ele>386.1066895</ele>
        <time>2011-02-12T14:32:16Z</time>
      </trkpt>
      <trkpt lat="46.93321" lon="5.88123">
        <ele>388.0292969</ele>
        <time>2011-02-12T14:32:19Z</time>
      </trkpt>
      <trkpt lat="46.93329" lon="5.88115">
        <ele>388.9906006</ele>
        <time>2011-02-12T14:32:24Z</time>
      </trkpt>
      <trkpt lat="46.93338" lon="5.881">
        <ele>389.9519043</ele>
        <time>2011-02-12T14:32:31Z</time>
      </trkpt>
      <trkpt lat="46.93348" lon="5.88086">
        <ele>391.8745117</ele>
        <time>2011-02-12T14:32:38Z</time>
      </trkpt>
      <trkpt lat="46.93356" lon="5.88079">
        <ele>394.2779541</ele>
        <time>2011-02-12T14:32:43Z</time>
      </trkpt>
      <trkpt lat="46.93366" lon="5.88074">
        <ele>396.6811523</ele>
        <time>2011-02-12T14:32:49Z</time>
      </trkpt>
      <trkpt lat="46.93375" lon="5.88073">
        <ele>398.6037598</ele>
        <time>2011-02-12T14:32:54Z</time>
      </trkpt>
      <trkpt lat="46.93385" lon="5.88072">
        <ele>401.0070801</ele>
        <time>2011-02-12T14:33:00Z</time>
      </trkpt>
      <trkpt lat="46.93398" lon="5.88072">
        <ele>402.9296875</ele>
        <time>2011-02-12T14:33:07Z</time>
      </trkpt>
      <trkpt lat="46.9341" lon="5.8807">
        <ele>404.3717041</ele>
        <time>2011-02-12T14:33:13Z</time>
      </trkpt>
      <trkpt lat="46.93424" lon="5.88066">
        <ele>408.217041</ele>
        <time>2011-02-12T14:33:21Z</time>
      </trkpt>
      <trkpt lat="46.93436" lon="5.88063">
        <ele>411.1009521</ele>
        <time>2011-02-12T14:33:27Z</time>
      </trkpt>
      <trkpt lat="46.93445" lon="5.88059">
        <ele>413.9848633</ele>
        <time>2011-02-12T14:33:32Z</time>
      </trkpt>
      <trkpt lat="46.93453" lon="5.88053">
        <ele>415.4268799</ele>
        <time>2011-02-12T14:33:37Z</time>
      </trkpt>
      <trkpt lat="46.93465" lon="5.88046">
        <ele>417.3496094</ele>
        <time>2011-02-12T14:33:43Z</time>
      </trkpt>
      <trkpt lat="46.93477" lon="5.88042">
        <ele>419.2722168</ele>
        <time>2011-02-12T14:33:48Z</time>
      </trkpt>
      <trkpt lat="46.9348" lon="5.88038">
        <ele>419.7528076</ele>
        <time>2011-02-12T14:33:50Z</time>
      </trkpt>
      <trkpt lat="46.93492" lon="5.88031">
        <ele>421.1948242</ele>
        <time>2011-02-12T14:33:56Z</time>
      </trkpt>
      <trkpt lat="46.93501" lon="5.88028">
        <ele>418.7915039</ele>
        <time>2011-02-12T14:34:00Z</time>
      </trkpt>
      <trkpt lat="46.93514" lon="5.88022">
        <ele>415.9074707</ele>
        <time>2011-02-12T14:34:06Z</time>
      </trkpt>
      <trkpt lat="46.93521" lon="5.88019">
        <ele>414.4654541</ele>
        <time>2011-02-12T14:34:09Z</time>
      </trkpt>
      <trkpt lat="46.93532" lon="5.88013">
        <ele>413.5042725</ele>
        <time>2011-02-12T14:34:13Z</time>
      </trkpt>
      <trkpt lat="46.93534" lon="5.88012">
        <ele>412.5428467</ele>
        <time>2011-02-12T14:34:14Z</time>
      </trkpt>
      <trkpt lat="46.93552" lon="5.88004">
        <ele>407.7363281</ele>
        <time>2011-02-12T14:34:20Z</time>
      </trkpt>
      <trkpt lat="46.93568" lon="5.87993">
        <ele>405.3330078</ele>
        <time>2011-02-12T14:34:26Z</time>
      </trkpt>
      <trkpt lat="46.93584" lon="5.87989">
        <ele>402.4490967</ele>
        <time>2011-02-12T14:34:31Z</time>
      </trkpt>
      <trkpt lat="46.93599" lon="5.8798">
        <ele>400.5264893</ele>
        <time>2011-02-12T14:34:36Z</time>
      </trkpt>
      <trkpt lat="46.93609" lon="5.87971">
        <ele>399.0843506</ele>
        <time>2011-02-12T14:34:40Z</time>
      </trkpt>
      <trkpt lat="46.93619" lon="5.87958">
        <ele>398.6037598</ele>
        <time>2011-02-12T14:34:45Z</time>
      </trkpt>
      <trkpt lat="46.93622" lon="5.87951">
        <ele>398.6037598</ele>
        <time>2011-02-12T14:34:47Z</time>
      </trkpt>
      <trkpt lat="46.93617" lon="5.87941">
        <ele>399.0843506</ele>
        <time>2011-02-12T14:34:51Z</time>
      </trkpt>
      <trkpt lat="46.9361" lon="5.87935">
        <ele>398.6037598</ele>
        <time>2011-02-12T14:34:54Z</time>
      </trkpt>
      <trkpt lat="46.93601" lon="5.87917">
        <ele>396.2005615</ele>
        <time>2011-02-12T14:35:00Z</time>
      </trkpt>
      <trkpt lat="46.93603" lon="5.87901">
        <ele>392.3553467</ele>
        <time>2011-02-12T14:35:04Z</time>
      </trkpt>
      <trkpt lat="46.93605" lon="5.87897">
        <ele>391.3937988</ele>
        <time>2011-02-12T14:35:05Z</time>
      </trkpt>
      <trkpt lat="46.93617" lon="5.87888">
        <ele>388.5100098</ele>
        <time>2011-02-12T14:35:10Z</time>
      </trkpt>
      <trkpt lat="46.93622" lon="5.87886">
        <ele>388.0292969</ele>
        <time>2011-02-12T14:35:12Z</time>
      </trkpt>
      <trkpt lat="46.93632" lon="5.87881">
        <ele>386.1066895</ele>
        <time>2011-02-12T14:35:16Z</time>
      </trkpt>
      <trkpt lat="46.93648" lon="5.87872">
        <ele>387.548584</ele>
        <time>2011-02-12T14:35:22Z</time>
      </trkpt>
      <trkpt lat="46.93661" lon="5.87864">
        <ele>386.1066895</ele>
        <time>2011-02-12T14:35:27Z</time>
      </trkpt>
      <trkpt lat="46.93676" lon="5.87861">
        <ele>384.6647949</ele>
        <time>2011-02-12T14:35:33Z</time>
      </trkpt>
      <trkpt lat="46.93689" lon="5.87865">
        <ele>385.6259766</ele>
        <time>2011-02-12T14:35:38Z</time>
      </trkpt>
      <trkpt lat="46.93702" lon="5.87871">
        <ele>385.6259766</ele>
        <time>2011-02-12T14:35:43Z</time>
      </trkpt>
      <trkpt lat="46.93714" lon="5.87872">
        <ele>383.2226563</ele>
        <time>2011-02-12T14:35:47Z</time>
      </trkpt>
      <trkpt lat="46.93735" lon="5.87874">
        <ele>377.9354248</ele>
        <time>2011-02-12T14:35:54Z</time>
      </trkpt>
      <trkpt lat="46.93753" lon="5.87874">
        <ele>373.6094971</ele>
        <time>2011-02-12T14:36:00Z</time>
      </trkpt>
      <trkpt lat="46.93765" lon="5.87873">
        <ele>371.2062988</ele>
        <time>2011-02-12T14:36:04Z</time>
      </trkpt>
      <trkpt lat="46.93782" lon="5.8787">
        <ele>367.8415527</ele>
        <time>2011-02-12T14:36:10Z</time>
      </trkpt>
      <trkpt lat="46.93796" lon="5.8787">
        <ele>365.4383545</ele>
        <time>2011-02-12T14:36:15Z</time>
      </trkpt>
      <trkpt lat="46.9381" lon="5.87867">
        <ele>364.9576416</ele>
        <time>2011-02-12T14:36:20Z</time>
      </trkpt>
      <trkpt lat="46.93825" lon="5.87864">
        <ele>365.4383545</ele>
        <time>2011-02-12T14:36:25Z</time>
      </trkpt>
      <trkpt lat="46.93841" lon="5.87863">
        <ele>363.5157471</ele>
        <time>2011-02-12T14:36:30Z</time>
      </trkpt>
      <trkpt lat="46.93844" lon="5.87861">
        <ele>362.0737305</ele>
        <time>2011-02-12T14:36:31Z</time>
      </trkpt>
      <trkpt lat="46.93842" lon="5.87845">
        <ele>361.5931396</ele>
        <time>2011-02-12T14:36:35Z</time>
      </trkpt>
      <trkpt lat="46.93835" lon="5.87828">
        <ele>361.5931396</ele>
        <time>2011-02-12T14:36:39Z</time>
      </trkpt>
      <trkpt lat="46.93837" lon="5.87805">
        <ele>358.7089844</ele>
        <time>2011-02-12T14:36:44Z</time>
      </trkpt>
      <trkpt lat="46.93845" lon="5.87798">
        <ele>356.786377</ele>
        <time>2011-02-12T14:36:47Z</time>
      </trkpt>
      <trkpt lat="46.93857" lon="5.87798">
        <ele>355.3444824</ele>
        <time>2011-02-12T14:36:51Z</time>
      </trkpt>
      <trkpt lat="46.93867" lon="5.87805">
        <ele>354.3831787</ele>
        <time>2011-02-12T14:36:55Z</time>
      </trkpt>
      <trkpt lat="46.93878" lon="5.87807">
        <ele>355.8251953</ele>
        <time>2011-02-12T14:36:59Z</time>
      </trkpt>
      <trkpt lat="46.93891" lon="5.87805">
        <ele>355.8251953</ele>
        <time>2011-02-12T14:37:03Z</time>
      </trkpt>
      <trkpt lat="46.93894" lon="5.87805">
        <ele>355.3444824</ele>
        <time>2011-02-12T14:37:04Z</time>
      </trkpt>
      <trkpt lat="46.93912" lon="5.87802">
        <ele>353.9025879</ele>
        <time>2011-02-12T14:37:10Z</time>
      </trkpt>
      <trkpt lat="46.93927" lon="5.87795">
        <ele>352.9411621</ele>
        <time>2011-02-12T14:37:16Z</time>
      </trkpt>
      <trkpt lat="46.93928" lon="5.87793">
        <ele>352.4605713</ele>
        <time>2011-02-12T14:37:17Z</time>
      </trkpt>
      <trkpt lat="46.9393" lon="5.87786">
        <ele>351.4991455</ele>
        <time>2011-02-12T14:37:20Z</time>
      </trkpt>
      <trkpt lat="46.9393" lon="5.87779">
        <ele>351.4991455</ele>
        <time>2011-02-12T14:37:23Z</time>
      </trkpt>
      <trkpt lat="46.93935" lon="5.87768">
        <ele>351.4991455</ele>
        <time>2011-02-12T14:37:28Z</time>
      </trkpt>
    </trkseg>
  </trk>
</gpx>